Time,TemperatureF,DewpointF,PressureIn,WindDirection,WindDirectionDegrees,WindSpeedMPH,WindSpeedGustMPH,Humidity,HourlyPrecipIn,Conditions,Clouds,dailyrainin,SolarRadiationWatts/m^2,SoftwareType,DateUTC
2014-03-01 00:00:00,32.6,25.6,30.05,NW,325,8.1,8.1,75,0.00,CLR,,0.00,0.0,WeatherDisplay:10.37,2014-03-01 06:00:00,
2014-03-01 00:01:00,32.5,25.5,30.06,NNW,336,3.5,3.5,75,0.00,CLR,,0.00,0.0,WeatherDisplay:10.37,2014-03-01 06:01:00,
2014-03-01 00:02:00,32.5,25.5,30.06,NNE,13,5.8,5.8,75,0.00,CLR,,0.00,0.0,WeatherDisplay:10.37,2014-03-01 06:02:00,
2014-03-01 00:03:00,32.5,25.5,30.06,NNW,343,8.1,8.1,75,0.00,CLR,,0.00,0.0,WeatherDisplay:10.37,2014-03-01 06:03:00,
2014-03-01 00:04:00,32.5,25.5,30.06,NW,320,3.5,3.5,75,0.00,CLR,,0.00,0.0,WeatherDisplay:10.37,2014-03-01 06:04:00,
2014-03-01 00:05:00,32.5,25.5,30.06,West,279,3.5,3.5,75,0.00,CLR,,0.00,0.0,WeatherDisplay:10.37,2014-03-01 06:05:00,
2014-03-01 00:07:00,32.4,25.4,30.06,NNW,327,3.5,3.5,75,0.00,CLR,,0.00,0.0,WeatherDisplay:10.37,2014-03-01 06:07:00,
2014-03-01 00:09:00,32.4,25.7,30.06,North,360,4.6,4.6,76,0.00,CLR,,0.00,0.0,WeatherDisplay:10.37,2014-03-01 06:09:00,
2014-03-01 00:10:00,32.4,25.7,30.07,NW,323,4.6,4.6,76,0.00,CLR,,0.00,0.0,WeatherDisplay:10.37,2014-03-01 06:10:00,
2014-03-01 00:12:00,32.4,25.7,30.07,NNW,340,5.8,5.8,76,0.00,CLR,,0.00,0.0,WeatherDisplay:10.37,2014-03-01 06:12:00,
2014-03-01 00:14:00,32.3,25.6,30.07,NNE,16,9.2,9.2,76,0.00,CLR,,0.00,0.0,WeatherDisplay:10.37,2014-03-01 06:14:00,
2014-03-01 00:15:00,32.3,25.6,30.07,North,355,6.9,6.9,76,0.00,CLR,,0.00,0.0,WeatherDisplay:10.37,2014-03-01 06:15:00,
2014-03-01 00:17:00,32.2,25.5,30.06,NNW,335,4.6,4.6,76,0.00,CLR,,0.00,0.0,WeatherDisplay:10.37,2014-03-01 06:17:00,
2014-03-01 00:20:00,32.1,25.7,30.06,North,355,10.4,10.4,77,0.00,CLR,,0.00,0.0,WeatherDisplay:10.37,2014-03-01 06:20:00,
2014-03-01 00:21:00,32.1,25.7,30.06,NW,326,4.6,4.6,77,0.00,CLR,,0.00,0.0,WeatherDisplay:10.37,2014-03-01 06:21:00,
2014-03-01 00:22:00,32.1,25.7,30.06,NW,320,9.2,9.2,77,0.00,CLR,,0.00,0.0,WeatherDisplay:10.37,2014-03-01 06:22:00,
2014-03-01 00:23:00,32.1,25.7,30.06,North,355,9.2,9.2,77,0.00,CLR,,0.00,0.0,WeatherDisplay:10.37,2014-03-01 06:23:00,
2014-03-01 00:25:00,32.0,25.6,30.06,NNE,21,9.2,9.2,77,0.00,CLR,,0.00,0.0,WeatherDisplay:10.37,2014-03-01 06:25:00,
2014-03-01 00:26:00,32.0,25.6,30.06,NNW,339,9.2,9.2,77,0.00,CLR,,0.00,0.0,WeatherDisplay:10.37,2014-03-01 06:26:00,
2014-03-01 00:27:00,32.0,25.6,30.06,North,9,8.1,8.1,77,0.00,CLR,,0.00,0.0,WeatherDisplay:10.37,2014-03-01 06:27:00,
2014-03-01 00:28:00,31.9,25.5,30.06,North,5,9.2,9.2,77,0.00,CLR,,0.00,0.0,WeatherDisplay:10.37,2014-03-01 06:28:00,
2014-03-01 00:30:00,31.9,25.5,30.06,NE,34,5.8,5.8,77,0.00,CLR,,0.00,0.0,WeatherDisplay:10.37,2014-03-01 06:30:00,
2014-03-01 00:31:00,31.9,25.5,30.05,North,11,6.9,6.9,77,0.00,CLR,,0.00,0.0,WeatherDisplay:10.37,2014-03-01 06:31:00,
2014-03-01 00:33:00,31.8,25.7,30.05,NNE,15,11.5,11.5,78,0.00,CLR,,0.00,0.0,WeatherDisplay:10.37,2014-03-01 06:33:00,
2014-03-01 00:34:00,31.8,25.7,30.05,NNE,16,11.5,11.5,78,0.00,CLR,,0.00,0.0,WeatherDisplay:10.37,2014-03-01 06:34:00,
2014-03-01 00:35:00,31.8,25.7,30.05,WNW,288,11.5,11.5,78,0.00,CLR,,0.00,0.0,WeatherDisplay:10.37,2014-03-01 06:35:00,
2014-03-01 00:36:00,31.7,25.6,30.05,NNW,338,9.2,9.2,78,0.00,CLR,,0.00,0.0,WeatherDisplay:10.37,2014-03-01 06:36:00,
2014-03-01 00:38:00,31.7,25.6,30.05,NNW,346,8.1,8.1,78,0.00,CLR,,0.00,0.0,WeatherDisplay:10.37,2014-03-01 06:38:00,
2014-03-01 00:39:00,31.7,25.6,30.05,NNW,331,5.8,5.8,78,0.00,CLR,,0.00,0.0,WeatherDisplay:10.37,2014-03-01 06:39:00,
2014-03-01 00:40:00,31.7,25.6,30.05,NNW,342,5.8,5.8,78,0.00,CLR,,0.00,0.0,WeatherDisplay:10.37,2014-03-01 06:40:00,
2014-03-01 00:41:00,31.7,25.6,30.05,NNW,327,8.1,8.1,78,0.00,CLR,,0.00,0.0,WeatherDisplay:10.37,2014-03-01 06:41:00,
2014-03-01 00:42:00,31.6,25.5,30.05,North,5,4.0,4.0,78,0.00,CLR,,0.00,0.0,WeatherDisplay:10.37,2014-03-01 06:42:00,
2014-03-01 00:43:00,31.6,25.8,30.06,NNW,335,3.5,3.5,79,0.00,CLR,,0.00,0.0,WeatherDisplay:10.37,2014-03-01 06:43:00,
2014-03-01 00:44:00,31.6,25.8,30.06,North,360,3.5,3.5,79,0.00,CLR,,0.00,0.0,WeatherDisplay:10.37,2014-03-01 06:44:00,
2014-03-01 00:45:00,31.6,25.8,30.06,NNE,19,4.6,4.6,79,0.00,CLR,,0.00,0.0,WeatherDisplay:10.37,2014-03-01 06:45:00,
2014-03-01 00:46:00,31.6,25.8,30.06,NNW,347,4.6,4.6,79,0.00,CLR,,0.00,0.0,WeatherDisplay:10.37,2014-03-01 06:46:00,
2014-03-01 00:47:00,31.6,25.8,30.06,North,350,3.5,3.5,79,0.00,CLR,,0.00,0.0,WeatherDisplay:10.37,2014-03-01 06:47:00,
2014-03-01 00:48:00,31.6,26.0,30.06,NNW,338,3.0,9.0,79,0.00,,,0.00,0,weatherlink.com 1.10,2014-03-01 06:48:00,
2014-03-01 00:49:00,31.5,25.7,30.06,NNW,337,4.0,4.9,79,0.00,CLR,,0.00,0.0,WeatherDisplay:10.37,2014-03-01 06:49:00,
2014-03-01 00:50:00,31.5,25.7,30.06,North,360,11.5,11.5,79,0.00,CLR,,0.00,0.0,WeatherDisplay:10.37,2014-03-01 06:50:00,
2014-03-01 00:51:00,31.5,25.7,30.06,North,355,11.5,11.5,79,0.00,CLR,,0.00,0.0,WeatherDisplay:10.37,2014-03-01 06:51:00,
2014-03-01 00:52:00,31.5,25.7,30.06,NNE,26,4.6,4.6,79,0.00,CLR,,0.00,0.0,WeatherDisplay:10.37,2014-03-01 06:52:00,
2014-03-01 00:54:00,31.5,25.7,30.07,NE,52,4.6,4.6,79,0.00,CLR,,0.00,0.0,WeatherDisplay:10.37,2014-03-01 06:54:00,
2014-03-01 00:55:00,31.5,26.0,30.07,NNW,330,9.2,9.2,80,0.00,CLR,,0.00,0.0,WeatherDisplay:10.37,2014-03-01 06:55:00,
2014-03-01 00:56:00,31.4,25.9,30.07,NW,314,3.5,3.5,80,0.00,CLR,,0.00,0.0,WeatherDisplay:10.37,2014-03-01 06:56:00,
2014-03-01 00:57:00,31.4,25.9,30.07,North,355,10.4,10.4,80,0.00,CLR,,0.00,0.0,WeatherDisplay:10.37,2014-03-01 06:57:00,
2014-03-01 00:59:00,31.4,25.9,30.07,NNW,336,8.1,8.1,80,0.00,CLR,,0.00,0.0,WeatherDisplay:10.37,2014-03-01 06:59:00,
2014-03-01 01:00:00,31.4,25.9,30.08,NW,325,11.5,11.5,80,0.00,CLR,,0.00,0.0,WeatherDisplay:10.37,2014-03-01 07:00:00,
2014-03-01 01:01:00,31.3,25.8,30.08,NNW,336,11.5,11.5,80,0.00,CLR,,0.00,0.0,WeatherDisplay:10.37,2014-03-01 07:01:00,
2014-03-01 01:02:00,31.4,25.9,30.08,NW,304,11.5,11.5,80,0.00,CLR,,0.00,0.0,WeatherDisplay:10.37,2014-03-01 07:02:00,
2014-03-01 01:03:00,31.3,25.8,30.08,WNW,291,10.4,10.4,80,0.00,CLR,,0.00,0.0,WeatherDisplay:10.37,2014-03-01 07:03:00,
2014-03-01 01:04:00,31.3,25.8,30.08,NNW,340,11.5,11.5,80,0.00,CLR,,0.00,0.0,WeatherDisplay:10.37,2014-03-01 07:04:00,
2014-03-01 01:05:00,31.3,25.8,30.08,NNW,333,11.5,11.5,80,0.00,CLR,,0.00,0.0,WeatherDisplay:10.37,2014-03-01 07:05:00,
2014-03-01 01:06:00,31.2,25.7,30.08,NNW,335,11.0,11.0,80,0.00,CLR,,0.00,0.0,WeatherDisplay:10.37,2014-03-01 07:06:00,
2014-03-01 01:07:00,31.2,25.7,30.08,NNW,333,11.5,11.5,80,0.00,CLR,,0.00,0.0,WeatherDisplay:10.37,2014-03-01 07:07:00,
2014-03-01 01:08:00,31.2,25.7,30.08,North,9,8.0,8.0,80,0.00,CLR,,0.00,0.0,WeatherDisplay:10.37,2014-03-01 07:08:00,
2014-03-01 01:09:00,31.1,25.7,30.08,North,9,9.2,9.2,80,0.00,CLR,,0.00,0.0,WeatherDisplay:10.37,2014-03-01 07:09:00,
2014-03-01 01:10:00,31.2,25.7,30.08,NNE,28,9.2,9.2,80,0.00,CLR,,0.00,0.0,WeatherDisplay:10.37,2014-03-01 07:10:00,
2014-03-01 01:12:00,31.1,25.7,30.08,North,350,5.8,5.8,80,0.00,CLR,,0.00,0.0,WeatherDisplay:10.37,2014-03-01 07:12:00,
2014-03-01 01:14:00,31.1,26.0,30.08,North,5,10.4,10.4,81,0.00,CLR,,0.00,0.0,WeatherDisplay:10.37,2014-03-01 07:14:00,
2014-03-01 01:15:00,31.1,26.0,30.08,NNE,14,10.4,10.4,81,0.00,CLR,,0.00,0.0,WeatherDisplay:10.37,2014-03-01 07:15:00,
2014-03-01 01:16:00,31.0,25.6,30.08,North,9,6.9,6.9,80,0.00,CLR,,0.00,0.0,WeatherDisplay:10.37,2014-03-01 07:16:00,
2014-03-01 01:17:00,31.0,25.6,30.08,NNW,337,6.9,6.9,80,0.00,CLR,,0.00,0.0,WeatherDisplay:10.37,2014-03-01 07:17:00,
2014-03-01 01:18:00,31.0,25.6,30.08,NNW,348,6.9,6.9,80,0.00,CLR,,0.00,0.0,WeatherDisplay:10.37,2014-03-01 07:18:00,
2014-03-01 01:19:00,31.0,25.9,30.07,NW,323,9.2,9.2,81,0.00,CLR,,0.00,0.0,WeatherDisplay:10.37,2014-03-01 07:19:00,
2014-03-01 01:20:00,31.0,25.9,30.07,North,355,10.4,10.4,81,0.00,CLR,,0.00,0.0,WeatherDisplay:10.37,2014-03-01 07:20:00,
2014-03-01 01:21:00,31.0,25.9,30.07,North,355,5.0,5.0,81,0.00,CLR,,0.00,0.0,WeatherDisplay:10.37,2014-03-01 07:21:00,
2014-03-01 01:23:00,30.9,25.8,30.07,North,355,9.0,9.0,81,0.00,CLR,,0.00,0.0,WeatherDisplay:10.37,2014-03-01 07:23:00,
2014-03-01 01:25:00,30.8,25.7,30.08,NNE,29,9.2,9.2,81,0.00,CLR,,0.00,0.0,WeatherDisplay:10.37,2014-03-01 07:25:00,
2014-03-01 01:26:00,30.8,25.7,30.08,North,355,10.0,10.0,81,0.00,CLR,,0.00,0.0,WeatherDisplay:10.37,2014-03-01 07:26:00,
2014-03-01 01:28:00,30.8,25.7,30.08,North,355,10.4,10.4,81,0.00,CLR,,0.00,0.0,WeatherDisplay:10.37,2014-03-01 07:28:00,
2014-03-01 01:29:00,30.8,25.7,30.08,North,10,4.6,4.6,81,0.00,CLR,,0.00,0.0,WeatherDisplay:10.37,2014-03-01 07:29:00,
2014-03-01 01:30:00,30.7,25.6,30.09,NNW,333,11.5,11.5,81,0.00,CLR,,0.00,0.0,WeatherDisplay:10.37,2014-03-01 07:30:00,
2014-03-01 01:31:00,30.7,25.6,30.09,NNW,338,3.5,3.5,81,0.00,CLR,,0.00,0.0,WeatherDisplay:10.37,2014-03-01 07:31:00,
2014-03-01 01:33:00,30.7,25.6,30.09,NNW,336,9.2,9.2,81,0.00,CLR,,0.00,0.0,WeatherDisplay:10.37,2014-03-01 07:33:00,
2014-03-01 01:34:00,30.7,26.0,30.09,NNW,344,3.0,12.0,81,0.00,,,0.00,0,weatherlink.com 1.10,2014-03-01 07:34:00,
2014-03-01 01:35:00,30.7,25.6,30.09,WNW,297,4.0,4.0,81,0.00,CLR,,0.00,0.0,WeatherDisplay:10.37,2014-03-01 07:35:00,
2014-03-01 01:36:00,30.7,25.6,30.09,North,10,9.0,9.0,81,0.00,CLR,,0.00,0.0,WeatherDisplay:10.37,2014-03-01 07:36:00,
2014-03-01 01:37:00,30.7,25.6,30.09,North,11,11.5,11.5,81,0.00,CLR,,0.00,0.0,WeatherDisplay:10.37,2014-03-01 07:37:00,
2014-03-01 01:38:00,30.6,25.8,30.09,North,355,10.0,10.0,82,0.00,CLR,,0.00,0.0,WeatherDisplay:10.37,2014-03-01 07:38:00,
2014-03-01 01:40:00,30.6,25.8,30.08,NNE,15,8.1,8.1,82,0.00,CLR,,0.00,0.0,WeatherDisplay:10.37,2014-03-01 07:40:00,
2014-03-01 01:41:00,30.6,25.8,30.08,NNE,21,8.1,8.1,82,0.00,CLR,,0.00,0.0,WeatherDisplay:10.37,2014-03-01 07:41:00,
2014-03-01 01:42:00,30.5,25.7,30.08,NW,314,9.2,9.2,82,0.00,CLR,,0.00,0.0,WeatherDisplay:10.37,2014-03-01 07:42:00,
2014-03-01 01:43:00,30.5,25.7,30.08,NNE,15,4.6,4.6,82,0.00,CLR,,0.00,0.0,WeatherDisplay:10.37,2014-03-01 07:43:00,
2014-03-01 01:45:00,30.4,25.6,30.08,NW,309,10.4,10.4,82,0.00,CLR,,0.00,0.0,WeatherDisplay:10.37,2014-03-01 07:45:00,
2014-03-01 01:46:00,30.4,25.6,30.08,NNE,24,10.4,10.4,82,0.00,CLR,,0.00,0.0,WeatherDisplay:10.37,2014-03-01 07:46:00,
2014-03-01 01:47:00,30.4,25.6,30.08,NW,320,10.4,10.4,82,0.00,CLR,,0.00,0.0,WeatherDisplay:10.37,2014-03-01 07:47:00,
2014-03-01 01:48:00,30.4,25.6,30.08,North,5,5.8,5.8,82,0.00,CLR,,0.00,0.0,WeatherDisplay:10.37,2014-03-01 07:48:00,
2014-03-01 01:50:00,30.3,25.5,30.08,NNW,348,4.6,4.6,82,0.00,CLR,,0.00,0.0,WeatherDisplay:10.37,2014-03-01 07:50:00,
2014-03-01 01:52:00,30.2,25.4,30.08,NNE,29,10.4,10.4,82,0.00,CLR,,0.00,0.0,WeatherDisplay:10.37,2014-03-01 07:52:00,
2014-03-01 01:53:00,30.2,25.4,30.08,NW,320,6.9,6.9,82,0.00,CLR,,0.00,0.0,WeatherDisplay:10.37,2014-03-01 07:53:00,
2014-03-01 01:54:00,30.2,25.4,30.08,NNW,329,6.9,6.9,82,0.00,CLR,,0.00,0.0,WeatherDisplay:10.37,2014-03-01 07:54:00,
2014-03-01 01:55:00,30.1,25.3,30.07,NW,326,8.1,8.1,82,0.00,CLR,,0.00,0.0,WeatherDisplay:10.37,2014-03-01 07:55:00,
2014-03-01 01:57:00,30.1,25.3,30.07,NE,43,11.0,11.0,82,0.00,CLR,,0.00,0.0,WeatherDisplay:10.37,2014-03-01 07:57:00,
2014-03-01 01:58:00,30.0,25.2,30.07,NNE,17,11.5,11.5,82,0.00,CLR,,0.00,0.0,WeatherDisplay:10.37,2014-03-01 07:58:00,
2014-03-01 01:59:00,30.0,25.2,30.07,NW,319,10.4,10.4,82,0.00,CLR,,0.00,0.0,WeatherDisplay:10.37,2014-03-01 07:59:00,
2014-03-01 02:00:00,29.9,25.1,30.07,NNE,15,6.9,6.9,82,0.00,CLR,,0.00,0.0,WeatherDisplay:10.37,2014-03-01 08:00:00,
2014-03-01 02:02:00,29.9,25.1,30.06,NNE,15,3.0,3.0,82,0.00,CLR,,0.00,0.0,WeatherDisplay:10.37,2014-03-01 08:02:00,
2014-03-01 02:03:00,29.9,25.4,30.06,North,350,4.6,4.6,83,0.00,CLR,,0.00,0.0,WeatherDisplay:10.37,2014-03-01 08:03:00,
2014-03-01 02:04:00,29.9,25.0,30.07,NNW,327,5.0,12.0,83,0.00,,,0.00,0,weatherlink.com 1.10,2014-03-01 08:04:00,
2014-03-01 02:05:00,29.8,25.3,30.07,NNW,334,10.4,10.4,83,0.00,CLR,,0.00,0.0,WeatherDisplay:10.37,2014-03-01 08:05:00,
2014-03-01 02:06:00,29.8,25.3,30.07,North,355,8.1,8.1,83,0.00,CLR,,0.00,0.0,WeatherDisplay:10.37,2014-03-01 08:06:00,
2014-03-01 02:07:00,29.8,25.3,30.07,NW,321,8.1,8.1,83,0.00,CLR,,0.00,0.0,WeatherDisplay:10.37,2014-03-01 08:07:00,
2014-03-01 02:08:00,29.7,25.2,30.07,NNW,336,6.9,6.9,83,0.00,CLR,,0.00,0.0,WeatherDisplay:10.37,2014-03-01 08:08:00,
2014-03-01 02:09:00,29.7,25.2,30.07,NNW,338,6.9,6.9,83,0.00,CLR,,0.00,0.0,WeatherDisplay:10.37,2014-03-01 08:09:00,
2014-03-01 02:10:00,29.6,25.1,30.07,NNW,331,10.4,10.4,83,0.00,CLR,,0.00,0.0,WeatherDisplay:10.37,2014-03-01 08:10:00,
2014-03-01 02:11:00,29.6,25.1,30.08,NNW,336,4.0,4.0,83,0.00,CLR,,0.00,0.0,WeatherDisplay:10.37,2014-03-01 08:11:00,
2014-03-01 02:12:00,29.6,25.1,30.07,North,360,9.2,9.2,83,0.00,CLR,,0.00,0.0,WeatherDisplay:10.37,2014-03-01 08:12:00,
2014-03-01 02:13:00,29.6,25.1,30.07,NNW,329,10.4,10.4,83,0.00,CLR,,0.00,0.0,WeatherDisplay:10.37,2014-03-01 08:13:00,
2014-03-01 02:14:00,29.6,25.1,30.07,NNE,24,5.0,5.0,83,0.00,CLR,,0.00,0.0,WeatherDisplay:10.37,2014-03-01 08:14:00,
2014-03-01 02:15:00,29.5,25.0,30.07,NNW,337,6.9,6.9,83,0.00,CLR,,0.00,0.0,WeatherDisplay:10.37,2014-03-01 08:15:00,
2014-03-01 02:16:00,29.5,25.0,30.07,North,5,11.5,11.5,83,0.00,CLR,,0.00,0.0,WeatherDisplay:10.37,2014-03-01 08:16:00,
2014-03-01 02:18:00,29.5,25.0,30.08,NNW,341,9.2,9.2,83,0.00,CLR,,0.00,0.0,WeatherDisplay:10.37,2014-03-01 08:18:00,
2014-03-01 02:19:00,29.4,24.9,30.07,NNE,15,5.0,5.0,83,0.00,CLR,,0.00,0.0,WeatherDisplay:10.37,2014-03-01 08:19:00,
2014-03-01 02:21:00,29.4,24.9,30.07,North,355,10.4,10.4,83,0.00,CLR,,0.00,0.0,WeatherDisplay:10.37,2014-03-01 08:21:00,
2014-03-01 02:22:00,29.4,24.9,30.07,NE,42,9.2,9.2,83,0.00,CLR,,0.00,0.0,WeatherDisplay:10.37,2014-03-01 08:22:00,
2014-03-01 02:23:00,29.4,24.9,30.07,NW,309,10.4,10.4,83,0.00,CLR,,0.00,0.0,WeatherDisplay:10.37,2014-03-01 08:23:00,
2014-03-01 02:26:00,29.4,24.9,30.07,NNE,13,11.5,11.5,83,0.00,CLR,,0.00,0.0,WeatherDisplay:10.37,2014-03-01 08:26:00,
2014-03-01 02:27:00,29.3,24.8,30.07,NNW,333,4.6,4.6,83,0.00,CLR,,0.00,0.0,WeatherDisplay:10.37,2014-03-01 08:27:00,
2014-03-01 02:28:00,29.3,24.8,30.07,North,360,9.2,9.2,83,0.00,CLR,,0.00,0.0,WeatherDisplay:10.37,2014-03-01 08:28:00,
2014-03-01 02:32:00,29.3,24.8,30.08,NNE,12,8.1,8.1,83,0.00,CLR,,0.00,0.0,WeatherDisplay:10.37,2014-03-01 08:32:00,
2014-03-01 02:33:00,29.3,24.8,30.08,NNW,338,10.0,10.0,83,0.00,CLR,,0.00,0.0,WeatherDisplay:10.37,2014-03-01 08:33:00,
2014-03-01 02:34:00,29.2,24.7,30.08,NNW,346,11.5,11.5,83,0.00,CLR,,0.00,0.0,WeatherDisplay:10.37,2014-03-01 08:34:00,
2014-03-01 02:37:00,29.2,25.0,30.08,NNE,15,10.4,10.4,84,0.00,CLR,,0.00,0.0,WeatherDisplay:10.37,2014-03-01 08:37:00,
2014-03-01 02:38:00,29.1,24.9,30.08,North,355,10.4,10.4,84,0.00,CLR,,0.00,0.0,WeatherDisplay:10.37,2014-03-01 08:38:00,
2014-03-01 02:39:00,29.1,24.9,30.09,North,360,8.1,8.1,84,0.00,CLR,,0.00,0.0,WeatherDisplay:10.37,2014-03-01 08:39:00,
2014-03-01 02:42:00,29.1,24.9,30.09,NW,321,9.2,9.2,84,0.00,CLR,,0.00,0.0,WeatherDisplay:10.37,2014-03-01 08:42:00,
2014-03-01 02:43:00,29.1,24.9,30.09,NNW,344,6.0,6.0,84,0.00,CLR,,0.00,0.0,WeatherDisplay:10.37,2014-03-01 08:43:00,
2014-03-01 02:44:00,29.1,24.9,30.09,NNW,343,3.5,3.5,84,0.00,CLR,,0.00,0.0,WeatherDisplay:10.37,2014-03-01 08:44:00,
2014-03-01 02:45:00,29.1,24.9,30.10,North,355,9.2,9.2,84,0.00,CLR,,0.00,0.0,WeatherDisplay:10.37,2014-03-01 08:45:00,
2014-03-01 02:47:00,29.0,24.8,30.10,NNE,15,8.1,8.1,84,0.00,CLR,,0.00,0.0,WeatherDisplay:10.37,2014-03-01 08:47:00,
2014-03-01 02:48:00,29.0,24.8,30.10,NNE,28,11.5,11.5,84,0.00,CLR,,0.00,0.0,WeatherDisplay:10.37,2014-03-01 08:48:00,
2014-03-01 02:49:00,28.9,24.7,30.10,NNW,346,11.5,11.5,84,0.00,CLR,,0.00,0.0,WeatherDisplay:10.37,2014-03-01 08:49:00,
2014-03-01 02:50:00,28.9,24.7,30.10,North,350,11.5,11.5,84,0.00,CLR,,0.00,0.0,WeatherDisplay:10.37,2014-03-01 08:50:00,
2014-03-01 02:52:00,28.8,24.6,30.10,NW,326,11.5,11.5,84,0.00,CLR,,0.00,0.0,WeatherDisplay:10.37,2014-03-01 08:52:00,
2014-03-01 02:54:00,28.8,24.6,30.10,NNW,340,9.2,9.2,84,0.00,CLR,,0.00,0.0,WeatherDisplay:10.37,2014-03-01 08:54:00,
2014-03-01 02:55:00,28.7,24.2,30.10,North,360,6.9,6.9,83,0.00,CLR,,0.00,0.0,WeatherDisplay:10.37,2014-03-01 08:55:00,
2014-03-01 02:57:00,28.6,24.1,30.10,NNE,17,5.8,5.8,83,0.00,CLR,,0.00,0.0,WeatherDisplay:10.37,2014-03-01 08:57:00,
2014-03-01 02:59:00,28.5,24.0,30.10,NNW,341,6.9,6.9,83,0.00,CLR,,0.00,0.0,WeatherDisplay:10.37,2014-03-01 08:59:00,
2014-03-01 03:00:00,28.5,24.0,30.10,NW,323,6.9,6.9,83,0.00,CLR,,0.00,0.0,WeatherDisplay:10.37,2014-03-01 09:00:00,
2014-03-01 03:01:00,28.4,24.2,30.10,NW,309,10.4,10.4,84,0.00,CLR,,0.00,0.0,WeatherDisplay:10.37,2014-03-01 09:01:00,
2014-03-01 03:02:00,28.4,24.2,30.10,NNW,327,10.4,10.4,84,0.00,CLR,,0.00,0.0,WeatherDisplay:10.37,2014-03-01 09:02:00,
2014-03-01 03:04:00,28.3,24.1,30.11,North,360,6.0,6.0,84,0.00,CLR,,0.00,0.0,WeatherDisplay:10.37,2014-03-01 09:04:00,
2014-03-01 03:05:00,28.3,24.0,30.11,North,355,3.0,12.0,84,0.00,,,0.00,0,weatherlink.com 1.10,2014-03-01 09:05:00,
2014-03-01 03:06:00,28.3,24.1,30.10,NW,322,10.4,10.4,84,0.00,CLR,,0.00,0.0,WeatherDisplay:10.37,2014-03-01 09:06:00,
2014-03-01 03:07:00,28.3,24.1,30.10,NW,323,5.8,5.8,84,0.00,CLR,,0.00,0.0,WeatherDisplay:10.37,2014-03-01 09:07:00,
2014-03-01 03:10:00,28.1,23.9,30.10,NNE,16,8.1,8.1,84,0.00,CLR,,0.00,0.0,WeatherDisplay:10.37,2014-03-01 09:10:00,
2014-03-01 03:11:00,28.1,23.9,30.10,NNE,22,4.6,5.0,84,0.00,CLR,,0.00,0.0,WeatherDisplay:10.37,2014-03-01 09:11:00,
2014-03-01 03:12:00,28.1,23.9,30.10,NNW,327,3.5,3.5,84,0.00,CLR,,0.00,0.0,WeatherDisplay:10.37,2014-03-01 09:12:00,
2014-03-01 03:13:00,28.1,23.9,30.10,NNW,340,5.8,5.8,84,0.00,CLR,,0.00,0.0,WeatherDisplay:10.37,2014-03-01 09:13:00,
2014-03-01 03:15:00,28.1,23.9,30.11,NNW,341,5.8,5.8,84,0.00,CLR,,0.00,0.0,WeatherDisplay:10.37,2014-03-01 09:15:00,
2014-03-01 03:16:00,28.0,23.8,30.11,WNW,302,8.1,8.1,84,0.00,CLR,,0.00,0.0,WeatherDisplay:10.37,2014-03-01 09:16:00,
2014-03-01 03:17:00,28.0,23.8,30.11,NNW,348,9.2,9.2,84,0.00,CLR,,0.00,0.0,WeatherDisplay:10.37,2014-03-01 09:17:00,
2014-03-01 03:18:00,27.9,23.7,30.11,NNW,330,3.5,3.5,84,0.00,CLR,,0.00,0.0,WeatherDisplay:10.37,2014-03-01 09:18:00,
2014-03-01 03:20:00,27.9,23.7,30.11,NNW,335,4.6,4.6,84,0.00,CLR,,0.00,0.0,WeatherDisplay:10.37,2014-03-01 09:20:00,
2014-03-01 03:21:00,27.9,23.7,30.12,NNW,331,9.2,9.2,84,0.00,CLR,,0.00,0.0,WeatherDisplay:10.37,2014-03-01 09:21:00,
2014-03-01 03:22:00,27.9,23.7,30.12,NNE,28,4.6,4.6,84,0.00,CLR,,0.00,0.0,WeatherDisplay:10.37,2014-03-01 09:22:00,
2014-03-01 03:23:00,27.8,23.6,30.12,NNE,22,6.0,6.0,84,0.00,CLR,,0.00,0.0,WeatherDisplay:10.37,2014-03-01 09:23:00,
2014-03-01 03:25:00,27.8,23.9,30.12,North,351,9.2,9.2,85,0.00,CLR,,0.00,0.0,WeatherDisplay:10.37,2014-03-01 09:25:00,
2014-03-01 03:26:00,27.8,23.9,30.12,North,5,5.8,5.8,85,0.00,CLR,,0.00,0.0,WeatherDisplay:10.37,2014-03-01 09:26:00,
2014-03-01 03:27:00,27.7,23.8,30.12,NW,319,5.0,5.0,85,0.00,CLR,,0.00,0.0,WeatherDisplay:10.37,2014-03-01 09:27:00,
2014-03-01 03:28:00,27.7,23.8,30.12,NNW,327,5.8,5.8,85,0.00,CLR,,0.00,0.0,WeatherDisplay:10.37,2014-03-01 09:28:00,
2014-03-01 03:29:00,27.7,23.8,30.12,NW,305,5.8,5.8,85,0.00,CLR,,0.00,0.0,WeatherDisplay:10.37,2014-03-01 09:29:00,
2014-03-01 03:30:00,27.7,23.8,30.12,NE,38,9.2,9.2,85,0.00,CLR,,0.00,0.0,WeatherDisplay:10.37,2014-03-01 09:30:00,
2014-03-01 03:32:00,27.6,23.7,30.12,NNE,32,8.0,8.0,85,0.00,CLR,,0.00,0.0,WeatherDisplay:10.37,2014-03-01 09:32:00,
2014-03-01 03:33:00,27.6,23.7,30.12,NW,317,8.1,8.1,85,0.00,CLR,,0.00,0.0,WeatherDisplay:10.37,2014-03-01 09:33:00,
2014-03-01 03:34:00,27.6,23.7,30.11,NNW,331,8.1,8.1,85,0.00,CLR,,0.00,0.0,WeatherDisplay:10.37,2014-03-01 09:34:00,
2014-03-01 03:35:00,27.6,23.7,30.12,NNW,332,6.9,6.9,85,0.00,CLR,,0.00,0.0,WeatherDisplay:10.37,2014-03-01 09:35:00,
2014-03-01 03:37:00,27.5,23.9,30.12,North,355,9.2,9.2,86,0.00,CLR,,0.00,0.0,WeatherDisplay:10.37,2014-03-01 09:37:00,
2014-03-01 03:38:00,27.5,23.9,30.12,North,5,9.2,9.2,86,0.00,CLR,,0.00,0.0,WeatherDisplay:10.37,2014-03-01 09:38:00,
2014-03-01 03:39:00,27.5,23.9,30.12,NNW,344,5.0,5.0,86,0.00,CLR,,0.00,0.0,WeatherDisplay:10.37,2014-03-01 09:39:00,
2014-03-01 03:40:00,27.4,23.8,30.12,NNW,329,8.1,8.1,86,0.00,CLR,,0.00,0.0,WeatherDisplay:10.37,2014-03-01 09:40:00,
2014-03-01 03:42:00,27.3,23.7,30.12,North,360,10.4,10.4,86,0.00,CLR,,0.00,0.0,WeatherDisplay:10.37,2014-03-01 09:42:00,
2014-03-01 03:43:00,27.3,23.7,30.12,NNW,345,8.1,8.1,86,0.00,CLR,,0.00,0.0,WeatherDisplay:10.37,2014-03-01 09:43:00,
2014-03-01 03:44:00,27.2,23.6,30.12,NW,323,8.1,8.1,86,0.00,CLR,,0.00,0.0,WeatherDisplay:10.37,2014-03-01 09:44:00,
2014-03-01 03:45:00,27.2,23.6,30.12,NW,313,5.0,5.0,86,0.00,CLR,,0.00,0.0,WeatherDisplay:10.37,2014-03-01 09:45:00,
2014-03-01 03:46:00,27.2,23.6,30.12,NE,34,8.1,8.1,86,0.00,CLR,,0.00,0.0,WeatherDisplay:10.37,2014-03-01 09:46:00,
2014-03-01 03:47:00,27.1,23.5,30.12,North,360,5.8,5.8,86,0.00,CLR,,0.00,0.0,WeatherDisplay:10.37,2014-03-01 09:47:00,
2014-03-01 03:48:00,27.1,23.5,30.12,NNW,340,4.6,4.6,86,0.00,CLR,,0.00,0.0,WeatherDisplay:10.37,2014-03-01 09:48:00,
2014-03-01 03:49:00,27.0,23.6,30.11,NW,309,7.0,7.0,87,0.00,CLR,,0.00,0.0,WeatherDisplay:10.37,2014-03-01 09:49:00,
2014-03-01 03:50:00,27.0,23.6,30.11,NNW,327,8.1,8.1,87,0.00,CLR,,0.00,0.0,WeatherDisplay:10.37,2014-03-01 09:50:00,
2014-03-01 03:51:00,27.0,23.6,30.11,NNE,13,8.1,8.1,87,0.00,CLR,,0.00,0.0,WeatherDisplay:10.37,2014-03-01 09:51:00,
2014-03-01 03:52:00,27.0,23.6,30.12,NNW,342,10.4,10.4,87,0.00,CLR,,0.00,0.0,WeatherDisplay:10.37,2014-03-01 09:52:00,
2014-03-01 03:53:00,27.0,23.6,30.12,North,360,3.5,3.5,87,0.00,CLR,,0.00,0.0,WeatherDisplay:10.37,2014-03-01 09:53:00,
2014-03-01 03:54:00,26.9,23.5,30.11,North,355,8.1,8.1,87,0.00,CLR,,0.00,0.0,WeatherDisplay:10.37,2014-03-01 09:54:00,
2014-03-01 03:56:00,26.9,23.8,30.11,NNE,13,10.4,10.4,88,0.00,CLR,,0.00,0.0,WeatherDisplay:10.37,2014-03-01 09:56:00,
2014-03-01 03:57:00,26.9,23.8,30.11,NNE,12,10.4,10.4,88,0.00,CLR,,0.00,0.0,WeatherDisplay:10.37,2014-03-01 09:57:00,
2014-03-01 03:58:00,26.9,23.8,30.11,NW,318,5.8,5.8,88,0.00,CLR,,0.00,0.0,WeatherDisplay:10.37,2014-03-01 09:58:00,
2014-03-01 03:59:00,26.9,23.8,30.12,North,360,13.0,13.0,88,0.00,CLR,,0.00,0.0,WeatherDisplay:10.37,2014-03-01 09:59:00,
2014-03-01 04:01:00,26.8,23.7,30.12,NNW,347,6.0,6.0,88,0.00,CLR,,0.00,0.0,WeatherDisplay:10.37,2014-03-01 10:01:00,
2014-03-01 04:02:00,26.7,23.6,30.12,NW,322,11.5,11.5,88,0.00,CLR,,0.00,0.0,WeatherDisplay:10.37,2014-03-01 10:02:00,
2014-03-01 04:03:00,26.7,23.9,30.12,North,360,11.5,11.5,89,0.00,CLR,,0.00,0.0,WeatherDisplay:10.37,2014-03-01 10:03:00,
2014-03-01 04:04:00,26.7,23.6,30.12,North,360,5.8,5.8,88,0.00,CLR,,0.00,0.0,WeatherDisplay:10.37,2014-03-01 10:04:00,
2014-03-01 04:06:00,26.7,23.9,30.12,North,5,10.4,10.4,89,0.00,CLR,,0.00,0.0,WeatherDisplay:10.37,2014-03-01 10:06:00,
2014-03-01 04:07:00,26.7,23.9,30.11,NW,315,10.4,10.4,89,0.00,CLR,,0.00,0.0,WeatherDisplay:10.37,2014-03-01 10:07:00,
2014-03-01 04:08:00,26.7,23.9,30.11,NNW,345,11.5,11.5,89,0.00,CLR,,0.00,0.0,WeatherDisplay:10.37,2014-03-01 10:08:00,
2014-03-01 04:09:00,26.6,23.8,30.11,NNW,338,9.2,9.2,89,0.00,CLR,,0.00,0.0,WeatherDisplay:10.37,2014-03-01 10:09:00,
2014-03-01 04:10:00,26.6,23.8,30.11,NNW,344,6.9,6.9,89,0.00,CLR,,0.00,0.0,WeatherDisplay:10.37,2014-03-01 10:10:00,
2014-03-01 04:11:00,26.6,23.8,30.11,North,5,9.2,9.2,89,0.00,CLR,,0.00,0.0,WeatherDisplay:10.37,2014-03-01 10:11:00,
2014-03-01 04:12:00,26.6,23.8,30.11,NNW,344,9.2,9.2,89,0.00,CLR,,0.00,0.0,WeatherDisplay:10.37,2014-03-01 10:12:00,
2014-03-01 04:14:00,26.5,23.7,30.12,North,5,11.5,11.5,89,0.00,CLR,,0.00,0.0,WeatherDisplay:10.37,2014-03-01 10:14:00,
2014-03-01 04:16:00,26.4,23.6,30.12,NNE,14,7.0,7.0,89,0.00,CLR,,0.00,0.0,WeatherDisplay:10.37,2014-03-01 10:16:00,
2014-03-01 04:17:00,26.4,23.6,30.11,NNW,327,6.9,6.9,89,0.00,CLR,,0.00,0.0,WeatherDisplay:10.37,2014-03-01 10:17:00,
2014-03-01 04:18:00,26.3,23.5,30.11,NW,316,8.1,8.1,89,0.00,CLR,,0.00,0.0,WeatherDisplay:10.37,2014-03-01 10:18:00,
2014-03-01 04:19:00,26.3,23.5,30.11,North,351,8.1,8.1,89,0.00,CLR,,0.00,0.0,WeatherDisplay:10.37,2014-03-01 10:19:00,
2014-03-01 04:21:00,26.3,23.5,30.11,North,5,9.0,9.0,89,0.00,CLR,,0.00,0.0,WeatherDisplay:10.37,2014-03-01 10:21:00,
2014-03-01 04:22:00,26.3,23.5,30.11,NW,321,8.0,8.0,89,0.00,CLR,,0.00,0.0,WeatherDisplay:10.37,2014-03-01 10:22:00,
2014-03-01 04:23:00,26.2,23.4,30.11,NNW,336,11.5,11.5,89,0.00,CLR,,0.00,0.0,WeatherDisplay:10.37,2014-03-01 10:23:00,
2014-03-01 04:24:00,26.2,23.4,30.11,NNE,27,6.9,6.9,89,0.00,CLR,,0.00,0.0,WeatherDisplay:10.37,2014-03-01 10:24:00,
2014-03-01 04:27:00,26.1,23.3,30.11,North,5,9.0,9.0,89,0.00,CLR,,0.00,0.0,WeatherDisplay:10.37,2014-03-01 10:27:00,
2014-03-01 04:28:00,26.1,23.3,30.10,NNW,345,15.0,15.0,89,0.00,CLR,,0.00,0.0,WeatherDisplay:10.37,2014-03-01 10:28:00,
2014-03-01 04:29:00,26.1,23.6,30.10,NNE,16,9.2,9.2,90,0.00,CLR,,0.00,0.0,WeatherDisplay:10.37,2014-03-01 10:29:00,
2014-03-01 04:32:00,26.1,23.6,30.10,NNE,13,13.8,13.8,90,0.00,CLR,,0.00,0.0,WeatherDisplay:10.37,2014-03-01 10:32:00,
2014-03-01 04:33:00,26.0,23.5,30.10,NNE,17,13.8,13.8,90,0.00,CLR,,0.00,0.0,WeatherDisplay:10.37,2014-03-01 10:33:00,
2014-03-01 04:34:00,26.0,23.5,30.11,NNE,30,6.9,6.9,90,0.00,CLR,,0.00,0.0,WeatherDisplay:10.37,2014-03-01 10:34:00,
2014-03-01 04:35:00,26.0,23.5,30.11,NW,321,8.0,8.0,90,0.00,CLR,,0.00,0.0,WeatherDisplay:10.37,2014-03-01 10:35:00,
2014-03-01 04:37:00,25.9,23.4,30.11,North,351,10.4,10.4,90,0.00,CLR,,0.00,0.0,WeatherDisplay:10.37,2014-03-01 10:37:00,
2014-03-01 04:38:00,25.9,23.4,30.11,NNW,344,3.5,3.5,90,0.00,CLR,,0.00,0.0,WeatherDisplay:10.37,2014-03-01 10:38:00,
2014-03-01 04:39:00,25.9,23.4,30.11,North,355,4.0,4.0,90,0.00,CLR,,0.00,0.0,WeatherDisplay:10.37,2014-03-01 10:39:00,
2014-03-01 04:40:00,25.9,23.4,30.11,NNE,22,8.0,8.0,90,0.00,CLR,,0.00,0.0,WeatherDisplay:10.37,2014-03-01 10:40:00,
2014-03-01 04:42:00,25.9,23.4,30.11,NNW,345,6.9,6.9,90,0.00,CLR,,0.00,0.0,WeatherDisplay:10.37,2014-03-01 10:42:00,
2014-03-01 04:43:00,25.8,23.3,30.11,North,350,4.6,4.6,90,0.00,CLR,,0.00,0.0,WeatherDisplay:10.37,2014-03-01 10:43:00,
2014-03-01 04:44:00,25.9,23.4,30.11,North,355,8.1,8.1,90,0.00,CLR,,0.00,0.0,WeatherDisplay:10.37,2014-03-01 10:44:00,
2014-03-01 04:45:00,25.9,23.4,30.11,North,5,9.2,9.2,90,0.00,CLR,,0.00,0.0,WeatherDisplay:10.37,2014-03-01 10:45:00,
2014-03-01 04:47:00,25.8,23.3,30.11,NW,321,6.9,6.9,90,0.00,CLR,,0.00,0.0,WeatherDisplay:10.37,2014-03-01 10:47:00,
2014-03-01 04:48:00,25.8,23.3,30.11,NNW,332,3.5,3.5,90,0.00,CLR,,0.00,0.0,WeatherDisplay:10.37,2014-03-01 10:48:00,
2014-03-01 04:49:00,25.8,23.3,30.11,North,355,3.5,3.5,90,0.00,CLR,,0.00,0.0,WeatherDisplay:10.37,2014-03-01 10:49:00,
2014-03-01 04:50:00,25.8,23.5,30.12,NNW,339,4.6,4.6,91,0.00,CLR,,0.00,0.0,WeatherDisplay:10.37,2014-03-01 10:50:00,
2014-03-01 04:53:00,25.8,23.5,30.12,NW,319,9.2,9.2,91,0.00,CLR,,0.00,0.0,WeatherDisplay:10.37,2014-03-01 10:53:00,
2014-03-01 04:54:00,25.8,23.5,30.12,NE,35,10.4,10.4,91,0.00,CLR,,0.00,0.0,WeatherDisplay:10.37,2014-03-01 10:54:00,
2014-03-01 04:55:00,25.8,23.5,30.12,NW,318,10.4,10.4,91,0.00,CLR,,0.00,0.0,WeatherDisplay:10.37,2014-03-01 10:55:00,
2014-03-01 04:58:00,25.8,23.3,30.12,NE,36,8.1,8.1,90,0.00,CLR,,0.00,0.0,WeatherDisplay:10.37,2014-03-01 10:58:00,
2014-03-01 04:59:00,25.7,23.2,30.13,North,360,8.1,8.1,90,0.00,CLR,,0.00,0.0,WeatherDisplay:10.37,2014-03-01 10:59:00,
2014-03-01 05:00:00,25.7,23.2,30.13,NNE,22,5.8,5.8,90,0.00,CLR,,0.00,0.0,WeatherDisplay:10.37,2014-03-01 11:00:00,
2014-03-01 05:03:00,25.6,23.1,30.13,North,5,8.1,8.1,90,0.00,CLR,,0.00,0.0,WeatherDisplay:10.37,2014-03-01 11:03:00,
2014-03-01 05:04:00,25.6,23.1,30.13,NE,43,8.1,8.1,90,0.00,CLR,,0.00,0.0,WeatherDisplay:10.37,2014-03-01 11:04:00,
2014-03-01 05:05:00,25.6,23.1,30.14,NNE,30,4.6,4.6,90,0.00,CLR,,0.00,0.0,WeatherDisplay:10.37,2014-03-01 11:05:00,
2014-03-01 05:08:00,25.6,23.1,30.14,North,360,4.6,4.6,90,0.00,CLR,,0.00,0.0,WeatherDisplay:10.37,2014-03-01 11:08:00,
2014-03-01 05:09:00,25.6,23.1,30.14,WNW,291,8.0,8.0,90,0.00,CLR,,0.00,0.0,WeatherDisplay:10.37,2014-03-01 11:09:00,
2014-03-01 05:10:00,25.6,23.1,30.14,NNW,339,8.1,8.1,90,0.00,CLR,,0.00,0.0,WeatherDisplay:10.37,2014-03-01 11:10:00,
2014-03-01 05:13:00,25.6,23.1,30.15,NNW,332,8.1,8.1,90,0.00,CLR,,0.00,0.0,WeatherDisplay:10.37,2014-03-01 11:13:00,
2014-03-01 05:14:00,25.6,23.1,30.15,North,9,3.5,3.5,90,0.00,CLR,,0.00,0.0,WeatherDisplay:10.37,2014-03-01 11:14:00,
2014-03-01 05:15:00,25.6,22.8,30.15,NNW,343,4.0,4.0,89,0.00,CLR,,0.00,0.0,WeatherDisplay:10.37,2014-03-01 11:15:00,
2014-03-01 05:16:00,25.6,23.1,30.15,NNW,348,8.1,8.1,90,0.00,CLR,,0.00,0.0,WeatherDisplay:10.37,2014-03-01 11:16:00,
2014-03-01 05:17:00,25.6,22.8,30.15,NNW,327,13.8,13.8,89,0.00,CLR,,0.00,0.0,WeatherDisplay:10.37,2014-03-01 11:17:00,
2014-03-01 05:18:00,25.6,22.8,30.15,NE,49,10.4,10.4,89,0.00,CLR,,0.00,0.0,WeatherDisplay:10.37,2014-03-01 11:18:00,
2014-03-01 05:19:00,25.6,22.8,30.15,NW,317,10.4,10.4,89,0.00,CLR,,0.00,0.0,WeatherDisplay:10.37,2014-03-01 11:19:00,
2014-03-01 05:20:00,25.6,22.8,30.16,North,11,12.7,12.7,89,0.00,CLR,,0.00,0.0,WeatherDisplay:10.37,2014-03-01 11:20:00,
2014-03-01 05:21:00,25.6,22.8,30.16,NNE,17,12.7,12.7,89,0.00,CLR,,0.00,0.0,WeatherDisplay:10.37,2014-03-01 11:21:00,
2014-03-01 05:22:00,25.6,22.8,30.16,NNW,344,9.2,9.2,89,0.00,CLR,,0.00,0.0,WeatherDisplay:10.37,2014-03-01 11:22:00,
2014-03-01 05:24:00,25.6,22.5,30.16,NNE,25,9.2,9.2,88,0.00,CLR,,0.00,0.0,WeatherDisplay:10.37,2014-03-01 11:24:00,
2014-03-01 05:25:00,25.6,22.5,30.17,North,355,10.4,10.4,88,0.00,CLR,,0.00,0.0,WeatherDisplay:10.37,2014-03-01 11:25:00,
2014-03-01 05:26:00,25.6,22.5,30.17,NNE,15,8.1,8.1,88,0.00,CLR,,0.00,0.0,WeatherDisplay:10.37,2014-03-01 11:26:00,
2014-03-01 05:27:00,25.6,22.5,30.17,NNW,344,6.9,6.9,88,0.00,CLR,,0.00,0.0,WeatherDisplay:10.37,2014-03-01 11:27:00,
2014-03-01 05:29:00,25.6,22.5,30.17,NNW,336,4.6,4.6,88,0.00,CLR,,0.00,0.0,WeatherDisplay:10.37,2014-03-01 11:29:00,
2014-03-01 05:30:00,25.7,22.6,30.17,NNE,24,6.9,6.9,88,0.00,CLR,,0.00,0.0,WeatherDisplay:10.37,2014-03-01 11:30:00,
2014-03-01 05:31:00,25.7,22.6,30.17,North,11,8.1,8.1,88,0.00,CLR,,0.00,0.0,WeatherDisplay:10.37,2014-03-01 11:31:00,
2014-03-01 05:32:00,25.7,22.6,30.17,NW,317,5.0,5.0,88,0.00,CLR,,0.00,0.0,WeatherDisplay:10.37,2014-03-01 11:32:00,
2014-03-01 05:34:00,25.7,22.6,30.18,North,5,5.8,5.8,88,0.00,CLR,,0.00,0.0,WeatherDisplay:10.37,2014-03-01 11:34:00,
2014-03-01 05:35:00,25.8,22.5,30.17,North,5,10.4,10.4,87,0.00,CLR,,0.00,0.0,WeatherDisplay:10.37,2014-03-01 11:35:00,
2014-03-01 05:36:00,25.7,22.4,30.18,North,355,5.8,5.8,87,0.00,CLR,,0.00,0.0,WeatherDisplay:10.37,2014-03-01 11:36:00,
2014-03-01 05:37:00,25.7,22.4,30.18,NE,49,11.5,11.5,87,0.00,CLR,,0.00,0.0,WeatherDisplay:10.37,2014-03-01 11:37:00,
2014-03-01 05:39:00,25.7,22.4,30.18,NW,313,10.4,10.4,87,0.00,CLR,,0.00,0.0,WeatherDisplay:10.37,2014-03-01 11:39:00,
2014-03-01 05:40:00,25.6,22.0,30.18,NNW,342,10.4,10.4,86,0.00,CLR,,0.00,0.0,WeatherDisplay:10.37,2014-03-01 11:40:00,
2014-03-01 05:41:00,25.7,22.1,30.18,NNW,343,10.4,10.4,86,0.00,CLR,,0.00,0.0,WeatherDisplay:10.37,2014-03-01 11:41:00,
2014-03-01 05:42:00,25.6,22.0,30.18,North,355,3.5,3.5,86,0.00,CLR,,0.00,0.0,WeatherDisplay:10.37,2014-03-01 11:42:00,
2014-03-01 05:43:00,25.6,22.0,30.18,NNW,344,4.6,4.6,86,0.00,CLR,,0.00,0.0,WeatherDisplay:10.37,2014-03-01 11:43:00,
2014-03-01 05:44:00,25.6,22.0,30.18,North,349,6.9,6.9,86,0.00,CLR,,0.00,0.0,WeatherDisplay:10.37,2014-03-01 11:44:00,
2014-03-01 05:45:00,25.6,22.0,30.18,North,351,11.5,11.5,86,0.00,CLR,,0.00,0.0,WeatherDisplay:10.37,2014-03-01 11:45:00,
2014-03-01 05:46:00,25.6,22.0,30.18,North,355,11.5,11.5,86,0.00,CLR,,0.00,0.0,WeatherDisplay:10.37,2014-03-01 11:46:00,
2014-03-01 05:47:00,25.6,22.0,30.18,NNW,329,8.1,8.1,86,0.00,CLR,,0.00,0.0,WeatherDisplay:10.37,2014-03-01 11:47:00,
2014-03-01 05:49:00,25.6,22.0,30.18,NNW,342,4.6,4.6,86,0.00,CLR,,0.00,0.0,WeatherDisplay:10.37,2014-03-01 11:49:00,
2014-03-01 05:51:00,25.7,22.1,30.18,NNW,348,4.6,4.6,86,0.00,CLR,,0.00,0.0,WeatherDisplay:10.37,2014-03-01 11:51:00,
2014-03-01 05:53:00,25.7,22.1,30.18,North,355,10.4,10.4,86,0.00,CLR,,0.00,0.0,WeatherDisplay:10.37,2014-03-01 11:53:00,
2014-03-01 05:54:00,25.6,22.0,30.19,NW,313,8.1,8.1,86,0.00,CLR,,0.00,0.0,WeatherDisplay:10.37,2014-03-01 11:54:00,
2014-03-01 05:56:00,25.6,21.7,30.18,NNW,345,10.4,10.4,85,0.00,CLR,,0.00,0.0,WeatherDisplay:10.37,2014-03-01 11:56:00,
2014-03-01 05:58:00,25.5,21.6,30.18,NNW,342,9.2,9.2,85,0.00,CLR,,0.00,0.0,WeatherDisplay:10.37,2014-03-01 11:58:00,
2014-03-01 06:00:00,25.4,21.5,30.19,NNE,15,11.5,11.5,85,0.00,CLR,,0.00,0.0,WeatherDisplay:10.37,2014-03-01 12:00:00,
2014-03-01 06:01:00,25.4,21.5,30.19,NNW,338,10.4,10.4,85,0.00,CLR,,0.00,0.0,WeatherDisplay:10.37,2014-03-01 12:01:00,
2014-03-01 06:03:00,25.3,21.4,30.19,NNE,14,5.0,5.0,85,0.00,CLR,,0.00,0.0,WeatherDisplay:10.37,2014-03-01 12:03:00,
2014-03-01 06:05:00,25.2,21.0,30.19,NW,323,11.5,11.5,84,0.00,CLR,,0.00,0.0,WeatherDisplay:10.37,2014-03-01 12:05:00,
2014-03-01 06:06:00,25.2,21.0,30.19,NW,319,11.5,11.5,84,0.00,CLR,,0.00,0.0,WeatherDisplay:10.37,2014-03-01 12:06:00,
2014-03-01 06:07:00,25.2,21.0,30.19,North,9,8.1,8.1,84,0.00,CLR,,0.00,0.0,WeatherDisplay:10.37,2014-03-01 12:07:00,
2014-03-01 06:08:00,25.1,20.9,30.19,NNW,348,8.1,8.1,84,0.00,CLR,,0.00,0.0,WeatherDisplay:10.37,2014-03-01 12:08:00,
2014-03-01 06:10:00,25.1,20.9,30.19,NW,320,8.1,8.1,84,0.00,CLR,,0.00,0.0,WeatherDisplay:10.37,2014-03-01 12:10:00,
2014-03-01 06:11:00,25.1,20.9,30.19,NNW,336,8.1,8.1,84,0.00,CLR,,0.00,0.0,WeatherDisplay:10.37,2014-03-01 12:11:00,
2014-03-01 06:12:00,25.1,20.9,30.19,NNW,339,9.2,9.2,84,0.00,CLR,,0.00,0.0,WeatherDisplay:10.37,2014-03-01 12:12:00,
2014-03-01 06:13:00,25.1,20.9,30.19,North,5,8.1,8.1,84,0.00,CLR,,0.00,0.0,WeatherDisplay:10.37,2014-03-01 12:13:00,
2014-03-01 06:16:00,24.9,20.8,30.18,North,355,8.1,8.1,84,0.00,CLR,,0.00,0.0,WeatherDisplay:10.37,2014-03-01 12:16:00,
2014-03-01 06:17:00,24.9,20.8,30.18,NNE,17,8.1,8.1,84,0.00,CLR,,0.00,0.0,WeatherDisplay:10.37,2014-03-01 12:17:00,
2014-03-01 06:18:00,24.9,20.8,30.19,North,355,10.4,10.4,84,0.00,CLR,,0.00,0.0,WeatherDisplay:10.37,2014-03-01 12:18:00,
2014-03-01 06:19:00,24.9,20.8,30.19,North,355,10.4,10.4,84,0.00,CLR,,0.00,0.0,WeatherDisplay:10.37,2014-03-01 12:19:00,
2014-03-01 06:21:00,24.9,20.8,30.19,NNW,345,11.0,11.0,84,0.00,CLR,,0.00,0.0,WeatherDisplay:10.37,2014-03-01 12:21:00,
2014-03-01 06:22:00,24.9,20.8,30.19,North,355,8.0,8.0,84,0.00,CLR,,0.00,0.0,WeatherDisplay:10.37,2014-03-01 12:22:00,
2014-03-01 06:23:00,24.8,20.7,30.19,NE,52,11.5,11.5,84,0.00,CLR,,0.00,0.0,WeatherDisplay:10.37,2014-03-01 12:23:00,
2014-03-01 06:24:00,24.8,20.7,30.19,NE,37,10.4,10.4,84,0.00,CLR,,0.00,0.0,WeatherDisplay:10.37,2014-03-01 12:24:00,
2014-03-01 06:26:00,24.8,20.7,30.19,NNW,345,2.3,2.3,84,0.00,CLR,,0.00,0.0,WeatherDisplay:10.37,2014-03-01 12:26:00,
2014-03-01 06:27:00,24.8,20.7,30.19,NNW,348,2.3,2.3,84,0.00,CLR,,0.00,0.0,WeatherDisplay:10.37,2014-03-01 12:27:00,
2014-03-01 06:28:00,24.7,20.6,30.19,North,5,4.6,4.6,84,0.00,CLR,,0.00,0.0,WeatherDisplay:10.37,2014-03-01 12:28:00,
2014-03-01 06:29:00,24.7,20.6,30.19,North,355,4.6,4.6,84,0.00,CLR,,0.00,0.0,WeatherDisplay:10.37,2014-03-01 12:29:00,
2014-03-01 06:32:00,24.6,20.5,30.19,North,5,6.9,6.9,84,0.00,CLR,,0.00,0.0,WeatherDisplay:10.37,2014-03-01 12:32:00,
2014-03-01 06:33:00,24.5,20.4,30.19,NW,310,9.2,9.2,84,0.00,CLR,,0.00,0.0,WeatherDisplay:10.37,2014-03-01 12:33:00,
2014-03-01 06:34:00,24.4,20.3,30.20,NNE,32,5.8,5.8,84,0.00,CLR,,0.00,0.0,WeatherDisplay:10.37,2014-03-01 12:34:00,
2014-03-01 06:37:00,24.3,20.2,30.20,NNW,331,9.2,9.2,84,0.00,CLR,,0.00,0.0,WeatherDisplay:10.37,2014-03-01 12:37:00,
2014-03-01 06:38:00,24.3,20.2,30.20,NNE,19,9.2,9.2,84,0.00,CLR,,0.00,0.0,WeatherDisplay:10.37,2014-03-01 12:38:00,
2014-03-01 06:39:00,24.3,20.2,30.20,North,5,10.4,10.4,84,0.00,CLR,,0.00,0.0,WeatherDisplay:10.37,2014-03-01 12:39:00,
2014-03-01 06:42:00,24.2,20.1,30.20,North,360,6.9,6.9,84,0.00,CLR,,0.00,0.0,WeatherDisplay:10.37,2014-03-01 12:42:00,
2014-03-01 06:43:00,24.2,20.1,30.19,NNE,31,11.5,11.5,84,0.00,CLR,,0.00,0.0,WeatherDisplay:10.37,2014-03-01 12:43:00,
2014-03-01 06:44:00,24.1,20.0,30.19,NNW,333,11.5,11.5,84,0.00,CLR,,0.00,0.0,WeatherDisplay:10.37,2014-03-01 12:44:00,
2014-03-01 06:47:00,24.0,19.9,30.19,North,9,10.4,10.4,84,0.00,CLR,,0.00,0.0,WeatherDisplay:10.37,2014-03-01 12:47:00,
2014-03-01 06:48:00,24.0,19.9,30.19,NW,317,8.1,8.1,84,0.00,CLR,,0.00,0.0,WeatherDisplay:10.37,2014-03-01 12:48:00,
2014-03-01 06:49:00,24.0,19.9,30.19,NNE,15,10.4,10.4,84,0.00,CLR,,0.00,0.0,WeatherDisplay:10.37,2014-03-01 12:49:00,
2014-03-01 06:51:00,23.9,20.0,30.19,North,5,4.0,12.0,84,0.00,,,0.00,0,weatherlink.com 1.10,2014-03-01 12:51:00,
2014-03-01 06:52:00,23.9,19.8,30.19,North,350,5.8,5.8,84,0.00,CLR,,0.00,0.0,WeatherDisplay:10.37,2014-03-01 12:52:00,
2014-03-01 06:53:00,23.9,19.8,30.19,NNE,22,3.5,3.5,84,0.00,CLR,,0.00,0.0,WeatherDisplay:10.37,2014-03-01 12:53:00,
2014-03-01 06:54:00,23.9,19.8,30.19,North,5,4.6,4.6,84,0.00,CLR,,0.00,0.0,WeatherDisplay:10.37,2014-03-01 12:54:00,
2014-03-01 06:55:00,23.8,19.7,30.18,NNE,17,10.4,10.4,84,0.00,CLR,,0.00,0.0,WeatherDisplay:10.37,2014-03-01 12:55:00,
2014-03-01 06:57:00,23.8,19.7,30.18,NNW,334,11.5,11.5,84,0.00,CLR,,0.00,0.0,WeatherDisplay:10.37,2014-03-01 12:57:00,
2014-03-01 06:58:00,23.8,19.7,30.18,NNW,348,11.5,11.5,84,0.00,CLR,,0.00,0.0,WeatherDisplay:10.37,2014-03-01 12:58:00,
2014-03-01 07:00:00,23.8,19.7,30.18,North,349,5.8,5.8,84,0.00,CLR,,0.00,0.0,WeatherDisplay:10.37,2014-03-01 13:00:00,
2014-03-01 07:03:00,23.7,19.9,30.18,NW,326,6.9,6.9,85,0.00,CLR,,0.00,0.0,WeatherDisplay:10.37,2014-03-01 13:03:00,
2014-03-01 07:05:00,23.7,19.9,30.18,NNW,348,3.5,3.5,85,0.00,CLR,,0.00,0.0,WeatherDisplay:10.37,2014-03-01 13:05:00,
2014-03-01 07:08:00,23.8,19.9,30.18,NNW,337,8.1,8.1,85,0.00,CLR,,0.00,0.0,WeatherDisplay:10.37,2014-03-01 13:08:00,
2014-03-01 07:09:00,23.8,19.9,30.18,NNE,32,10.4,10.4,85,0.00,CLR,,0.00,5.0,WeatherDisplay:10.37,2014-03-01 13:09:00,
2014-03-01 07:10:00,23.7,19.9,30.18,NNW,346,10.4,10.4,85,0.00,CLR,,0.00,5.0,WeatherDisplay:10.37,2014-03-01 13:10:00,
2014-03-01 07:13:00,23.7,19.9,30.17,NNW,337,9.2,9.2,85,0.00,CLR,,0.00,7.0,WeatherDisplay:10.37,2014-03-01 13:13:00,
2014-03-01 07:14:00,23.6,19.8,30.17,North,11,10.4,10.4,85,0.00,CLR,,0.00,7.0,WeatherDisplay:10.37,2014-03-01 13:14:00,
2014-03-01 07:15:00,23.6,19.8,30.17,NE,38,11.5,11.5,85,0.00,CLR,,0.00,7.0,WeatherDisplay:10.37,2014-03-01 13:15:00,
2014-03-01 07:18:00,23.5,19.7,30.17,North,350,4.6,4.6,85,0.00,CLR,,0.00,7.0,WeatherDisplay:10.37,2014-03-01 13:18:00,
2014-03-01 07:19:00,23.5,19.7,30.17,NNW,342,5.8,5.8,85,0.00,CLR,,0.00,7.0,WeatherDisplay:10.37,2014-03-01 13:19:00,
2014-03-01 07:20:00,23.5,19.7,30.17,North,360,4.6,4.6,85,0.00,CLR,,0.00,7.0,WeatherDisplay:10.37,2014-03-01 13:20:00,
2014-03-01 07:23:00,23.5,19.7,30.18,NNE,24,11.5,11.5,85,0.00,CLR,,0.00,11.0,WeatherDisplay:10.37,2014-03-01 13:23:00,
2014-03-01 07:24:00,23.5,19.7,30.18,North,10,9.2,9.2,85,0.00,CLR,,0.00,11.0,WeatherDisplay:10.37,2014-03-01 13:24:00,
2014-03-01 07:26:00,23.5,19.7,30.18,NNE,22,5.8,5.8,85,0.00,CLR,,0.00,11.0,WeatherDisplay:10.37,2014-03-01 13:26:00,
2014-03-01 07:28:00,23.5,19.7,30.18,North,10,4.6,4.6,85,0.00,CLR,,0.00,11.0,WeatherDisplay:10.37,2014-03-01 13:28:00,
2014-03-01 07:29:00,23.5,19.7,30.18,North,10,4.0,4.0,85,0.00,CLR,,0.00,11.0,WeatherDisplay:10.37,2014-03-01 13:29:00,
2014-03-01 07:31:00,23.4,19.6,30.18,NNW,344,3.5,3.5,85,0.00,CLR,,0.00,12.0,WeatherDisplay:10.37,2014-03-01 13:31:00,
2014-03-01 07:32:00,23.4,19.6,30.18,NNW,348,3.5,3.5,85,0.00,CLR,,0.00,12.0,WeatherDisplay:10.37,2014-03-01 13:32:00,
2014-03-01 07:33:00,23.5,19.7,30.18,NNW,342,3.5,3.5,85,0.00,CLR,,0.00,12.0,WeatherDisplay:10.37,2014-03-01 13:33:00,
2014-03-01 07:35:00,23.5,19.9,30.19,NNW,348,10.0,10.0,86,0.00,CLR,,0.00,12.0,WeatherDisplay:10.37,2014-03-01 13:35:00,
2014-03-01 07:36:00,23.5,19.9,30.19,NNW,336,10.4,10.4,86,0.00,CLR,,0.00,12.0,WeatherDisplay:10.37,2014-03-01 13:36:00,
2014-03-01 07:37:00,23.5,19.7,30.19,North,5,8.1,8.1,85,0.00,CLR,,0.00,12.0,WeatherDisplay:10.37,2014-03-01 13:37:00,
2014-03-01 07:38:00,23.5,19.7,30.20,North,355,6.0,6.0,85,0.00,CLR,,0.00,12.0,WeatherDisplay:10.37,2014-03-01 13:38:00,
2014-03-01 07:40:00,23.5,19.7,30.20,North,9,9.2,9.2,85,0.00,CLR,,0.00,11.0,WeatherDisplay:10.37,2014-03-01 13:40:00,
2014-03-01 07:41:00,23.4,19.6,30.20,NNW,342,5.8,5.8,85,0.00,CLR,,0.00,11.0,WeatherDisplay:10.37,2014-03-01 13:41:00,
2014-03-01 07:43:00,23.4,19.6,30.20,North,5,6.9,6.9,85,0.00,CLR,,0.00,11.0,WeatherDisplay:10.37,2014-03-01 13:43:00,
2014-03-01 07:44:00,23.5,19.7,30.20,NNE,18,9.0,9.0,85,0.00,CLR,,0.00,12.0,WeatherDisplay:10.37,2014-03-01 13:44:00,
2014-03-01 07:46:00,23.5,19.7,30.20,North,5,9.2,9.2,85,0.00,CLR,,0.00,14.0,WeatherDisplay:10.37,2014-03-01 13:46:00,
2014-03-01 07:47:00,23.4,19.6,30.20,NE,50,8.1,8.1,85,0.00,CLR,,0.00,14.0,WeatherDisplay:10.37,2014-03-01 13:47:00,
2014-03-01 07:49:00,23.4,19.6,30.20,North,350,9.2,9.2,85,0.00,CLR,,0.00,14.0,WeatherDisplay:10.37,2014-03-01 13:49:00,
2014-03-01 07:50:00,23.5,19.7,30.20,NNE,13,9.2,9.2,85,0.00,CLR,,0.00,16.0,WeatherDisplay:10.37,2014-03-01 13:50:00,
2014-03-01 07:51:00,23.5,19.7,30.20,NW,323,9.2,9.2,85,0.00,CLR,,0.00,18.0,WeatherDisplay:10.37,2014-03-01 13:51:00,
2014-03-01 07:52:00,23.4,19.6,30.20,NNW,331,7.0,7.0,85,0.00,CLR,,0.00,18.0,WeatherDisplay:10.37,2014-03-01 13:52:00,
2014-03-01 07:53:00,23.5,19.7,30.20,NNE,17,8.1,8.1,85,0.00,CLR,,0.00,21.0,WeatherDisplay:10.37,2014-03-01 13:53:00,
2014-03-01 07:54:00,23.5,19.7,30.20,NNW,328,8.1,8.1,85,0.00,CLR,,0.00,21.0,WeatherDisplay:10.37,2014-03-01 13:54:00,
2014-03-01 07:55:00,23.4,19.3,30.20,NNW,329,4.6,4.6,84,0.00,CLR,,0.00,21.0,WeatherDisplay:10.37,2014-03-01 13:55:00,
2014-03-01 07:56:00,23.4,19.3,30.20,NNW,335,6.0,6.0,84,0.00,CLR,,0.00,21.0,WeatherDisplay:10.37,2014-03-01 13:56:00,
2014-03-01 07:57:00,23.4,19.3,30.20,NNW,338,10.4,10.4,84,0.00,CLR,,0.00,21.0,WeatherDisplay:10.37,2014-03-01 13:57:00,
2014-03-01 07:58:00,23.4,19.3,30.20,NNE,13,9.2,9.2,84,0.00,CLR,,0.00,23.0,WeatherDisplay:10.37,2014-03-01 13:58:00,
2014-03-01 07:59:00,23.4,19.3,30.20,NE,36,8.1,8.1,84,0.00,CLR,,0.00,26.0,WeatherDisplay:10.37,2014-03-01 13:59:00,
2014-03-01 08:00:00,23.4,19.3,30.20,North,5,8.1,8.1,84,0.00,CLR,,0.00,26.0,WeatherDisplay:10.37,2014-03-01 14:00:00,
2014-03-01 08:01:00,23.4,19.0,30.20,North,355,9.2,9.2,83,0.00,OVC,,0.00,32.0,WeatherDisplay:10.37,2014-03-01 14:01:00,
2014-03-01 08:03:00,23.4,19.0,30.20,North,11,4.6,4.6,83,0.00,OVC,,0.00,35.0,WeatherDisplay:10.37,2014-03-01 14:03:00,
2014-03-01 08:04:00,23.4,19.0,30.19,NNW,346,3.5,3.5,83,0.00,OVC,,0.00,35.0,WeatherDisplay:10.37,2014-03-01 14:04:00,
2014-03-01 08:05:00,23.4,19.0,30.19,NNW,347,3.5,3.5,83,0.00,OVC,,0.00,35.0,WeatherDisplay:10.37,2014-03-01 14:05:00,
2014-03-01 08:06:00,23.5,19.1,30.19,North,360,3.5,3.5,83,0.00,OVC,,0.00,46.0,WeatherDisplay:10.37,2014-03-01 14:06:00,
2014-03-01 08:07:00,23.5,19.1,30.19,NNW,341,9.2,9.2,83,0.00,OVC,,0.00,47.0,WeatherDisplay:10.37,2014-03-01 14:07:00,
2014-03-01 08:08:00,23.5,19.1,30.20,North,355,9.2,9.2,83,0.00,OVC,,0.00,46.0,WeatherDisplay:10.37,2014-03-01 14:08:00,
2014-03-01 08:09:00,23.5,19.1,30.20,North,5,9.2,9.2,83,0.00,OVC,,0.00,46.0,WeatherDisplay:10.37,2014-03-01 14:09:00,
2014-03-01 08:10:00,23.6,18.9,30.20,NNE,19,5.8,5.8,82,0.00,OVC,,0.00,49.0,WeatherDisplay:10.37,2014-03-01 14:10:00,
2014-03-01 08:11:00,23.6,18.9,30.20,NNE,17,8.1,8.1,82,0.00,OVC,,0.00,54.0,WeatherDisplay:10.37,2014-03-01 14:11:00,
2014-03-01 08:12:00,23.6,18.9,30.19,NNW,340,11.5,11.5,82,0.00,OVC,,0.00,58.0,WeatherDisplay:10.37,2014-03-01 14:12:00,
2014-03-01 08:14:00,23.6,18.9,30.19,NNE,18,6.9,6.9,82,0.00,OVC,,0.00,65.0,WeatherDisplay:10.37,2014-03-01 14:14:00,
2014-03-01 08:15:00,23.6,18.9,30.20,NNW,344,4.6,4.6,82,0.00,OVC,,0.00,63.0,WeatherDisplay:10.37,2014-03-01 14:15:00,
2014-03-01 08:17:00,23.7,19.0,30.20,WNW,300,9.2,9.2,82,0.00,OVC,,0.00,58.0,WeatherDisplay:10.37,2014-03-01 14:17:00,
2014-03-01 08:18:00,23.8,19.1,30.20,NNE,20,12.7,12.7,82,0.00,OVC,,0.00,49.0,WeatherDisplay:10.37,2014-03-01 14:18:00,
2014-03-01 08:19:00,23.7,18.7,30.20,North,11,12.7,12.7,81,0.00,OVC,,0.00,47.0,WeatherDisplay:10.37,2014-03-01 14:19:00,
2014-03-01 08:20:00,23.7,18.7,30.20,NNW,331,11.5,11.5,81,0.00,OVC,,0.00,44.0,WeatherDisplay:10.37,2014-03-01 14:20:00,
2014-03-01 08:21:00,23.7,18.7,30.20,NNE,12,9.2,9.2,81,0.00,OVC,,0.00,44.0,WeatherDisplay:10.37,2014-03-01 14:21:00,
2014-03-01 08:22:00,23.7,18.7,30.20,NNE,19,4.6,4.6,81,0.00,OVC,,0.00,42.0,WeatherDisplay:10.37,2014-03-01 14:22:00,
2014-03-01 08:23:00,23.8,18.8,30.20,NNW,331,4.0,4.0,81,0.00,OVC,,0.00,40.0,WeatherDisplay:10.37,2014-03-01 14:23:00,
2014-03-01 08:24:00,23.8,18.8,30.20,NNW,348,5.0,5.0,81,0.00,OVC,,0.00,44.0,WeatherDisplay:10.37,2014-03-01 14:24:00,
2014-03-01 08:25:00,23.8,18.8,30.20,NNW,338,9.2,9.2,81,0.00,OVC,,0.00,51.0,WeatherDisplay:10.37,2014-03-01 14:25:00,
2014-03-01 08:27:00,23.8,18.8,30.20,North,351,9.2,9.2,81,0.00,OVC,,0.00,56.0,WeatherDisplay:10.37,2014-03-01 14:27:00,
2014-03-01 08:28:00,23.8,18.8,30.20,North,355,9.2,9.2,81,0.00,OVC,,0.00,67.0,WeatherDisplay:10.37,2014-03-01 14:28:00,
2014-03-01 08:29:00,23.9,18.9,30.20,NNW,348,11.5,11.5,81,0.00,OVC,,0.00,62.0,WeatherDisplay:10.37,2014-03-01 14:29:00,
2014-03-01 08:30:00,23.8,18.8,30.20,NNE,20,11.5,11.5,81,0.00,OVC,,0.00,46.0,WeatherDisplay:10.37,2014-03-01 14:30:00,
2014-03-01 08:32:00,23.8,18.8,30.20,NNW,338,9.2,9.2,81,0.00,OVC,,0.00,53.0,WeatherDisplay:10.37,2014-03-01 14:32:00,
2014-03-01 08:33:00,23.8,18.8,30.20,NE,46,11.0,11.0,81,0.00,OVC,,0.00,49.0,WeatherDisplay:10.37,2014-03-01 14:33:00,
2014-03-01 08:34:00,23.7,18.4,30.20,NNW,344,11.5,11.5,80,0.00,OVC,,0.00,53.0,WeatherDisplay:10.37,2014-03-01 14:34:00,
2014-03-01 08:35:00,23.7,18.4,30.20,NNE,30,5.8,5.8,80,0.00,OVC,,0.00,53.0,WeatherDisplay:10.37,2014-03-01 14:35:00,
2014-03-01 08:36:00,23.7,18.4,30.20,NNE,22,10.4,10.4,80,0.00,OVC,,0.00,53.0,WeatherDisplay:10.37,2014-03-01 14:36:00,
2014-03-01 08:38:00,23.6,18.3,30.20,NNE,15,6.9,6.9,80,0.00,OVC,,0.00,51.0,WeatherDisplay:10.37,2014-03-01 14:38:00,
2014-03-01 08:39:00,23.6,18.3,30.20,ENE,59,9.2,9.2,80,0.00,OVC,,0.00,58.0,WeatherDisplay:10.37,2014-03-01 14:39:00,
2014-03-01 08:40:00,23.6,18.3,30.20,NW,321,5.8,5.8,80,0.00,OVC,,0.00,62.0,WeatherDisplay:10.37,2014-03-01 14:40:00,
2014-03-01 08:41:00,23.6,18.3,30.20,North,355,8.1,8.1,80,0.00,OVC,,0.00,67.0,WeatherDisplay:10.37,2014-03-01 14:41:00,
2014-03-01 08:43:00,23.7,18.7,30.20,NNW,329,4.6,4.6,81,0.00,OVC,,0.00,70.0,WeatherDisplay:10.37,2014-03-01 14:43:00,
2014-03-01 08:45:00,23.8,18.8,30.21,North,5,6.9,6.9,81,0.00,OVC,,0.00,83.0,WeatherDisplay:10.37,2014-03-01 14:45:00,
2014-03-01 08:46:00,23.8,18.5,30.21,NNE,22,10.4,10.4,80,0.00,OVC,,0.00,91.0,WeatherDisplay:10.37,2014-03-01 14:46:00,
2014-03-01 08:48:00,23.8,18.5,30.21,NNE,20,9.0,9.0,80,0.00,OVC,,0.00,88.0,WeatherDisplay:10.37,2014-03-01 14:48:00,
2014-03-01 08:49:00,23.8,18.5,30.21,North,5,9.2,9.2,80,0.00,OVC,,0.00,79.0,WeatherDisplay:10.37,2014-03-01 14:49:00,
2014-03-01 08:50:00,23.8,18.5,30.21,North,355,8.1,8.1,80,0.00,OVC,,0.00,70.0,WeatherDisplay:10.37,2014-03-01 14:50:00,
2014-03-01 08:51:00,23.9,18.6,30.21,NNW,332,8.1,8.1,80,0.00,OVC,,0.00,42.0,WeatherDisplay:10.37,2014-03-01 14:51:00,
2014-03-01 08:53:00,23.9,18.6,30.22,North,355,11.5,11.5,80,0.00,OVC,,0.00,35.0,WeatherDisplay:10.37,2014-03-01 14:53:00,
2014-03-01 08:54:00,23.9,18.6,30.22,NE,41,9.2,9.2,80,0.00,OVC,,0.00,39.0,WeatherDisplay:10.37,2014-03-01 14:54:00,
2014-03-01 08:55:00,23.9,18.6,30.22,North,360,9.2,9.2,80,0.00,OVC,,0.00,53.0,WeatherDisplay:10.37,2014-03-01 14:55:00,
2014-03-01 08:56:00,23.9,18.6,30.22,North,9,11.5,11.5,80,0.00,OVC,,0.00,62.0,WeatherDisplay:10.37,2014-03-01 14:56:00,
2014-03-01 08:57:00,23.9,18.3,30.22,North,350,9.2,9.2,79,0.00,OVC,,0.00,60.0,WeatherDisplay:10.37,2014-03-01 14:57:00,
2014-03-01 08:58:00,23.8,18.5,30.22,NW,321,4.0,4.0,80,0.00,OVC,,0.00,51.0,WeatherDisplay:10.37,2014-03-01 14:58:00,
2014-03-01 09:00:00,23.9,18.6,30.22,NNE,22,4.6,4.6,80,0.00,OVC,,0.00,47.0,WeatherDisplay:10.37,2014-03-01 15:00:00,
2014-03-01 09:01:00,23.9,18.6,30.22,NNW,331,11.5,11.5,80,0.00,OVC,,0.00,58.0,WeatherDisplay:10.37,2014-03-01 15:01:00,
2014-03-01 09:02:00,23.9,18.6,30.22,NNW,336,8.1,8.1,80,0.00,OVC,,0.00,62.0,WeatherDisplay:10.37,2014-03-01 15:02:00,
2014-03-01 09:05:00,24.0,18.7,30.22,NNE,15,6.9,6.9,80,0.00,OVC,,0.00,63.0,WeatherDisplay:10.37,2014-03-01 15:05:00,
2014-03-01 09:06:00,24.0,18.7,30.23,North,5,11.5,11.5,80,0.00,OVC,,0.00,63.0,WeatherDisplay:10.37,2014-03-01 15:06:00,
2014-03-01 09:07:00,23.9,18.6,30.23,North,11,11.5,11.5,80,0.00,OVC,,0.00,67.0,WeatherDisplay:10.37,2014-03-01 15:07:00,
2014-03-01 09:10:00,23.9,18.6,30.23,NE,35,6.9,6.9,80,0.00,OVC,,0.00,77.0,WeatherDisplay:10.37,2014-03-01 15:10:00,
2014-03-01 09:11:00,23.9,18.6,30.22,North,5,9.2,9.2,80,0.00,OVC,,0.00,81.0,WeatherDisplay:10.37,2014-03-01 15:11:00,
2014-03-01 09:12:00,23.9,18.6,30.22,NNW,336,9.2,9.2,80,0.00,OVC,,0.00,83.0,WeatherDisplay:10.37,2014-03-01 15:12:00,
2014-03-01 09:13:00,23.9,18.6,30.22,NNE,32,6.9,6.9,80,0.00,OVC,,0.00,76.0,WeatherDisplay:10.37,2014-03-01 15:13:00,
2014-03-01 09:15:00,24.0,18.7,30.23,NE,46,6.0,6.0,80,0.00,OVC,,0.00,70.0,WeatherDisplay:10.37,2014-03-01 15:15:00,
2014-03-01 09:16:00,24.0,18.7,30.23,NNE,24,5.8,5.8,80,0.00,OVC,,0.00,70.0,WeatherDisplay:10.37,2014-03-01 15:16:00,
2014-03-01 09:18:00,24.0,18.7,30.23,North,355,5.8,5.8,80,0.00,OVC,,0.00,70.0,WeatherDisplay:10.37,2014-03-01 15:18:00,
2014-03-01 09:20:00,24.1,18.8,30.23,NNE,32,5.8,5.8,80,0.00,OVC,,0.00,70.0,WeatherDisplay:10.37,2014-03-01 15:20:00,
2014-03-01 09:21:00,24.1,18.8,30.23,NNE,27,6.0,6.0,80,0.00,OVC,,0.00,69.0,WeatherDisplay:10.37,2014-03-01 15:21:00,
2014-03-01 09:22:00,24.1,18.8,30.23,North,360,6.9,6.9,80,0.00,OVC,,0.00,69.0,WeatherDisplay:10.37,2014-03-01 15:22:00,
2014-03-01 09:23:00,24.2,18.9,30.23,NNW,338,8.1,8.1,80,0.00,OVC,,0.00,79.0,WeatherDisplay:10.37,2014-03-01 15:23:00,
2014-03-01 09:25:00,24.2,18.9,30.24,NE,36,9.0,9.0,80,0.00,OVC,,0.00,81.0,WeatherDisplay:10.37,2014-03-01 15:25:00,
2014-03-01 09:26:00,24.2,18.9,30.23,NW,321,9.2,9.2,80,0.00,OVC,,0.00,76.0,WeatherDisplay:10.37,2014-03-01 15:26:00,
2014-03-01 09:27:00,24.2,18.9,30.23,NNE,24,4.0,4.0,80,0.00,OVC,,0.00,67.0,WeatherDisplay:10.37,2014-03-01 15:27:00,
2014-03-01 09:28:00,24.2,18.9,30.23,NW,323,3.5,3.5,80,0.00,OVC,,0.00,67.0,WeatherDisplay:10.37,2014-03-01 15:28:00,
2014-03-01 09:30:00,24.2,18.9,30.24,NNW,341,4.6,4.6,80,0.00,OVC,,0.00,63.0,WeatherDisplay:10.37,2014-03-01 15:30:00,
2014-03-01 09:31:00,24.2,18.9,30.24,North,5,5.0,5.0,80,0.00,OVC,,0.00,65.0,WeatherDisplay:10.37,2014-03-01 15:31:00,
2014-03-01 09:33:00,24.2,18.9,30.24,NE,55,10.4,10.4,80,0.00,OVC,,0.00,65.0,WeatherDisplay:10.37,2014-03-01 15:33:00,
2014-03-01 09:34:00,24.2,18.9,30.24,NNE,24,10.4,10.4,80,0.00,OVC,,0.00,65.0,WeatherDisplay:10.37,2014-03-01 15:34:00,
2014-03-01 09:35:00,24.2,18.9,30.24,NNW,347,11.5,11.5,80,0.00,OVC,,0.00,67.0,WeatherDisplay:10.37,2014-03-01 15:35:00,
2014-03-01 09:36:00,24.2,18.9,30.24,North,9,9.2,9.2,80,0.00,OVC,,0.00,69.0,WeatherDisplay:10.37,2014-03-01 15:36:00,
2014-03-01 09:38:00,24.2,18.9,30.23,NNW,334,10.0,10.0,80,0.00,OVC,,0.00,63.0,WeatherDisplay:10.37,2014-03-01 15:38:00,
2014-03-01 09:39:00,24.2,18.9,30.23,West,273,11.5,11.5,80,0.00,OVC,,0.00,63.0,WeatherDisplay:10.37,2014-03-01 15:39:00,
2014-03-01 09:40:00,24.2,18.9,30.23,North,355,9.2,9.2,80,0.00,OVC,,0.00,63.0,WeatherDisplay:10.37,2014-03-01 15:40:00,
2014-03-01 09:41:00,24.1,19.1,30.23,North,355,8.1,8.1,81,0.00,OVC,,0.00,63.0,WeatherDisplay:10.37,2014-03-01 15:41:00,
2014-03-01 09:42:00,24.1,19.1,30.23,NNW,340,8.1,8.1,81,0.00,OVC,,0.00,69.0,WeatherDisplay:10.37,2014-03-01 15:42:00,
2014-03-01 09:43:00,24.1,19.1,30.23,North,350,9.2,9.2,81,0.00,OVC,,0.00,69.0,WeatherDisplay:10.37,2014-03-01 15:43:00,
2014-03-01 09:44:00,24.1,19.1,30.24,North,360,3.5,3.5,81,0.00,OVC,,0.00,67.0,WeatherDisplay:10.37,2014-03-01 15:44:00,
2014-03-01 09:45:00,24.1,19.1,30.24,NNW,333,8.1,8.1,81,0.00,OVC,,0.00,58.0,WeatherDisplay:10.37,2014-03-01 15:45:00,
2014-03-01 09:46:00,24.1,19.1,30.24,North,5,8.1,8.1,81,0.00,OVC,,0.00,58.0,WeatherDisplay:10.37,2014-03-01 15:46:00,
2014-03-01 09:47:00,24.1,19.1,30.25,NW,321,5.8,5.8,81,0.00,OVC,,0.00,63.0,WeatherDisplay:10.37,2014-03-01 15:47:00,
2014-03-01 09:49:00,24.1,19.1,30.24,NNE,24,8.1,8.1,81,0.00,OVC,,0.00,62.0,WeatherDisplay:10.37,2014-03-01 15:49:00,
2014-03-01 09:50:00,24.1,19.1,30.24,North,355,11.5,11.5,81,0.00,OVC,,0.00,62.0,WeatherDisplay:10.37,2014-03-01 15:50:00,
2014-03-01 09:51:00,24.1,19.1,30.24,North,355,3.5,3.5,81,0.00,OVC,,0.00,62.0,WeatherDisplay:10.37,2014-03-01 15:51:00,
2014-03-01 09:52:00,24.0,19.0,30.24,NE,42,6.0,6.0,81,0.00,OVC,,0.00,67.0,WeatherDisplay:10.37,2014-03-01 15:52:00,
2014-03-01 09:54:00,24.0,19.0,30.24,NE,36,9.2,9.2,81,0.00,OVC,,0.00,69.0,WeatherDisplay:10.37,2014-03-01 15:54:00,
2014-03-01 09:55:00,24.0,19.3,30.23,North,5,6.9,6.9,82,0.00,OVC,,0.00,72.0,WeatherDisplay:10.37,2014-03-01 15:55:00,
2014-03-01 09:56:00,23.9,18.9,30.23,NW,323,6.9,6.9,81,0.00,OVC,,0.00,58.0,WeatherDisplay:10.37,2014-03-01 15:56:00,
2014-03-01 09:57:00,23.9,19.2,30.23,NE,40,3.5,3.5,82,0.00,OVC,,0.00,58.0,WeatherDisplay:10.37,2014-03-01 15:57:00,
2014-03-01 09:59:00,23.8,19.1,30.24,North,5,11.5,11.5,82,0.00,OVC,,0.00,77.0,WeatherDisplay:10.37,2014-03-01 15:59:00,
2014-03-01 10:00:00,23.8,19.1,30.24,North,349,11.5,11.5,82,0.00,OVC,,0.00,70.0,WeatherDisplay:10.37,2014-03-01 16:00:00,
2014-03-01 10:01:00,23.7,19.0,30.24,North,349,9.2,9.2,82,0.00,OVC,,0.00,63.0,WeatherDisplay:10.37,2014-03-01 16:01:00,
2014-03-01 10:02:00,23.6,18.9,30.24,North,355,5.0,5.0,82,0.00,OVC,,0.00,54.0,WeatherDisplay:10.37,2014-03-01 16:02:00,
2014-03-01 10:04:00,23.6,18.9,30.25,North,355,9.2,9.2,82,0.00,OVC,,0.00,63.0,WeatherDisplay:10.37,2014-03-01 16:04:00,
2014-03-01 10:05:00,23.5,18.8,30.25,NNW,344,11.5,11.5,82,0.00,OVC,,0.00,67.0,WeatherDisplay:10.37,2014-03-01 16:05:00,
2014-03-01 10:06:00,23.5,18.8,30.25,NNW,340,8.1,8.1,82,0.00,OVC,,0.00,74.0,WeatherDisplay:10.37,2014-03-01 16:06:00,
2014-03-01 10:07:00,23.5,18.8,30.25,NNE,15,11.5,11.5,82,0.00,OVC,,0.00,79.0,WeatherDisplay:10.37,2014-03-01 16:07:00,
2014-03-01 10:09:00,23.4,18.7,30.25,North,5,9.0,9.0,82,0.00,OVC,,0.00,72.0,WeatherDisplay:10.37,2014-03-01 16:09:00,
2014-03-01 10:10:00,23.4,18.7,30.25,North,350,11.5,11.5,82,0.00,OVC,,0.00,65.0,WeatherDisplay:10.37,2014-03-01 16:10:00,
2014-03-01 10:11:00,23.4,18.7,30.25,North,5,10.4,10.4,82,0.00,OVC,,0.00,65.0,WeatherDisplay:10.37,2014-03-01 16:11:00,
2014-03-01 10:12:00,23.3,18.3,30.25,NNW,342,13.8,13.8,81,0.00,OVC,,0.00,72.0,WeatherDisplay:10.37,2014-03-01 16:12:00,
2014-03-01 10:14:00,23.3,18.3,30.25,NNW,340,8.1,8.1,81,0.00,OVC,,0.00,79.0,WeatherDisplay:10.37,2014-03-01 16:14:00,
2014-03-01 10:16:00,23.3,18.3,30.25,NNW,331,8.1,8.1,81,0.00,OVC,,0.00,72.0,WeatherDisplay:10.37,2014-03-01 16:16:00,
2014-03-01 10:17:00,23.3,18.3,30.25,NNW,344,8.1,8.1,81,0.00,OVC,,0.00,74.0,WeatherDisplay:10.37,2014-03-01 16:17:00,
2014-03-01 10:20:00,23.3,18.0,30.25,North,9,4.6,4.6,80,0.00,OVC,,0.00,60.0,WeatherDisplay:10.37,2014-03-01 16:20:00,
2014-03-01 10:21:00,23.3,18.0,30.25,NNE,18,9.2,9.2,80,0.00,OVC,,0.00,65.0,WeatherDisplay:10.37,2014-03-01 16:21:00,
2014-03-01 10:22:00,23.3,18.0,30.25,NNE,13,5.8,5.8,80,0.00,OVC,,0.00,67.0,WeatherDisplay:10.37,2014-03-01 16:22:00,
2014-03-01 10:26:00,23.2,17.9,30.25,North,5,9.2,9.2,80,0.00,OVC,,0.00,74.0,WeatherDisplay:10.37,2014-03-01 16:26:00,
2014-03-01 10:27:00,23.2,17.7,30.26,NNW,344,9.2,9.2,79,0.00,OVC,,0.00,74.0,WeatherDisplay:10.37,2014-03-01 16:27:00,
2014-03-01 10:28:00,23.1,17.6,30.26,North,360,9.2,9.2,79,0.00,OVC,,0.00,67.0,WeatherDisplay:10.37,2014-03-01 16:28:00,
2014-03-01 10:31:00,23.0,17.2,30.25,NNW,336,3.5,3.5,78,0.00,OVC,,0.00,77.0,WeatherDisplay:10.37,2014-03-01 16:31:00,
2014-03-01 10:32:00,23.0,17.2,30.25,NNW,340,3.5,3.5,78,0.00,OVC,,0.00,77.0,WeatherDisplay:10.37,2014-03-01 16:32:00,
2014-03-01 10:33:00,22.9,17.1,30.25,NNW,346,3.5,3.5,78,0.00,OVC,,0.00,88.0,WeatherDisplay:10.37,2014-03-01 16:33:00,
2014-03-01 10:36:00,22.9,16.8,30.25,NNW,346,11.5,11.5,77,0.00,OVC,,0.00,118.0,WeatherDisplay:10.37,2014-03-01 16:36:00,
2014-03-01 10:37:00,22.9,16.8,30.25,North,360,5.8,5.8,77,0.00,OVC,,0.00,118.0,WeatherDisplay:10.37,2014-03-01 16:37:00,
2014-03-01 10:38:00,22.9,17.1,30.25,North,360,10.4,10.4,78,0.00,OVC,,0.00,97.0,WeatherDisplay:10.37,2014-03-01 16:38:00,
2014-03-01 10:42:00,22.7,16.6,30.25,NNE,31,10.4,10.4,77,0.00,OVC,,0.00,113.0,WeatherDisplay:10.37,2014-03-01 16:42:00,
2014-03-01 10:43:00,22.7,16.6,30.26,North,5,9.2,9.2,77,0.00,OVC,,0.00,121.0,WeatherDisplay:10.37,2014-03-01 16:43:00,
2014-03-01 10:47:00,22.7,16.3,30.26,NNW,344,11.5,11.5,76,0.00,OVC,,0.00,121.0,WeatherDisplay:10.37,2014-03-01 16:47:00,
2014-03-01 10:48:00,22.6,16.2,30.25,NNE,31,6.9,6.9,76,0.00,OVC,,0.00,105.0,WeatherDisplay:10.37,2014-03-01 16:48:00,
2014-03-01 10:52:00,22.7,16.3,30.25,NNW,344,9.2,9.2,76,0.00,OVC,,0.00,100.0,WeatherDisplay:10.37,2014-03-01 16:52:00,
2014-03-01 10:53:00,22.6,15.9,30.25,North,355,11.5,11.5,75,0.00,OVC,,0.00,100.0,WeatherDisplay:10.37,2014-03-01 16:53:00,
2014-03-01 10:54:00,22.6,15.9,30.25,NNE,20,11.5,11.5,75,0.00,OVC,,0.00,104.0,WeatherDisplay:10.37,2014-03-01 16:54:00,
2014-03-01 10:57:00,22.2,15.2,30.25,NW,325,9.2,9.2,74,0.00,OVC,,0.00,83.0,WeatherDisplay:10.37,2014-03-01 16:57:00,
2014-03-01 10:58:00,22.2,15.2,30.25,NE,40,9.0,9.0,74,0.00,OVC,,0.00,76.0,WeatherDisplay:10.37,2014-03-01 16:58:00,
2014-03-01 10:59:00,22.2,15.2,30.25,NNE,19,9.2,9.2,74,0.00,OVC,,0.00,76.0,WeatherDisplay:10.37,2014-03-01 16:59:00,
2014-03-01 11:03:00,22.1,15.1,30.25,NW,306,13.8,13.8,74,0.00,OVC,,0.00,81.0,WeatherDisplay:10.37,2014-03-01 17:03:00,
2014-03-01 11:04:00,22.1,15.1,30.25,NNW,337,11.5,11.5,74,0.00,OVC,,0.00,86.0,WeatherDisplay:10.37,2014-03-01 17:04:00,
2014-03-01 11:08:00,22.2,15.2,30.26,NNW,328,10.4,10.4,74,0.00,OVC,,0.00,98.0,WeatherDisplay:10.37,2014-03-01 17:08:00,
2014-03-01 11:09:00,22.3,15.0,30.26,NNW,343,5.8,5.8,73,0.00,OVC,,0.00,97.0,WeatherDisplay:10.37,2014-03-01 17:09:00,
2014-03-01 11:10:00,22.3,15.0,30.26,NE,41,4.0,4.0,73,0.00,OVC,,0.00,98.0,WeatherDisplay:10.37,2014-03-01 17:10:00,
2014-03-01 11:13:00,22.2,14.5,30.26,NNE,29,10.4,10.4,72,0.00,OVC,,0.00,105.0,WeatherDisplay:10.37,2014-03-01 17:13:00,
2014-03-01 11:14:00,22.1,14.4,30.26,NNW,342,12.7,12.7,72,0.00,OVC,,0.00,113.0,WeatherDisplay:10.37,2014-03-01 17:14:00,
2014-03-01 11:15:00,22.0,14.3,30.26,NW,323,11.5,11.5,72,0.00,OVC,,0.00,116.0,WeatherDisplay:10.37,2014-03-01 17:15:00,
2014-03-01 11:18:00,21.9,14.3,30.26,NNE,31,8.0,8.0,72,0.00,OVC,,0.00,111.0,WeatherDisplay:10.37,2014-03-01 17:18:00,
2014-03-01 11:19:00,21.9,14.3,30.26,North,360,8.1,8.1,72,0.00,OVC,,0.00,114.0,WeatherDisplay:10.37,2014-03-01 17:19:00,
2014-03-01 11:20:00,21.9,14.3,30.26,NW,310,8.1,8.1,72,0.00,OVC,,0.00,114.0,WeatherDisplay:10.37,2014-03-01 17:20:00,
2014-03-01 11:23:00,22.0,14.3,30.27,NE,35,4.6,4.6,72,0.00,OVC,,0.00,116.0,WeatherDisplay:10.37,2014-03-01 17:23:00,
2014-03-01 11:24:00,21.9,14.3,30.27,NNE,27,3.5,3.5,72,0.00,OVC,,0.00,127.0,WeatherDisplay:10.37,2014-03-01 17:24:00,
2014-03-01 11:25:00,21.9,14.3,30.26,NNE,12,7.0,7.0,72,0.00,OVC,,0.00,128.0,WeatherDisplay:10.37,2014-03-01 17:25:00,
2014-03-01 11:26:00,21.9,13.9,30.27,NW,319,6.9,6.9,71,0.00,OVC,,0.00,128.0,WeatherDisplay:10.37,2014-03-01 17:26:00,
2014-03-01 11:28:00,21.9,13.9,30.27,NNW,330,10.4,10.4,71,0.00,OVC,,0.00,107.0,WeatherDisplay:10.37,2014-03-01 17:28:00,
2014-03-01 11:29:00,21.9,13.9,30.27,North,11,12.7,12.7,71,0.00,OVC,,0.00,93.0,WeatherDisplay:10.37,2014-03-01 17:29:00,
2014-03-01 11:30:00,21.8,13.8,30.26,North,355,8.1,8.1,71,0.00,OVC,,0.00,91.0,WeatherDisplay:10.37,2014-03-01 17:30:00,
2014-03-01 11:31:00,21.8,13.8,30.26,North,351,4.6,4.6,71,0.00,OVC,,0.00,97.0,WeatherDisplay:10.37,2014-03-01 17:31:00,
2014-03-01 11:33:00,21.8,13.8,30.26,NE,36,11.5,11.5,71,0.00,OVC,,0.00,97.0,WeatherDisplay:10.37,2014-03-01 17:33:00,
2014-03-01 11:34:00,21.8,13.8,30.26,NW,320,10.4,10.4,71,0.00,OVC,,0.00,97.0,WeatherDisplay:10.37,2014-03-01 17:34:00,
2014-03-01 11:35:00,21.8,13.8,30.26,NW,320,5.0,5.0,71,0.00,OVC,,0.00,97.0,WeatherDisplay:10.37,2014-03-01 17:35:00,
2014-03-01 11:36:00,21.8,13.8,30.26,NW,320,5.0,5.0,71,0.00,OVC,,0.00,97.0,WeatherDisplay:10.37,2014-03-01 17:36:00,
2014-03-01 11:37:00,21.8,13.8,30.26,NW,320,4.6,4.6,71,0.00,OVC,,0.00,97.0,WeatherDisplay:10.37,2014-03-01 17:37:00,
2014-03-01 11:38:00,22.0,14.0,30.26,NE,36,9.0,9.0,71,0.00,OVC,,0.00,84.0,WeatherDisplay:10.37,2014-03-01 17:38:00,
2014-03-01 11:40:00,21.9,13.9,30.27,ENE,63,11.5,11.5,71,0.00,OVC,,0.00,74.0,WeatherDisplay:10.37,2014-03-01 17:40:00,
2014-03-01 11:41:00,21.8,13.5,30.27,NNW,340,8.1,8.1,70,0.00,OVC,,0.00,77.0,WeatherDisplay:10.37,2014-03-01 17:41:00,
2014-03-01 11:42:00,21.9,13.6,30.27,NW,326,3.5,3.5,70,0.00,OVC,,0.00,77.0,WeatherDisplay:10.37,2014-03-01 17:42:00,
2014-03-01 11:43:00,21.9,13.6,30.27,NNW,347,3.5,3.5,70,0.00,OVC,,0.00,93.0,WeatherDisplay:10.37,2014-03-01 17:43:00,
2014-03-01 11:45:00,21.9,13.9,30.26,North,355,4.6,4.6,71,0.00,OVC,,0.00,91.0,WeatherDisplay:10.37,2014-03-01 17:45:00,
2014-03-01 11:47:00,22.1,14.1,30.26,North,355,10.4,10.4,71,0.00,OVC,,0.00,97.0,WeatherDisplay:10.37,2014-03-01 17:47:00,
2014-03-01 11:48:00,22.1,13.8,30.26,NNE,33,11.5,11.5,70,0.00,OVC,,0.00,132.0,WeatherDisplay:10.37,2014-03-01 17:48:00,
2014-03-01 11:50:00,22.1,14.1,30.27,NNW,340,8.1,8.1,71,0.00,OVC,,0.00,139.0,WeatherDisplay:10.37,2014-03-01 17:50:00,
2014-03-01 11:51:00,22.1,14.1,30.26,NNW,348,5.8,5.8,71,0.00,OVC,,0.00,139.0,WeatherDisplay:10.37,2014-03-01 17:51:00,
2014-03-01 11:52:00,22.1,14.1,30.26,NNE,17,5.8,5.8,71,0.00,OVC,,0.00,137.0,WeatherDisplay:10.37,2014-03-01 17:52:00,
2014-03-01 11:53:00,22.1,14.1,30.26,North,355,8.1,8.1,71,0.00,OVC,,0.00,137.0,WeatherDisplay:10.37,2014-03-01 17:53:00,
2014-03-01 11:56:00,22.1,14.1,30.25,NW,323,3.5,3.5,71,0.00,OVC,,0.00,127.0,WeatherDisplay:10.37,2014-03-01 17:56:00,
2014-03-01 11:57:00,22.2,14.2,30.26,NNW,346,13.8,13.8,71,0.00,OVC,,0.00,137.0,WeatherDisplay:10.37,2014-03-01 17:57:00,
2014-03-01 11:58:00,22.2,14.2,30.26,NNW,344,11.5,11.5,71,0.00,OVC,,0.00,137.0,WeatherDisplay:10.37,2014-03-01 17:58:00,
2014-03-01 11:59:00,22.2,14.2,30.26,NNW,343,11.5,11.5,71,0.00,OVC,,0.00,137.0,WeatherDisplay:10.37,2014-03-01 17:59:00,
2014-03-01 12:01:00,22.1,14.1,30.25,NNW,338,5.8,5.8,71,0.00,OVC,,0.00,105.0,WeatherDisplay:10.37,2014-03-01 18:01:00,
2014-03-01 12:03:00,22.0,14.0,30.26,NNW,340,11.5,11.5,71,0.00,OVC,,0.00,111.0,WeatherDisplay:10.37,2014-03-01 18:03:00,
2014-03-01 12:04:00,22.0,14.0,30.26,North,10,11.5,11.5,71,0.00,OVC,,0.00,130.0,WeatherDisplay:10.37,2014-03-01 18:04:00,
2014-03-01 12:06:00,21.8,13.5,30.26,NNW,329,9.2,9.2,70,0.00,OVC,,0.00,149.0,WeatherDisplay:10.37,2014-03-01 18:06:00,
2014-03-01 12:08:00,21.8,13.8,30.26,NNE,28,11.5,11.5,71,0.00,OVC,,0.00,153.0,WeatherDisplay:10.37,2014-03-01 18:08:00,
2014-03-01 12:09:00,21.8,13.5,30.25,NNE,28,11.5,11.5,70,0.00,OVC,,0.00,149.0,WeatherDisplay:10.37,2014-03-01 18:09:00,
2014-03-01 12:11:00,21.6,13.3,30.26,NW,313,11.5,11.5,70,0.00,OVC,,0.00,146.0,WeatherDisplay:10.37,2014-03-01 18:11:00,
2014-03-01 12:14:00,21.5,13.2,30.26,NW,306,11.5,11.5,70,0.00,OVC,,0.00,162.0,WeatherDisplay:10.37,2014-03-01 18:14:00,
2014-03-01 12:15:00,21.5,13.2,30.26,North,360,10.4,10.4,70,0.00,OVC,,0.00,171.0,WeatherDisplay:10.37,2014-03-01 18:15:00,
2014-03-01 12:16:00,21.4,13.1,30.26,NNW,338,5.8,5.8,70,0.00,OVC,,0.00,178.0,WeatherDisplay:10.37,2014-03-01 18:16:00,
2014-03-01 12:17:00,21.5,13.2,30.26,NNE,24,10.4,10.4,70,0.00,OVC,,0.00,178.0,WeatherDisplay:10.37,2014-03-01 18:17:00,
2014-03-01 12:19:00,21.4,12.8,30.26,North,351,13.8,13.8,69,0.00,OVC,,0.00,134.0,WeatherDisplay:10.37,2014-03-01 18:19:00,
2014-03-01 12:20:00,21.3,12.7,30.26,NNW,340,11.5,11.5,69,0.00,OVC,,0.00,144.0,WeatherDisplay:10.37,2014-03-01 18:20:00,
2014-03-01 12:21:00,21.2,12.6,30.26,NNE,28,11.5,11.5,69,0.00,OVC,,0.00,149.0,WeatherDisplay:10.37,2014-03-01 18:21:00,
2014-03-01 12:22:00,21.2,12.6,30.26,NNW,327,11.5,11.5,69,0.00,OVC,,0.00,149.0,WeatherDisplay:10.37,2014-03-01 18:22:00,
2014-03-01 12:24:00,21.1,12.5,30.26,NNW,345,9.2,9.2,69,0.00,OVC,,0.00,132.0,WeatherDisplay:10.37,2014-03-01 18:24:00,
2014-03-01 12:25:00,21.1,12.5,30.26,NNW,333,11.5,11.5,69,0.00,OVC,,0.00,137.0,WeatherDisplay:10.37,2014-03-01 18:25:00,
2014-03-01 12:26:00,21.1,12.5,30.26,North,360,11.5,11.5,69,0.00,OVC,,0.00,135.0,WeatherDisplay:10.37,2014-03-01 18:26:00,
2014-03-01 12:27:00,21.1,12.5,30.26,North,355,9.2,9.2,69,0.00,OVC,,0.00,134.0,WeatherDisplay:10.37,2014-03-01 18:27:00,
2014-03-01 12:29:00,21.0,12.4,30.26,NNW,330,9.2,9.2,69,0.00,OVC,,0.00,111.0,WeatherDisplay:10.37,2014-03-01 18:29:00,
2014-03-01 12:30:00,21.1,12.8,30.26,NW,326,5.8,5.8,70,0.00,OVC,,0.00,97.0,WeatherDisplay:10.37,2014-03-01 18:30:00,
2014-03-01 12:31:00,21.1,12.8,30.25,NW,322,9.2,9.2,70,0.00,OVC,,0.00,90.0,WeatherDisplay:10.37,2014-03-01 18:31:00,
2014-03-01 12:32:00,21.2,12.9,30.25,North,355,9.2,9.2,70,0.00,OVC,,0.00,91.0,WeatherDisplay:10.37,2014-03-01 18:32:00,
2014-03-01 12:34:00,21.1,12.5,30.24,NNE,32,12.7,12.7,69,0.00,OVC,,0.00,134.0,WeatherDisplay:10.37,2014-03-01 18:34:00,
2014-03-01 12:35:00,21.1,12.5,30.24,NNE,16,10.0,10.0,69,0.00,OVC,,0.00,144.0,WeatherDisplay:10.37,2014-03-01 18:35:00,
2014-03-01 12:36:00,21.0,12.4,30.23,NNW,338,10.4,10.4,69,0.00,OVC,,0.00,142.0,WeatherDisplay:10.37,2014-03-01 18:36:00,
2014-03-01 12:37:00,21.0,12.4,30.23,North,5,10.4,10.4,69,0.00,OVC,,0.00,144.0,WeatherDisplay:10.37,2014-03-01 18:37:00,
2014-03-01 12:39:00,20.9,12.6,30.24,North,360,11.5,11.5,70,0.00,OVC,,0.00,190.0,WeatherDisplay:10.37,2014-03-01 18:39:00,
2014-03-01 12:40:00,20.8,12.6,30.24,WNW,299,11.5,11.5,70,0.00,OVC,,0.00,195.0,WeatherDisplay:10.37,2014-03-01 18:40:00,
2014-03-01 12:41:00,20.8,12.6,30.24,NW,325,8.1,8.1,70,0.00,OVC,,0.00,176.0,WeatherDisplay:10.37,2014-03-01 18:41:00,
2014-03-01 12:42:00,20.9,12.6,30.24,North,5,8.1,8.1,70,0.00,OVC,,0.00,146.0,WeatherDisplay:10.37,2014-03-01 18:42:00,
2014-03-01 12:45:00,20.9,12.6,30.24,NW,321,8.1,8.1,70,0.00,OVC,,0.00,121.0,WeatherDisplay:10.37,2014-03-01 18:45:00,
2014-03-01 12:46:00,20.9,12.6,30.24,North,360,10.4,10.4,70,0.00,OVC,,0.00,120.0,WeatherDisplay:10.37,2014-03-01 18:46:00,
2014-03-01 12:47:00,20.9,12.6,30.24,NE,53,10.4,10.4,70,0.00,OVC,,0.00,114.0,WeatherDisplay:10.37,2014-03-01 18:47:00,
2014-03-01 12:50:00,20.9,13.0,30.24,NNE,33,9.2,9.2,71,0.00,OVC,,0.00,104.0,WeatherDisplay:10.37,2014-03-01 18:50:00,
2014-03-01 12:51:00,20.8,12.9,30.24,NNW,332,8.1,8.1,71,0.00,OVC,,0.00,104.0,WeatherDisplay:10.37,2014-03-01 18:51:00,
2014-03-01 12:52:00,20.8,12.9,30.24,NW,310,3.5,3.5,71,0.00,OVC,,0.00,104.0,WeatherDisplay:10.37,2014-03-01 18:52:00,
2014-03-01 12:53:00,20.8,12.9,30.24,NW,317,3.5,3.5,71,0.00,OVC,,0.00,127.0,WeatherDisplay:10.37,2014-03-01 18:53:00,
2014-03-01 12:55:00,20.9,13.3,30.25,NNW,331,8.1,8.1,72,0.00,OVC,,0.00,137.0,WeatherDisplay:10.37,2014-03-01 18:55:00,
2014-03-01 12:56:00,20.9,13.3,30.25,NNE,30,11.5,11.5,72,0.00,CLR,,0.00,135.0,WeatherDisplay:10.37,2014-03-01 18:56:00,
2014-03-01 12:57:00,20.9,13.0,30.25,NE,38,12.7,12.7,71,0.00,CLR,,0.00,134.0,WeatherDisplay:10.37,2014-03-01 18:57:00,
2014-03-01 12:58:00,20.8,12.6,30.25,WNW,296,12.7,12.7,70,0.00,CLR,,0.00,134.0,WeatherDisplay:10.37,2014-03-01 18:58:00,
2014-03-01 13:00:00,20.7,12.5,30.26,North,5,13.8,13.8,70,0.00,CLR,,0.00,114.0,WeatherDisplay:10.37,2014-03-01 19:00:00,
2014-03-01 13:02:00,20.6,12.4,30.26,NNW,334,9.2,9.2,70,0.00,CLR,,0.00,90.0,WeatherDisplay:10.37,2014-03-01 19:02:00,
2014-03-01 13:03:00,20.5,12.3,30.26,NNE,25,10.0,10.0,70,0.00,CLR,,0.00,139.0,WeatherDisplay:10.37,2014-03-01 19:03:00,
2014-03-01 13:05:00,20.4,12.5,30.26,NNW,335,10.4,10.4,71,0.00,CLR,,0.00,134.0,WeatherDisplay:10.37,2014-03-01 19:05:00,
2014-03-01 13:07:00,20.3,12.4,30.26,NNW,335,12.0,12.0,71,0.00,CLR,,0.00,146.0,WeatherDisplay:10.37,2014-03-01 19:07:00,
2014-03-01 13:08:00,20.3,12.4,30.26,NW,325,12.0,12.0,71,0.00,CLR,,0.00,146.0,WeatherDisplay:10.37,2014-03-01 19:08:00,
2014-03-01 13:09:00,20.2,12.3,30.25,NNW,340,11.5,11.5,71,0.00,CLR,,0.00,156.0,WeatherDisplay:10.37,2014-03-01 19:09:00,
2014-03-01 13:10:00,20.2,12.3,30.26,NE,43,8.1,8.1,71,0.00,CLR,,0.00,146.0,WeatherDisplay:10.37,2014-03-01 19:10:00,
2014-03-01 13:13:00,20.1,12.5,30.26,North,5,10.4,10.4,72,0.00,CLR,,0.00,127.0,WeatherDisplay:10.37,2014-03-01 19:13:00,
2014-03-01 13:14:00,20.1,12.2,30.26,NW,325,9.2,9.2,71,0.00,CLR,,0.00,118.0,WeatherDisplay:10.37,2014-03-01 19:14:00,
2014-03-01 13:15:00,20.1,12.2,30.26,NW,325,3.5,3.5,71,0.00,CLR,,0.00,118.0,WeatherDisplay:10.37,2014-03-01 19:15:00,
2014-03-01 13:18:00,20.1,12.5,30.25,NNE,27,6.0,6.0,72,0.00,CLR,,0.00,146.0,WeatherDisplay:10.37,2014-03-01 19:18:00,
2014-03-01 13:19:00,20.2,12.6,30.25,NNW,343,9.0,9.0,72,0.00,CLR,,0.00,139.0,WeatherDisplay:10.37,2014-03-01 19:19:00,
2014-03-01 13:20:00,20.2,12.6,30.25,NNW,327,12.7,12.7,72,0.00,CLR,,0.00,137.0,WeatherDisplay:10.37,2014-03-01 19:20:00,
2014-03-01 13:23:00,20.2,12.9,30.25,NE,40,6.9,6.9,73,0.00,CLR,,0.00,127.0,WeatherDisplay:10.37,2014-03-01 19:23:00,
2014-03-01 13:24:00,20.2,12.9,30.25,NNW,348,11.5,11.5,73,0.00,CLR,,0.00,123.0,WeatherDisplay:10.37,2014-03-01 19:24:00,
2014-03-01 13:26:00,20.3,13.0,30.25,NNW,348,11.5,11.5,73,0.00,CLR,,0.00,127.0,WeatherDisplay:10.37,2014-03-01 19:26:00,
2014-03-01 13:28:00,20.4,13.1,30.25,NNW,348,5.8,5.8,73,0.00,CLR,,0.00,123.0,WeatherDisplay:10.37,2014-03-01 19:28:00,
2014-03-01 13:29:00,20.4,13.1,30.25,NW,318,10.4,10.4,73,0.00,CLR,,0.00,132.0,WeatherDisplay:10.37,2014-03-01 19:29:00,
2014-03-01 13:30:00,20.5,13.2,30.25,NW,308,4.6,4.6,73,0.00,CLR,,0.00,118.0,WeatherDisplay:10.37,2014-03-01 19:30:00,
2014-03-01 13:31:00,20.5,13.2,30.25,NNW,336,5.0,5.0,73,0.00,CLR,,0.00,121.0,WeatherDisplay:10.37,2014-03-01 19:31:00,
2014-03-01 13:32:00,20.5,13.2,30.25,NW,313,17.3,17.3,73,0.00,CLR,,0.00,134.0,WeatherDisplay:10.37,2014-03-01 19:32:00,
2014-03-01 13:33:00,20.5,13.2,30.24,NNE,24,8.1,8.1,73,0.00,CLR,,0.00,128.0,WeatherDisplay:10.37,2014-03-01 19:33:00,
2014-03-01 13:34:00,20.5,12.9,30.24,NNE,20,8.1,8.1,72,0.00,CLR,,0.00,125.0,WeatherDisplay:10.37,2014-03-01 19:34:00,
2014-03-01 13:35:00,20.4,12.8,30.24,NE,55,11.5,11.5,72,0.00,CLR,,0.00,127.0,WeatherDisplay:10.37,2014-03-01 19:35:00,
2014-03-01 13:36:00,20.4,13.1,30.24,NNW,329,10.4,10.4,73,0.00,CLR,,0.00,132.0,WeatherDisplay:10.37,2014-03-01 19:36:00,
2014-03-01 13:37:00,20.3,13.0,30.24,NNE,22,10.4,10.4,73,0.00,CLR,,0.00,125.0,WeatherDisplay:10.37,2014-03-01 19:37:00,
2014-03-01 13:38:00,20.3,13.0,30.24,NW,321,5.8,5.8,73,0.00,CLR,,0.00,116.0,WeatherDisplay:10.37,2014-03-01 19:38:00,
2014-03-01 13:39:00,20.2,12.9,30.25,NW,315,11.5,11.5,73,0.00,CLR,,0.00,107.0,WeatherDisplay:10.37,2014-03-01 19:39:00,
2014-03-01 13:40:00,20.2,13.2,30.25,NNE,15,11.5,11.5,74,0.00,CLR,,0.00,107.0,WeatherDisplay:10.37,2014-03-01 19:40:00,
2014-03-01 13:41:00,20.1,13.1,30.25,NE,41,8.1,8.1,74,0.00,CLR,,0.00,107.0,WeatherDisplay:10.37,2014-03-01 19:41:00,
2014-03-01 13:42:00,20.1,13.1,30.25,NNE,16,10.4,10.4,74,0.00,CLR,,0.00,116.0,WeatherDisplay:10.37,2014-03-01 19:42:00,
2014-03-01 13:43:00,20.1,13.1,30.25,NNE,30,5.8,5.8,74,0.00,CLR,,0.00,111.0,WeatherDisplay:10.37,2014-03-01 19:43:00,
2014-03-01 13:44:00,20.1,13.1,30.25,NNW,335,8.1,8.1,74,0.00,CLR,,0.00,114.0,WeatherDisplay:10.37,2014-03-01 19:44:00,
2014-03-01 13:45:00,20.1,13.1,30.25,NNE,17,4.6,4.6,74,0.00,CLR,,0.00,125.0,WeatherDisplay:10.37,2014-03-01 19:45:00,
2014-03-01 13:46:00,20.2,13.5,30.25,North,355,11.5,11.5,75,0.00,CLR,,0.00,128.0,WeatherDisplay:10.37,2014-03-01 19:46:00,
2014-03-01 13:48:00,20.3,13.3,30.25,NNW,343,17.3,17.3,74,0.00,CLR,,0.00,123.0,WeatherDisplay:10.37,2014-03-01 19:48:00,
2014-03-01 13:49:00,20.1,12.8,30.25,NNE,13,12.7,12.7,73,0.00,CLR,,0.00,118.0,WeatherDisplay:10.37,2014-03-01 19:49:00,
2014-03-01 13:50:00,20.0,12.7,30.25,NNE,18,11.5,11.5,73,0.00,CLR,,0.00,118.0,WeatherDisplay:10.37,2014-03-01 19:50:00,
2014-03-01 13:51:00,19.9,12.6,30.25,North,360,10.4,10.4,73,0.00,CLR,,0.00,107.0,WeatherDisplay:10.37,2014-03-01 19:51:00,
2014-03-01 13:53:00,19.7,12.8,30.25,NNW,329,13.8,13.8,74,0.00,FEW,,0.00,107.0,WeatherDisplay:10.37,2014-03-01 19:53:00,
2014-03-01 13:54:00,19.7,12.8,30.25,NNW,338,13.8,13.8,74,0.00,FEW,,0.00,104.0,WeatherDisplay:10.37,2014-03-01 19:54:00,
2014-03-01 13:55:00,19.7,13.1,30.25,North,355,11.5,11.5,75,0.00,SCT,,0.00,105.0,WeatherDisplay:10.37,2014-03-01 19:55:00,
2014-03-01 13:56:00,19.6,13.0,30.25,NNW,344,11.5,11.5,75,0.00,SCT,,0.00,105.0,WeatherDisplay:10.37,2014-03-01 19:56:00,
2014-03-01 13:58:00,19.3,13.0,30.25,North,349,9.2,9.2,76,0.00,SCT,,0.00,107.0,WeatherDisplay:10.37,2014-03-01 19:58:00,
2014-03-01 13:59:00,19.2,12.9,30.25,North,355,5.8,5.8,76,0.00,SCT,,0.00,93.0,WeatherDisplay:10.37,2014-03-01 19:59:00,
2014-03-01 14:00:00,19.2,12.9,30.25,NNE,24,11.5,11.5,76,0.00,SCT,,0.00,93.0,WeatherDisplay:10.37,2014-03-01 20:00:00,
2014-03-01 14:01:00,19.1,13.1,30.25,NNW,336,8.1,8.1,77,0.00,SCT,,0.00,93.0,WeatherDisplay:10.37,2014-03-01 20:01:00,
2014-03-01 14:04:00,19.1,13.1,30.25,WNW,300,11.5,11.5,77,0.00,SCT,,0.00,91.0,WeatherDisplay:10.37,2014-03-01 20:04:00,
2014-03-01 14:05:00,19.0,13.0,30.25,NNW,345,10.0,10.0,77,0.00,SCT,,0.00,88.0,WeatherDisplay:10.37,2014-03-01 20:05:00,
2014-03-01 14:06:00,18.9,12.9,30.25,NE,49,10.4,10.4,77,0.00,SCT,,0.00,88.0,WeatherDisplay:10.37,2014-03-01 20:06:00,
2014-03-01 14:07:00,18.9,13.2,30.25,North,5,10.4,10.4,78,0.00,SCT,,0.00,88.0,WeatherDisplay:10.37,2014-03-01 20:07:00,
2014-03-01 14:09:00,18.9,13.2,30.24,North,360,8.1,8.1,78,0.00,BKN,,0.00,79.0,WeatherDisplay:10.37,2014-03-01 20:09:00,
2014-03-01 14:10:00,19.0,13.3,30.24,NE,43,10.4,10.4,78,0.00,BKN,,0.00,90.0,WeatherDisplay:10.37,2014-03-01 20:10:00,
2014-03-01 14:11:00,19.0,13.3,30.24,NNW,336,5.0,5.0,78,0.00,BKN,,0.00,90.0,WeatherDisplay:10.37,2014-03-01 20:11:00,
2014-03-01 14:12:00,19.0,13.3,30.24,North,349,11.5,11.5,78,0.00,BKN,,0.00,90.0,WeatherDisplay:10.37,2014-03-01 20:12:00,
2014-03-01 14:15:00,19.0,13.3,30.24,North,355,9.2,9.2,78,0.00,BKN,,0.00,77.0,WeatherDisplay:10.37,2014-03-01 20:15:00,
2014-03-01 14:16:00,19.0,13.3,30.24,NNW,339,9.2,9.2,78,0.00,BKN,,0.00,84.0,WeatherDisplay:10.37,2014-03-01 20:16:00,
2014-03-01 14:17:00,19.0,13.3,30.25,NW,318,11.5,11.5,78,0.00,BKN,,0.00,84.0,WeatherDisplay:10.37,2014-03-01 20:17:00,
2014-03-01 14:19:00,19.0,13.3,30.24,NE,38,12.7,12.7,78,0.00,BKN,,0.00,102.0,WeatherDisplay:10.37,2014-03-01 20:19:00,
2014-03-01 14:20:00,19.0,13.3,30.24,NW,312,13.8,13.8,78,0.00,BKN,,0.00,102.0,WeatherDisplay:10.37,2014-03-01 20:20:00,
2014-03-01 14:21:00,18.8,13.1,30.24,NNW,335,9.2,9.2,78,0.00,BKN,,0.00,88.0,WeatherDisplay:10.37,2014-03-01 20:21:00,
2014-03-01 14:22:00,18.8,13.4,30.24,North,355,5.8,5.8,79,0.00,BKN,,0.00,83.0,WeatherDisplay:10.37,2014-03-01 20:22:00,
2014-03-01 14:25:00,18.6,13.2,30.24,NNW,336,9.0,9.0,79,0.00,BKN,,0.00,72.0,WeatherDisplay:10.37,2014-03-01 20:25:00,
2014-03-01 14:27:00,18.5,13.1,30.24,NNE,18,11.5,11.5,79,0.00,BKN,,0.00,72.0,WeatherDisplay:10.37,2014-03-01 20:27:00,
2014-03-01 14:30:00,18.4,13.3,30.24,NNE,18,8.1,8.1,80,0.00,BKN,,0.00,60.0,WeatherDisplay:10.37,2014-03-01 20:30:00,
2014-03-01 14:31:00,18.3,13.2,30.24,NE,49,8.1,8.1,80,0.00,BKN,,0.00,60.0,WeatherDisplay:10.37,2014-03-01 20:31:00,
2014-03-01 14:32:00,18.3,13.2,30.24,NNW,334,8.1,8.1,80,0.00,BKN,,0.00,63.0,WeatherDisplay:10.37,2014-03-01 20:32:00,
2014-03-01 14:35:00,18.3,13.4,30.24,North,360,11.5,11.5,81,0.00,BKN,,0.00,74.0,WeatherDisplay:10.37,2014-03-01 20:35:00,
2014-03-01 14:36:00,18.3,13.4,30.24,North,360,11.5,11.5,81,0.00,BKN,,0.00,74.0,WeatherDisplay:10.37,2014-03-01 20:36:00,
2014-03-01 14:37:00,18.4,13.5,30.24,NNE,28,9.2,9.2,81,0.00,BKN,,0.00,81.0,WeatherDisplay:10.37,2014-03-01 20:37:00,
2014-03-01 14:38:00,18.3,13.7,30.24,NNW,346,6.9,6.9,82,0.00,BKN,,0.00,81.0,WeatherDisplay:10.37,2014-03-01 20:38:00,
2014-03-01 14:40:00,18.4,13.8,30.23,NNE,15,5.8,5.8,82,0.00,BKN,,0.00,74.0,WeatherDisplay:10.37,2014-03-01 20:40:00,
2014-03-01 14:41:00,18.4,13.8,30.23,NNW,328,5.8,5.8,82,0.00,BKN,,0.00,74.0,WeatherDisplay:10.37,2014-03-01 20:41:00,
2014-03-01 14:42:00,18.4,13.8,30.23,NNW,346,12.7,12.7,82,0.00,BKN,,0.00,74.0,WeatherDisplay:10.37,2014-03-01 20:42:00,
2014-03-01 14:43:00,18.5,13.9,30.24,NNE,26,6.9,6.9,82,0.00,BKN,,0.00,70.0,WeatherDisplay:10.37,2014-03-01 20:43:00,
2014-03-01 14:45:00,18.4,13.8,30.24,NE,42,9.0,9.0,82,0.00,BKN,,0.00,56.0,WeatherDisplay:10.37,2014-03-01 20:45:00,
2014-03-01 14:46:00,18.4,13.8,30.24,North,5,8.1,8.1,82,0.00,BKN,,0.00,56.0,WeatherDisplay:10.37,2014-03-01 20:46:00,
2014-03-01 14:47:00,18.4,13.8,30.24,NW,320,10.4,10.4,82,0.00,BKN,,0.00,54.0,WeatherDisplay:10.37,2014-03-01 20:47:00,
2014-03-01 14:48:00,18.4,13.8,30.24,North,5,10.4,10.4,82,0.00,BKN,,0.00,54.0,WeatherDisplay:10.37,2014-03-01 20:48:00,
2014-03-01 14:50:00,18.3,14.0,30.24,NW,324,3.5,3.5,83,0.00,BKN,,0.00,60.0,WeatherDisplay:10.37,2014-03-01 20:50:00,
2014-03-01 14:51:00,18.4,14.1,30.24,North,355,4.6,4.6,83,0.00,BKN,,0.00,58.0,WeatherDisplay:10.37,2014-03-01 20:51:00,
2014-03-01 14:52:00,18.4,14.1,30.24,NW,325,4.6,4.6,83,0.00,BKN,,0.00,54.0,WeatherDisplay:10.37,2014-03-01 20:52:00,
2014-03-01 14:53:00,18.4,14.1,30.24,NW,322,4.6,6.2,83,0.00,BKN,,0.00,54.0,WeatherDisplay:10.37,2014-03-01 20:53:00,
2014-03-01 14:56:00,18.2,13.9,30.24,North,9,11.5,11.5,83,0.00,BKN,,0.00,54.0,WeatherDisplay:10.37,2014-03-01 20:56:00,
2014-03-01 14:57:00,18.2,13.6,30.24,NNW,345,11.5,11.5,82,0.00,BKN,,0.00,58.0,WeatherDisplay:10.37,2014-03-01 20:57:00,
2014-03-01 14:58:00,18.2,13.6,30.24,NNE,19,12.0,12.0,82,0.00,BKN,,0.00,62.0,WeatherDisplay:10.37,2014-03-01 20:58:00,
2014-03-01 15:01:00,18.2,13.9,30.24,NNE,28,8.1,8.1,83,0.00,BKN,,0.00,58.0,WeatherDisplay:10.37,2014-03-01 21:01:00,
2014-03-01 15:02:00,18.2,13.9,30.24,NE,34,10.4,10.4,83,0.00,BKN,,0.00,63.0,WeatherDisplay:10.37,2014-03-01 21:02:00,
2014-03-01 15:03:00,18.2,13.9,30.24,NW,313,10.4,10.4,83,0.00,BKN,,0.00,72.0,WeatherDisplay:10.37,2014-03-01 21:03:00,
2014-03-01 15:04:00,18.1,13.5,30.24,NNW,331,11.5,11.5,82,0.00,BKN,,0.00,76.0,WeatherDisplay:10.37,2014-03-01 21:04:00,
2014-03-01 15:06:00,18.0,13.4,30.24,NE,38,11.5,11.5,82,0.00,BKN,,0.00,76.0,WeatherDisplay:10.37,2014-03-01 21:06:00,
2014-03-01 15:07:00,18.0,13.4,30.24,North,350,5.8,5.8,82,0.00,BKN,,0.00,76.0,WeatherDisplay:10.37,2014-03-01 21:07:00,
2014-03-01 15:08:00,18.0,13.4,30.24,NNW,339,5.8,5.8,82,0.00,BKN,,0.00,72.0,WeatherDisplay:10.37,2014-03-01 21:08:00,
2014-03-01 15:09:00,17.9,13.3,30.24,NNE,19,11.5,11.5,82,0.00,BKN,,0.00,72.0,WeatherDisplay:10.37,2014-03-01 21:09:00,
2014-03-01 15:12:00,17.9,13.3,30.24,NNE,28,13.8,13.8,82,0.00,BKN,,0.00,56.0,WeatherDisplay:10.37,2014-03-01 21:12:00,
2014-03-01 15:13:00,17.9,13.3,30.24,NNE,13,11.5,11.5,82,0.00,BKN,,0.00,51.0,WeatherDisplay:10.37,2014-03-01 21:13:00,
2014-03-01 15:14:00,17.8,13.2,30.24,North,349,3.5,3.5,82,0.00,BKN,,0.00,54.0,WeatherDisplay:10.37,2014-03-01 21:14:00,
2014-03-01 15:17:00,17.9,13.3,30.24,NW,316,13.8,13.8,82,0.00,BKN,,0.00,69.0,WeatherDisplay:10.37,2014-03-01 21:17:00,
2014-03-01 15:18:00,17.9,13.3,30.24,NW,316,3.5,4.1,82,0.00,BKN,,0.00,69.0,WeatherDisplay:10.37,2014-03-01 21:18:00,
2014-03-01 15:19:00,17.7,13.1,30.24,North,350,3.5,4.0,82,0.00,BKN,,0.00,79.0,WeatherDisplay:10.37,2014-03-01 21:19:00,
2014-03-01 15:20:00,17.7,13.1,30.24,NE,34,10.0,10.0,82,0.00,BKN,,0.00,77.0,WeatherDisplay:10.37,2014-03-01 21:20:00,
2014-03-01 15:22:00,17.7,13.1,30.24,NNW,328,8.1,8.1,82,0.00,BKN,,0.00,69.0,WeatherDisplay:10.37,2014-03-01 21:22:00,
2014-03-01 15:23:00,17.7,13.1,30.24,WNW,301,9.2,9.2,82,0.00,BKN,,0.00,65.0,WeatherDisplay:10.37,2014-03-01 21:23:00,
2014-03-01 15:24:00,17.7,13.1,30.24,NNE,27,10.0,10.0,82,0.00,BKN,,0.00,63.0,WeatherDisplay:10.37,2014-03-01 21:24:00,
2014-03-01 15:25:00,17.7,13.1,30.25,North,355,10.4,10.4,82,0.00,BKN,,0.00,56.0,WeatherDisplay:10.37,2014-03-01 21:25:00,
2014-03-01 15:28:00,17.7,13.1,30.25,NNE,22,9.2,9.2,82,0.00,BKN,,0.00,46.0,WeatherDisplay:10.37,2014-03-01 21:28:00,
2014-03-01 15:29:00,17.7,13.1,30.26,NNE,12,11.5,11.5,82,0.00,BKN,,0.00,46.0,WeatherDisplay:10.37,2014-03-01 21:29:00,
2014-03-01 15:31:00,17.6,13.0,30.26,North,9,15.0,15.0,82,0.00,BKN,,0.00,49.0,WeatherDisplay:10.37,2014-03-01 21:31:00,
2014-03-01 15:33:00,17.5,12.9,30.26,ENE,61,15.0,15.0,82,0.00,BKN,,0.00,67.0,WeatherDisplay:10.37,2014-03-01 21:33:00,
2014-03-01 15:34:00,17.5,12.9,30.26,NW,320,15.0,15.0,82,0.00,BKN,,0.00,77.0,WeatherDisplay:10.37,2014-03-01 21:34:00,
2014-03-01 15:35:00,17.5,12.9,30.26,North,9,9.2,9.2,82,0.00,BKN,,0.00,84.0,WeatherDisplay:10.37,2014-03-01 21:35:00,
2014-03-01 15:36:00,17.5,12.9,30.26,North,360,10.4,10.4,82,0.00,BKN,,0.00,86.0,WeatherDisplay:10.37,2014-03-01 21:36:00,
2014-03-01 15:38:00,17.5,13.2,30.26,WNW,303,9.2,9.2,83,0.00,BKN,,0.00,74.0,WeatherDisplay:10.37,2014-03-01 21:38:00,
2014-03-01 15:40:00,17.5,13.2,30.25,NNW,330,10.4,10.4,83,0.00,BKN,,0.00,63.0,WeatherDisplay:10.37,2014-03-01 21:40:00,
2014-03-01 15:41:00,17.5,12.9,30.25,NNW,332,12.7,12.7,82,0.00,BKN,,0.00,67.0,WeatherDisplay:10.37,2014-03-01 21:41:00,
2014-03-01 15:43:00,17.5,13.2,30.25,NE,34,9.2,9.2,83,0.00,BKN,,0.00,69.0,WeatherDisplay:10.37,2014-03-01 21:43:00,
2014-03-01 15:45:00,17.5,13.2,30.25,NNE,12,12.7,12.7,83,0.00,BKN,,0.00,56.0,WeatherDisplay:10.37,2014-03-01 21:45:00,
2014-03-01 15:46:00,17.5,13.2,30.25,NNE,27,8.1,8.1,83,0.00,BKN,,0.00,51.0,WeatherDisplay:10.37,2014-03-01 21:46:00,
2014-03-01 15:48:00,17.5,13.2,30.25,NNE,27,3.5,3.5,83,0.00,BKN,,0.00,51.0,WeatherDisplay:10.37,2014-03-01 21:48:00,
2014-03-01 15:49:00,17.5,13.2,30.25,NNE,27,3.5,3.5,83,0.00,BKN,,0.00,51.0,WeatherDisplay:10.37,2014-03-01 21:49:00,
2014-03-01 15:50:00,17.4,13.1,30.25,NNE,19,5.0,5.0,83,0.00,BKN,,0.00,42.0,WeatherDisplay:10.37,2014-03-01 21:50:00,
2014-03-01 15:51:00,17.4,13.1,30.25,North,5,11.5,11.5,83,0.00,BKN,,0.00,42.0,WeatherDisplay:10.37,2014-03-01 21:51:00,
2014-03-01 15:53:00,17.4,13.1,30.25,NNE,18,11.5,11.5,83,0.00,BKN,,0.00,37.0,WeatherDisplay:10.37,2014-03-01 21:53:00,
2014-03-01 15:54:00,17.4,13.1,30.25,NNW,338,12.0,12.0,83,0.00,BKN,,0.00,37.0,WeatherDisplay:10.37,2014-03-01 21:54:00,
2014-03-01 15:55:00,17.4,13.1,30.25,NNE,19,10.4,10.4,83,0.00,BKN,,0.00,35.0,WeatherDisplay:10.37,2014-03-01 21:55:00,
2014-03-01 15:57:00,17.3,13.0,30.25,NNE,19,9.2,9.2,83,0.00,BKN,,0.00,39.0,WeatherDisplay:10.37,2014-03-01 21:57:00,
2014-03-01 15:58:00,17.3,13.0,30.24,WNW,300,10.4,10.4,83,0.00,BKN,,0.00,44.0,WeatherDisplay:10.37,2014-03-01 21:58:00,
2014-03-01 15:59:00,17.3,13.3,30.24,NE,34,10.4,10.4,84,0.00,BKN,,0.00,44.0,WeatherDisplay:10.37,2014-03-01 21:59:00,
2014-03-01 16:00:00,17.3,13.3,30.24,NNW,347,9.2,9.2,84,0.00,BKN,,0.00,53.0,WeatherDisplay:10.37,2014-03-01 22:00:00,
2014-03-01 16:02:00,17.3,13.3,30.24,NNE,33,4.6,4.6,84,0.00,BKN,,0.00,53.0,WeatherDisplay:10.37,2014-03-01 22:02:00,
2014-03-01 16:03:00,17.3,13.3,30.24,WNW,298,9.2,9.2,84,0.00,BKN,,0.00,53.0,WeatherDisplay:10.37,2014-03-01 22:03:00,
2014-03-01 16:04:00,17.3,13.3,30.24,NNW,340,9.2,9.2,84,0.00,BKN,,0.00,49.0,WeatherDisplay:10.37,2014-03-01 22:04:00,
2014-03-01 16:06:00,17.3,13.6,30.24,NE,35,9.2,9.2,85,0.00,BKN,,0.00,40.0,WeatherDisplay:10.37,2014-03-01 22:06:00,
2014-03-01 16:07:00,17.3,13.3,30.24,North,355,11.5,11.5,84,0.00,BKN,,0.00,47.0,WeatherDisplay:10.37,2014-03-01 22:07:00,
2014-03-01 16:08:00,17.2,13.2,30.24,NW,323,9.2,9.2,84,0.00,BKN,,0.00,47.0,WeatherDisplay:10.37,2014-03-01 22:08:00,
2014-03-01 16:09:00,17.2,13.5,30.24,North,355,6.9,6.9,85,0.00,BKN,,0.00,49.0,WeatherDisplay:10.37,2014-03-01 22:09:00,
2014-03-01 16:11:00,17.2,13.5,30.24,North,11,9.2,9.2,85,0.00,BKN,,0.00,54.0,WeatherDisplay:10.37,2014-03-01 22:11:00,
2014-03-01 16:12:00,17.1,13.4,30.24,NW,319,10.4,10.4,85,0.00,BKN,,0.00,46.0,WeatherDisplay:10.37,2014-03-01 22:12:00,
2014-03-01 16:13:00,17.1,13.4,30.24,North,355,11.5,11.5,85,0.00,BKN,,0.00,42.0,WeatherDisplay:10.37,2014-03-01 22:13:00,
2014-03-01 16:14:00,17.0,13.3,30.24,NNW,331,10.4,10.4,85,0.00,BKN,,0.00,42.0,WeatherDisplay:10.37,2014-03-01 22:14:00,
2014-03-01 16:15:00,17.0,13.3,30.24,NNE,17,10.4,10.4,85,0.00,BKN,,0.00,39.0,WeatherDisplay:10.37,2014-03-01 22:15:00,
2014-03-01 16:16:00,16.9,13.2,30.24,NNE,20,11.5,11.5,85,0.00,BKN,,0.00,35.0,WeatherDisplay:10.37,2014-03-01 22:16:00,
2014-03-01 16:17:00,16.9,13.2,30.25,North,9,10.4,10.4,85,0.00,BKN,,0.00,33.0,WeatherDisplay:10.37,2014-03-01 22:17:00,
2014-03-01 16:18:00,16.9,13.4,30.24,NNW,342,4.0,4.0,86,0.00,BKN,,0.00,32.0,WeatherDisplay:10.37,2014-03-01 22:18:00,
2014-03-01 16:19:00,16.8,13.3,30.25,North,360,9.0,9.0,86,0.00,BKN,,0.00,32.0,WeatherDisplay:10.37,2014-03-01 22:19:00,
2014-03-01 16:20:00,16.8,13.3,30.25,NNE,26,8.1,8.1,86,0.00,BKN,,0.00,30.0,WeatherDisplay:10.37,2014-03-01 22:20:00,
2014-03-01 16:22:00,16.7,13.2,30.25,NE,44,13.8,13.8,86,0.00,OVC,,0.00,25.0,WeatherDisplay:10.37,2014-03-01 22:22:00,
2014-03-01 16:24:00,16.6,13.1,30.25,North,5,10.4,10.4,86,0.00,OVC,,0.00,25.0,WeatherDisplay:10.37,2014-03-01 22:24:00,
2014-03-01 16:25:00,16.5,13.0,30.25,NNW,339,9.2,9.2,86,0.00,OVC,,0.00,26.0,WeatherDisplay:10.37,2014-03-01 22:25:00,
2014-03-01 16:27:00,16.4,12.9,30.25,NNW,348,10.4,10.4,86,0.00,OVC,,0.00,23.0,WeatherDisplay:10.37,2014-03-01 22:27:00,
2014-03-01 16:29:00,16.4,12.9,30.24,NNW,335,4.6,4.6,86,0.00,OVC,,0.00,26.0,WeatherDisplay:10.37,2014-03-01 22:29:00,
2014-03-01 16:30:00,16.3,13.1,30.24,NNW,347,6.9,6.9,87,0.00,OVC,,0.00,28.0,WeatherDisplay:10.37,2014-03-01 22:30:00,
2014-03-01 16:32:00,16.3,13.1,30.24,NNE,15,10.4,10.4,87,0.00,OVC,,0.00,28.0,WeatherDisplay:10.37,2014-03-01 22:32:00,
2014-03-01 16:33:00,16.3,13.1,30.24,NNE,16,8.1,8.1,87,0.00,OVC,,0.00,32.0,WeatherDisplay:10.37,2014-03-01 22:33:00,
2014-03-01 16:35:00,16.3,13.1,30.24,NE,55,7.0,7.0,87,0.00,OVC,,0.00,32.0,WeatherDisplay:10.37,2014-03-01 22:35:00,
2014-03-01 16:36:00,16.3,13.1,30.24,NW,325,10.4,10.4,87,0.00,OVC,,0.00,33.0,WeatherDisplay:10.37,2014-03-01 22:36:00,
2014-03-01 16:37:00,16.3,13.4,30.24,North,355,10.0,10.0,88,0.00,BKN,,0.00,28.0,WeatherDisplay:10.37,2014-03-01 22:37:00,
2014-03-01 16:38:00,16.2,13.0,30.24,North,9,15.0,15.0,87,0.00,OVC,,0.00,28.0,WeatherDisplay:10.37,2014-03-01 22:38:00,
2014-03-01 16:40:00,16.2,13.0,30.24,NNE,24,12.7,12.7,87,0.00,OVC,,0.00,21.0,WeatherDisplay:10.37,2014-03-01 22:40:00,
2014-03-01 16:41:00,16.2,13.0,30.24,NNW,339,9.2,9.2,87,0.00,OVC,,0.00,23.0,WeatherDisplay:10.37,2014-03-01 22:41:00,
2014-03-01 16:42:00,16.1,13.2,30.24,WNW,292,8.1,8.1,88,0.00,OVC,,0.00,16.0,WeatherDisplay:10.37,2014-03-01 22:42:00,
2014-03-01 16:43:00,16.1,13.2,30.25,NNE,22,9.2,9.2,88,0.00,OVC,,0.00,16.0,WeatherDisplay:10.37,2014-03-01 22:43:00,
2014-03-01 16:45:00,16.1,13.2,30.25,NW,311,10.4,10.4,88,0.00,OVC,,0.00,18.0,WeatherDisplay:10.37,2014-03-01 22:45:00,
2014-03-01 16:46:00,16.1,13.2,30.25,NNE,32,4.6,4.6,88,0.00,OVC,,0.00,14.0,WeatherDisplay:10.37,2014-03-01 22:46:00,
2014-03-01 16:48:00,16.1,13.2,30.25,North,5,8.1,8.1,88,0.00,OVC,,0.00,14.0,WeatherDisplay:10.37,2014-03-01 22:48:00,
2014-03-01 16:50:00,16.0,13.1,30.25,NNW,348,12.7,12.7,88,0.00,OVC,,0.00,14.0,WeatherDisplay:10.37,2014-03-01 22:50:00,
2014-03-01 16:51:00,16.0,13.1,30.25,NW,324,12.7,12.7,88,0.00,OVC,,0.00,16.0,WeatherDisplay:10.37,2014-03-01 22:51:00,
2014-03-01 16:53:00,15.9,13.0,30.25,NE,45,11.5,11.5,88,0.00,OVC,,0.00,16.0,WeatherDisplay:10.37,2014-03-01 22:53:00,
2014-03-01 16:55:00,15.8,12.9,30.25,NE,41,4.0,4.0,88,0.00,OVC,,0.00,14.0,WeatherDisplay:10.37,2014-03-01 22:55:00,
2014-03-01 16:56:00,15.8,12.9,30.25,NE,38,11.5,11.5,88,0.00,OVC,,0.00,14.0,WeatherDisplay:10.37,2014-03-01 22:56:00,
2014-03-01 16:57:00,15.8,13.1,30.25,NNW,339,11.5,11.5,89,0.00,OVC,,0.00,14.0,WeatherDisplay:10.37,2014-03-01 22:57:00,
2014-03-01 16:59:00,15.8,12.9,30.26,NNE,17,12.7,12.7,88,0.00,OVC,,0.00,16.0,WeatherDisplay:10.37,2014-03-01 22:59:00,
2014-03-01 17:00:00,15.8,12.9,30.26,NNW,345,15.0,15.0,88,0.00,CLR,,0.00,18.0,WeatherDisplay:10.37,2014-03-01 23:00:00,
2014-03-01 17:02:00,15.8,12.9,30.26,NNE,12,9.0,9.0,88,0.00,CLR,,0.00,19.0,WeatherDisplay:10.37,2014-03-01 23:02:00,
2014-03-01 17:04:00,15.7,12.8,30.26,NNW,332,13.8,13.8,88,0.00,CLR,,0.00,19.0,WeatherDisplay:10.37,2014-03-01 23:04:00,
2014-03-01 17:05:00,15.7,12.8,30.26,ENE,72,13.8,13.8,88,0.00,CLR,,0.00,18.0,WeatherDisplay:10.37,2014-03-01 23:05:00,
2014-03-01 17:07:00,15.7,13.0,30.25,NNW,341,11.5,11.5,89,0.00,CLR,,0.00,16.0,WeatherDisplay:10.37,2014-03-01 23:07:00,
2014-03-01 17:08:00,15.6,12.9,30.26,NNE,28,9.2,9.2,89,0.00,CLR,,0.00,14.0,WeatherDisplay:10.37,2014-03-01 23:08:00,
2014-03-01 17:10:00,15.6,12.9,30.25,North,355,4.6,4.6,89,0.00,CLR,,0.00,14.0,WeatherDisplay:10.37,2014-03-01 23:10:00,
2014-03-01 17:12:00,15.6,12.9,30.26,NNW,329,11.5,11.5,89,0.00,CLR,,0.00,18.0,WeatherDisplay:10.37,2014-03-01 23:12:00,
2014-03-01 17:13:00,15.6,12.9,30.26,NNW,334,11.5,11.5,89,0.00,CLR,,0.00,18.0,WeatherDisplay:10.37,2014-03-01 23:13:00,
2014-03-01 17:15:00,15.5,12.8,30.25,NNW,344,10.4,10.4,89,0.00,CLR,,0.00,18.0,WeatherDisplay:10.37,2014-03-01 23:15:00,
2014-03-01 17:18:00,15.5,12.8,30.24,NNE,28,11.5,11.5,89,0.00,CLR,,0.00,16.0,WeatherDisplay:10.37,2014-03-01 23:18:00,
2014-03-01 17:19:00,15.5,12.8,30.24,North,5,11.5,11.5,89,0.00,CLR,,0.00,18.0,WeatherDisplay:10.37,2014-03-01 23:19:00,
2014-03-01 17:20:00,15.5,12.8,30.24,North,5,11.5,11.5,89,0.00,CLR,,0.00,18.0,WeatherDisplay:10.37,2014-03-01 23:20:00,
2014-03-01 17:21:00,15.5,12.8,30.24,NE,35,11.5,11.5,89,0.00,CLR,,0.00,16.0,WeatherDisplay:10.37,2014-03-01 23:21:00,
2014-03-01 17:23:00,15.5,12.8,30.24,North,355,5.0,5.0,89,0.00,CLR,,0.00,16.0,WeatherDisplay:10.37,2014-03-01 23:23:00,
2014-03-01 17:24:00,15.5,12.8,30.24,NNW,345,9.2,9.2,89,0.00,CLR,,0.00,14.0,WeatherDisplay:10.37,2014-03-01 23:24:00,
2014-03-01 17:25:00,15.5,12.8,30.24,North,9,4.6,4.6,89,0.00,CLR,,0.00,14.0,WeatherDisplay:10.37,2014-03-01 23:25:00,
2014-03-01 17:26:00,15.5,12.8,30.25,NE,34,10.0,10.0,89,0.00,CLR,,0.00,11.0,WeatherDisplay:10.37,2014-03-01 23:26:00,
2014-03-01 17:28:00,15.5,12.8,30.25,North,355,10.4,10.4,89,0.00,CLR,,0.00,11.0,WeatherDisplay:10.37,2014-03-01 23:28:00,
2014-03-01 17:29:00,15.5,12.8,30.25,North,355,9.2,9.2,89,0.00,CLR,,0.00,11.0,WeatherDisplay:10.37,2014-03-01 23:29:00,
2014-03-01 17:31:00,15.5,12.8,30.25,NNE,13,9.2,9.2,89,0.00,CLR,,0.00,9.0,WeatherDisplay:10.37,2014-03-01 23:31:00,
2014-03-01 17:33:00,15.5,12.8,30.25,North,355,11.5,11.5,89,0.00,CLR,,0.00,9.0,WeatherDisplay:10.37,2014-03-01 23:33:00,
2014-03-01 17:34:00,15.5,12.8,30.25,NNW,340,9.2,9.2,89,0.00,CLR,,0.00,9.0,WeatherDisplay:10.37,2014-03-01 23:34:00,
2014-03-01 17:36:00,15.5,12.8,30.25,NNW,348,4.6,4.6,89,0.00,CLR,,0.00,7.0,WeatherDisplay:10.37,2014-03-01 23:36:00,
2014-03-01 17:39:00,15.5,12.8,30.25,North,355,5.8,5.8,89,0.00,CLR,,0.00,7.0,WeatherDisplay:10.37,2014-03-01 23:39:00,
2014-03-01 17:41:00,15.5,12.8,30.26,NNW,343,3.5,3.5,89,0.00,CLR,,0.00,5.0,WeatherDisplay:10.37,2014-03-01 23:41:00,
2014-03-01 17:42:00,15.5,12.8,30.26,North,355,3.5,3.5,89,0.00,CLR,,0.00,5.0,WeatherDisplay:10.37,2014-03-01 23:42:00,
2014-03-01 17:44:00,15.6,12.9,30.27,NNE,16,5.8,5.8,89,0.00,CLR,,0.00,0.0,WeatherDisplay:10.37,2014-03-01 23:44:00,
2014-03-01 17:46:00,15.6,12.9,30.26,North,5,9.2,9.2,89,0.00,CLR,,0.00,0.0,WeatherDisplay:10.37,2014-03-01 23:46:00,
2014-03-01 17:47:00,15.5,12.8,30.26,NNE,17,9.2,9.2,89,0.00,CLR,,0.00,0.0,WeatherDisplay:10.37,2014-03-01 23:47:00,
2014-03-01 17:48:00,15.5,12.8,30.26,North,5,9.2,9.2,89,0.00,CLR,,0.00,0.0,WeatherDisplay:10.37,2014-03-01 23:48:00,
2014-03-01 17:49:00,15.6,12.9,30.26,NNE,23,9.2,9.2,89,0.00,CLR,,0.00,0.0,WeatherDisplay:10.37,2014-03-01 23:49:00,
2014-03-01 17:50:00,15.6,12.9,30.26,NNW,334,11.5,11.5,89,0.00,CLR,,0.00,0.0,WeatherDisplay:10.37,2014-03-01 23:50:00,
2014-03-01 17:51:00,15.5,12.8,30.26,NNE,13,11.5,11.5,89,0.00,CLR,,0.00,0.0,WeatherDisplay:10.37,2014-03-01 23:51:00,
2014-03-01 17:53:00,15.4,12.7,30.26,NNW,332,12.7,12.7,89,0.00,CLR,,0.00,0.0,WeatherDisplay:10.37,2014-03-01 23:53:00,
2014-03-01 17:54:00,15.4,12.7,30.26,NNW,344,13.8,13.8,89,0.00,CLR,,0.00,0.0,WeatherDisplay:10.37,2014-03-01 23:54:00,
2014-03-01 17:55:00,15.3,12.6,30.26,NNW,336,6.9,6.9,89,0.00,CLR,,0.00,0.0,WeatherDisplay:10.37,2014-03-01 23:55:00,
2014-03-01 17:57:00,15.2,12.5,30.26,NNW,329,6.9,6.9,89,0.00,CLR,,0.00,0.0,WeatherDisplay:10.37,2014-03-01 23:57:00,
2014-03-01 17:58:00,15.2,12.5,30.26,NNW,330,8.1,8.1,89,0.00,CLR,,0.00,0.0,WeatherDisplay:10.37,2014-03-01 23:58:00,
2014-03-01 17:59:00,15.1,12.4,30.26,NE,39,13.0,13.0,89,0.00,CLR,,0.00,5.0,WeatherDisplay:10.37,2014-03-01 23:59:00,
2014-03-01 18:00:00,15.1,12.4,30.27,NNE,15,13.0,13.0,89,0.00,CLR,,0.00,0.0,WeatherDisplay:10.37,2014-03-02 00:00:00,
2014-03-01 18:01:00,15.1,12.4,30.27,NNE,19,12.7,12.7,89,0.00,CLR,,0.00,0.0,WeatherDisplay:10.37,2014-03-02 00:01:00,
2014-03-01 18:02:00,15.1,12.4,30.27,NE,49,5.8,5.8,89,0.00,CLR,,0.00,0.0,WeatherDisplay:10.37,2014-03-02 00:02:00,
2014-03-01 18:03:00,15.0,12.3,30.27,North,355,9.2,9.2,89,0.00,CLR,,0.00,0.0,WeatherDisplay:10.37,2014-03-02 00:03:00,
2014-03-01 18:04:00,15.0,12.3,30.27,NE,39,11.5,11.5,89,0.00,CLR,,0.00,0.0,WeatherDisplay:10.37,2014-03-02 00:04:00,
2014-03-01 18:06:00,15.0,12.3,30.28,North,5,9.2,9.2,89,0.00,CLR,,0.00,0.0,WeatherDisplay:10.37,2014-03-02 00:06:00,
2014-03-01 18:07:00,14.9,12.2,30.27,North,349,10.0,10.0,89,0.00,CLR,,0.00,0.0,WeatherDisplay:10.37,2014-03-02 00:07:00,
2014-03-01 18:09:00,14.8,11.9,30.28,North,5,15.0,15.0,88,0.00,CLR,,0.00,0.0,WeatherDisplay:10.37,2014-03-02 00:09:00,
2014-03-01 18:10:00,14.8,11.9,30.28,North,5,15.0,15.0,88,0.00,CLR,,0.00,0.0,WeatherDisplay:10.37,2014-03-02 00:10:00,
2014-03-01 18:11:00,14.8,11.9,30.28,NE,36,7.0,7.0,88,0.00,CLR,,0.00,0.0,WeatherDisplay:10.37,2014-03-02 00:11:00,
2014-03-01 18:12:00,14.8,11.9,30.28,NW,324,6.9,6.9,88,0.00,CLR,,0.00,0.0,WeatherDisplay:10.37,2014-03-02 00:12:00,
2014-03-01 18:14:00,14.8,12.1,30.29,North,349,11.5,11.5,89,0.00,CLR,,0.00,0.0,WeatherDisplay:10.37,2014-03-02 00:14:00,
2014-03-01 18:15:00,14.8,12.1,30.28,North,351,11.5,11.5,89,0.00,CLR,,0.00,0.0,WeatherDisplay:10.37,2014-03-02 00:15:00,
2014-03-01 18:16:00,14.8,11.9,30.29,NNE,32,9.0,9.0,88,0.00,CLR,,0.00,0.0,WeatherDisplay:10.37,2014-03-02 00:16:00,
2014-03-01 18:17:00,14.7,12.0,30.28,NNW,331,9.2,9.2,89,0.00,CLR,,0.00,0.0,WeatherDisplay:10.37,2014-03-02 00:17:00,
2014-03-01 18:20:00,14.6,11.7,30.29,NNW,330,13.8,13.8,88,0.00,CLR,,0.00,0.0,WeatherDisplay:10.37,2014-03-02 00:20:00,
2014-03-01 18:21:00,14.6,11.7,30.29,NE,41,15.0,15.0,88,0.00,CLR,,0.00,0.0,WeatherDisplay:10.37,2014-03-02 00:21:00,
2014-03-01 18:22:00,14.5,11.6,30.30,NW,306,11.5,11.5,88,0.00,CLR,,0.00,0.0,WeatherDisplay:10.37,2014-03-02 00:22:00,
2014-03-01 18:25:00,14.5,11.6,30.29,NNE,32,8.1,8.1,88,0.00,CLR,,0.00,0.0,WeatherDisplay:10.37,2014-03-02 00:25:00,
2014-03-01 18:26:00,14.4,11.5,30.30,NNW,347,11.5,11.5,88,0.00,CLR,,0.00,0.0,WeatherDisplay:10.37,2014-03-02 00:26:00,
2014-03-01 18:28:00,14.4,11.5,30.29,NNE,19,11.5,11.5,88,0.00,CLR,,0.00,0.0,WeatherDisplay:10.37,2014-03-02 00:28:00,
2014-03-01 18:30:00,14.4,11.5,30.29,North,355,14.0,14.0,88,0.00,CLR,,0.00,0.0,WeatherDisplay:10.37,2014-03-02 00:30:00,
2014-03-01 18:31:00,14.3,11.4,30.29,NNE,13,13.8,13.8,88,0.00,CLR,,0.00,0.0,WeatherDisplay:10.37,2014-03-02 00:31:00,
2014-03-01 18:32:00,14.2,11.3,30.29,NNW,339,11.5,11.5,88,0.00,CLR,,0.00,0.0,WeatherDisplay:10.37,2014-03-02 00:32:00,
2014-03-01 18:33:00,14.2,11.3,30.29,NNE,12,15.0,15.0,88,0.00,CLR,,0.00,0.0,WeatherDisplay:10.37,2014-03-02 00:33:00,
2014-03-01 18:35:00,14.1,11.2,30.29,NNE,13,10.4,10.4,88,0.00,CLR,,0.00,0.0,WeatherDisplay:10.37,2014-03-02 00:35:00,
2014-03-01 18:36:00,14.1,11.2,30.29,North,5,10.4,10.4,88,0.00,CLR,,0.00,0.0,WeatherDisplay:10.37,2014-03-02 00:36:00,
2014-03-01 18:37:00,14.1,11.2,30.29,NNW,339,5.8,5.8,88,0.00,CLR,,0.00,0.0,WeatherDisplay:10.37,2014-03-02 00:37:00,
2014-03-01 18:38:00,14.1,11.2,30.29,NNE,19,11.5,11.5,88,0.00,CLR,,0.00,0.0,WeatherDisplay:10.37,2014-03-02 00:38:00,
2014-03-01 18:40:00,14.0,11.1,30.29,NNE,24,11.5,11.5,88,0.00,CLR,,0.00,0.0,WeatherDisplay:10.37,2014-03-02 00:40:00,
2014-03-01 18:41:00,14.1,11.2,30.29,North,355,8.1,8.1,88,0.00,CLR,,0.00,0.0,WeatherDisplay:10.37,2014-03-02 00:41:00,
2014-03-01 18:42:00,14.0,11.1,30.30,NNW,329,10.4,10.4,88,0.00,CLR,,0.00,0.0,WeatherDisplay:10.37,2014-03-02 00:42:00,
2014-03-01 18:43:00,14.0,11.1,30.30,NNW,345,10.4,10.4,88,0.00,CLR,,0.00,0.0,WeatherDisplay:10.37,2014-03-02 00:43:00,
2014-03-01 18:46:00,13.9,11.0,30.30,NW,323,16.1,16.1,88,0.00,CLR,,0.00,0.0,WeatherDisplay:10.37,2014-03-02 00:46:00,
2014-03-01 18:47:00,13.7,10.8,30.30,North,360,9.2,9.2,88,0.00,CLR,,0.00,0.0,WeatherDisplay:10.37,2014-03-02 00:47:00,
2014-03-01 18:48:00,13.7,10.8,30.30,NE,34,9.2,9.2,88,0.00,CLR,,0.00,0.0,WeatherDisplay:10.37,2014-03-02 00:48:00,
2014-03-01 18:49:00,13.7,10.8,30.30,North,355,9.2,9.2,88,0.00,CLR,,0.00,0.0,WeatherDisplay:10.37,2014-03-02 00:49:00,
2014-03-01 18:51:00,13.7,10.8,30.30,NNW,346,6.0,7.2,88,0.00,CLR,,0.00,0.0,WeatherDisplay:10.37,2014-03-02 00:51:00,
2014-03-01 18:52:00,13.7,10.8,30.29,NNE,20,8.0,8.0,88,0.00,CLR,,0.00,0.0,WeatherDisplay:10.37,2014-03-02 00:52:00,
2014-03-01 18:53:00,13.7,10.8,30.29,North,360,15.0,15.0,88,0.00,CLR,,0.00,0.0,WeatherDisplay:10.37,2014-03-02 00:53:00,
2014-03-01 18:54:00,13.7,10.8,30.29,NE,36,11.0,11.0,88,0.00,CLR,,0.00,0.0,WeatherDisplay:10.37,2014-03-02 00:54:00,
2014-03-01 18:56:00,13.6,10.7,30.29,North,5,17.3,17.3,88,0.00,CLR,,0.00,0.0,WeatherDisplay:10.37,2014-03-02 00:56:00,
2014-03-01 18:58:00,13.6,10.7,30.29,NNW,346,4.0,4.0,88,0.00,CLR,,0.00,0.0,WeatherDisplay:10.37,2014-03-02 00:58:00,
2014-03-01 18:59:00,13.6,10.7,30.29,NNW,343,12.7,12.7,88,0.00,CLR,,0.00,0.0,WeatherDisplay:10.37,2014-03-02 00:59:00,
2014-03-01 19:00:00,13.6,10.7,30.29,North,349,12.7,12.7,88,0.00,CLR,,0.00,0.0,WeatherDisplay:10.37,2014-03-02 01:00:00,
2014-03-01 19:01:00,13.6,10.7,30.29,NNW,344,8.1,8.1,88,0.00,CLR,,0.00,0.0,WeatherDisplay:10.37,2014-03-02 01:01:00,
2014-03-01 19:02:00,13.6,10.7,30.29,NNW,330,5.8,5.8,88,0.00,CLR,,0.00,0.0,WeatherDisplay:10.37,2014-03-02 01:02:00,
2014-03-01 19:03:00,13.6,10.7,30.30,NNE,28,10.4,10.4,88,0.00,CLR,,0.00,0.0,WeatherDisplay:10.37,2014-03-02 01:03:00,
2014-03-01 19:04:00,13.6,10.7,30.30,NNE,17,11.5,11.5,88,0.00,CLR,,0.00,0.0,WeatherDisplay:10.37,2014-03-02 01:04:00,
2014-03-01 19:05:00,13.6,10.7,30.30,NNW,333,11.5,11.5,88,0.00,CLR,,0.00,0.0,WeatherDisplay:10.37,2014-03-02 01:05:00,
2014-03-01 19:06:00,13.7,10.8,30.30,NE,36,5.0,5.0,88,0.00,CLR,,0.00,0.0,WeatherDisplay:10.37,2014-03-02 01:06:00,
2014-03-01 19:07:00,13.6,10.7,30.30,NNE,27,15.0,15.0,88,0.00,CLR,,0.00,0.0,WeatherDisplay:10.37,2014-03-02 01:07:00,
2014-03-01 19:09:00,13.6,10.7,30.30,NNW,343,11.5,11.5,88,0.00,CLR,,0.00,0.0,WeatherDisplay:10.37,2014-03-02 01:09:00,
2014-03-01 19:10:00,13.6,10.7,30.30,North,355,11.5,11.5,88,0.00,CLR,,0.00,0.0,WeatherDisplay:10.37,2014-03-02 01:10:00,
2014-03-01 19:11:00,13.6,10.7,30.30,NNE,32,10.4,10.4,88,0.00,CLR,,0.00,0.0,WeatherDisplay:10.37,2014-03-02 01:11:00,
2014-03-01 19:13:00,13.5,10.6,30.31,NNW,336,12.7,12.7,88,0.00,CLR,,0.00,0.0,WeatherDisplay:10.37,2014-03-02 01:13:00,
2014-03-01 19:14:00,13.5,10.6,30.31,North,349,13.8,13.8,88,0.00,CLR,,0.00,0.0,WeatherDisplay:10.37,2014-03-02 01:14:00,
2014-03-01 19:15:00,13.5,10.6,30.31,North,11,13.8,13.8,88,0.00,CLR,,0.00,0.0,WeatherDisplay:10.37,2014-03-02 01:15:00,
2014-03-01 19:17:00,13.4,10.5,30.31,WNW,299,16.1,16.1,88,0.00,CLR,,0.00,0.0,WeatherDisplay:10.37,2014-03-02 01:17:00,
2014-03-01 19:18:00,13.4,10.5,30.31,North,360,10.4,10.4,88,0.00,CLR,,0.00,0.0,WeatherDisplay:10.37,2014-03-02 01:18:00,
2014-03-01 19:20:00,13.3,10.4,30.31,North,350,12.7,12.7,88,0.00,CLR,,0.00,0.0,WeatherDisplay:10.37,2014-03-02 01:20:00,
2014-03-01 19:22:00,13.3,10.4,30.31,NNW,338,10.0,10.0,88,0.00,CLR,,0.00,0.0,WeatherDisplay:10.37,2014-03-02 01:22:00,
2014-03-01 19:24:00,13.3,10.7,30.31,NNW,345,11.5,11.5,89,0.00,CLR,,0.00,0.0,WeatherDisplay:10.37,2014-03-02 01:24:00,
2014-03-01 19:25:00,13.3,10.7,30.31,NNE,16,9.2,9.2,89,0.00,CLR,,0.00,0.0,WeatherDisplay:10.37,2014-03-02 01:25:00,
2014-03-01 19:26:00,13.3,10.7,30.31,NE,49,9.2,9.2,89,0.00,CLR,,0.00,0.0,WeatherDisplay:10.37,2014-03-02 01:26:00,
2014-03-01 19:27:00,13.2,10.6,30.31,North,355,8.1,8.1,89,0.00,CLR,,0.00,0.0,WeatherDisplay:10.37,2014-03-02 01:27:00,
2014-03-01 19:30:00,13.2,10.6,30.31,NNW,342,8.1,8.1,89,0.00,CLR,,0.00,0.0,WeatherDisplay:10.37,2014-03-02 01:30:00,
2014-03-01 19:31:00,13.2,10.6,30.31,NNE,20,11.5,11.5,89,0.00,CLR,,0.00,0.0,WeatherDisplay:10.37,2014-03-02 01:31:00,
2014-03-01 19:32:00,13.2,10.6,30.31,North,11,12.0,12.0,89,0.00,CLR,,0.00,0.0,WeatherDisplay:10.37,2014-03-02 01:32:00,
2014-03-01 19:35:00,13.1,10.5,30.31,NNE,24,11.5,11.5,89,0.00,CLR,,0.00,0.0,WeatherDisplay:10.37,2014-03-02 01:35:00,
2014-03-01 19:36:00,13.1,10.5,30.31,NE,38,9.2,9.2,89,0.00,CLR,,0.00,0.0,WeatherDisplay:10.37,2014-03-02 01:36:00,
2014-03-01 19:37:00,13.0,10.4,30.31,NW,316,9.2,9.2,89,0.00,CLR,,0.00,0.0,WeatherDisplay:10.37,2014-03-02 01:37:00,
2014-03-01 19:40:00,13.0,10.4,30.31,North,355,12.7,12.7,89,0.00,CLR,,0.00,0.0,WeatherDisplay:10.37,2014-03-02 01:40:00,
2014-03-01 19:41:00,12.9,10.3,30.31,NNW,338,5.8,5.8,89,0.00,CLR,,0.00,0.0,WeatherDisplay:10.37,2014-03-02 01:41:00,
2014-03-01 19:42:00,12.9,10.3,30.31,North,355,8.1,8.1,89,0.00,CLR,,0.00,0.0,WeatherDisplay:10.37,2014-03-02 01:42:00,
2014-03-01 19:43:00,12.9,10.3,30.31,NNW,344,8.1,8.1,89,0.00,CLR,,0.00,0.0,WeatherDisplay:10.37,2014-03-02 01:43:00,
2014-03-01 19:45:00,13.0,10.4,30.31,NNW,338,8.1,8.1,89,0.00,CLR,,0.00,0.0,WeatherDisplay:10.37,2014-03-02 01:45:00,
2014-03-01 19:46:00,12.9,10.3,30.31,NNW,342,8.1,8.1,89,0.00,CLR,,0.00,0.0,WeatherDisplay:10.37,2014-03-02 01:46:00,
2014-03-01 19:47:00,12.9,10.3,30.31,NE,35,11.5,11.5,89,0.00,CLR,,0.00,0.0,WeatherDisplay:10.37,2014-03-02 01:47:00,
2014-03-01 19:48:00,12.9,10.3,30.32,North,360,10.4,10.4,89,0.00,CLR,,0.00,0.0,WeatherDisplay:10.37,2014-03-02 01:48:00,
2014-03-01 19:50:00,12.8,10.2,30.32,North,360,11.5,11.5,89,0.00,CLR,,0.00,0.0,WeatherDisplay:10.37,2014-03-02 01:50:00,
2014-03-01 19:51:00,12.8,10.2,30.32,NW,322,9.2,9.2,89,0.00,CLR,,0.00,0.0,WeatherDisplay:10.37,2014-03-02 01:51:00,
2014-03-01 19:52:00,12.7,10.1,30.32,NNE,26,11.5,11.5,89,0.00,CLR,,0.00,0.0,WeatherDisplay:10.37,2014-03-02 01:52:00,
2014-03-01 19:53:00,12.7,10.1,30.32,NW,314,11.5,11.5,89,0.00,CLR,,0.00,0.0,WeatherDisplay:10.37,2014-03-02 01:53:00,
2014-03-01 19:55:00,12.7,10.1,30.33,NNW,340,11.5,11.5,89,0.00,CLR,,0.00,0.0,WeatherDisplay:10.37,2014-03-02 01:55:00,
2014-03-01 19:56:00,12.7,10.1,30.33,North,360,11.0,11.0,89,0.00,CLR,,0.00,0.0,WeatherDisplay:10.37,2014-03-02 01:56:00,
2014-03-01 19:57:00,12.7,10.1,30.33,NNW,342,15.0,15.0,89,0.00,CLR,,0.00,0.0,WeatherDisplay:10.37,2014-03-02 01:57:00,
2014-03-01 19:58:00,12.6,10.0,30.33,North,5,15.0,15.0,89,0.00,CLR,,0.00,0.0,WeatherDisplay:10.37,2014-03-02 01:58:00,
2014-03-01 19:59:00,12.6,10.0,30.33,NW,309,11.5,11.5,89,0.00,CLR,,0.00,0.0,WeatherDisplay:10.37,2014-03-02 01:59:00,
2014-03-01 20:00:00,12.6,10.0,30.33,NNW,346,11.5,11.5,89,0.00,CLR,,0.00,0.0,WeatherDisplay:10.37,2014-03-02 02:00:00,
2014-03-01 20:01:00,12.6,10.0,30.33,ENE,69,9.2,9.2,89,0.00,CLR,,0.00,0.0,WeatherDisplay:10.37,2014-03-02 02:01:00,
2014-03-01 20:02:00,12.6,10.0,30.33,North,5,12.7,12.7,89,0.00,CLR,,0.00,0.0,WeatherDisplay:10.37,2014-03-02 02:02:00,
2014-03-01 20:03:00,12.6,10.0,30.33,North,360,11.5,11.5,89,0.00,CLR,,0.00,0.0,WeatherDisplay:10.37,2014-03-02 02:03:00,
2014-03-01 20:04:00,12.5,9.9,30.33,NNW,329,10.4,10.4,89,0.00,CLR,,0.00,0.0,WeatherDisplay:10.37,2014-03-02 02:04:00,
2014-03-01 20:06:00,12.5,9.9,30.33,NNE,15,10.4,10.4,89,0.00,CLR,,0.00,0.0,WeatherDisplay:10.37,2014-03-02 02:06:00,
2014-03-01 20:07:00,12.5,9.9,30.33,NNW,331,15.0,15.0,89,0.00,CLR,,0.00,0.0,WeatherDisplay:10.37,2014-03-02 02:07:00,
2014-03-01 20:08:00,12.5,9.9,30.34,NW,315,11.5,11.5,89,0.00,CLR,,0.00,0.0,WeatherDisplay:10.37,2014-03-02 02:08:00,
2014-03-01 20:09:00,12.5,9.9,30.33,NNE,13,12.7,12.7,89,0.00,CLR,,0.00,0.0,WeatherDisplay:10.37,2014-03-02 02:09:00,
2014-03-01 20:11:00,12.4,9.8,30.34,NNE,19,9.2,9.2,89,0.00,CLR,,0.00,0.0,WeatherDisplay:10.37,2014-03-02 02:11:00,
2014-03-01 20:12:00,12.3,9.7,30.34,NNW,342,11.5,11.5,89,0.00,CLR,,0.00,0.0,WeatherDisplay:10.37,2014-03-02 02:12:00,
2014-03-01 20:13:00,12.3,9.7,30.34,North,355,12.7,12.7,89,0.00,CLR,,0.00,0.0,WeatherDisplay:10.37,2014-03-02 02:13:00,
2014-03-01 20:15:00,12.3,9.7,30.34,NNW,348,11.5,11.5,89,0.00,CLR,,0.00,0.0,WeatherDisplay:10.37,2014-03-02 02:15:00,
2014-03-01 20:16:00,12.3,9.7,30.34,North,355,10.4,10.4,89,0.00,CLR,,0.00,0.0,WeatherDisplay:10.37,2014-03-02 02:16:00,
2014-03-01 20:17:00,12.3,9.7,30.34,North,350,10.4,10.4,89,0.00,CLR,,0.00,0.0,WeatherDisplay:10.37,2014-03-02 02:17:00,
2014-03-01 20:19:00,12.3,9.7,30.35,NNW,329,5.8,5.8,89,0.00,CLR,,0.00,0.0,WeatherDisplay:10.37,2014-03-02 02:19:00,
2014-03-01 20:21:00,12.3,9.7,30.35,NW,321,3.5,3.6,89,0.00,CLR,,0.00,0.0,WeatherDisplay:10.37,2014-03-02 02:21:00,
2014-03-01 20:22:00,12.3,9.7,30.35,NNW,338,8.1,8.1,89,0.00,CLR,,0.00,0.0,WeatherDisplay:10.37,2014-03-02 02:22:00,
2014-03-01 20:23:00,12.3,9.7,30.36,NNW,342,9.2,9.2,89,0.00,CLR,,0.00,0.0,WeatherDisplay:10.37,2014-03-02 02:23:00,
2014-03-01 20:24:00,12.3,9.7,30.36,North,5,3.5,3.5,89,0.00,CLR,,0.00,0.0,WeatherDisplay:10.37,2014-03-02 02:24:00,
2014-03-01 20:26:00,12.4,10.0,30.36,North,5,3.5,3.5,90,0.00,CLR,,0.00,0.0,WeatherDisplay:10.37,2014-03-02 02:26:00,
2014-03-01 20:27:00,12.5,10.1,30.36,NNW,336,12.0,12.0,90,0.00,CLR,,0.00,0.0,WeatherDisplay:10.37,2014-03-02 02:27:00,
2014-03-01 20:28:00,12.5,10.1,30.37,NNE,18,11.5,11.5,90,0.00,CLR,,0.00,0.0,WeatherDisplay:10.37,2014-03-02 02:28:00,
2014-03-01 20:29:00,12.5,9.9,30.37,NW,315,10.4,10.4,89,0.00,CLR,,0.00,0.0,WeatherDisplay:10.37,2014-03-02 02:29:00,
2014-03-01 20:31:00,12.4,9.8,30.37,NNW,348,9.2,9.2,89,0.00,CLR,,0.00,0.0,WeatherDisplay:10.37,2014-03-02 02:31:00,
2014-03-01 20:32:00,12.4,9.8,30.37,North,355,11.5,11.5,89,0.00,CLR,,0.00,0.0,WeatherDisplay:10.37,2014-03-02 02:32:00,
2014-03-01 20:33:00,12.4,9.8,30.38,North,9,10.4,10.4,89,0.00,CLR,,0.00,0.0,WeatherDisplay:10.37,2014-03-02 02:33:00,
2014-03-01 20:35:00,12.4,9.8,30.38,North,355,8.1,8.1,89,0.00,CLR,,0.00,0.0,WeatherDisplay:10.37,2014-03-02 02:35:00,
2014-03-01 20:36:00,12.4,9.8,30.37,NNW,348,11.5,11.5,89,0.00,CLR,,0.00,0.0,WeatherDisplay:10.37,2014-03-02 02:36:00,
2014-03-01 20:37:00,12.4,9.8,30.37,North,355,11.5,11.5,89,0.00,CLR,,0.00,0.0,WeatherDisplay:10.37,2014-03-02 02:37:00,
2014-03-01 20:38:00,12.3,9.7,30.37,North,10,11.5,11.5,89,0.00,CLR,,0.00,0.0,WeatherDisplay:10.37,2014-03-02 02:38:00,
2014-03-01 20:39:00,12.3,9.7,30.38,NE,42,10.4,10.4,89,0.00,CLR,,0.00,0.0,WeatherDisplay:10.37,2014-03-02 02:39:00,
2014-03-01 20:40:00,12.3,9.7,30.38,NNW,337,10.4,10.4,89,0.00,CLR,,0.00,0.0,WeatherDisplay:10.37,2014-03-02 02:40:00,
2014-03-01 20:41:00,12.3,9.7,30.38,North,350,5.8,5.8,89,0.00,CLR,,0.00,0.0,WeatherDisplay:10.37,2014-03-02 02:41:00,
2014-03-01 20:42:00,12.2,9.6,30.38,North,5,9.2,9.2,89,0.00,CLR,,0.00,0.0,WeatherDisplay:10.37,2014-03-02 02:42:00,
2014-03-01 20:43:00,12.2,9.6,30.38,North,360,10.4,10.4,89,0.00,CLR,,0.00,0.0,WeatherDisplay:10.37,2014-03-02 02:43:00,
2014-03-01 20:44:00,12.2,9.6,30.38,NNE,15,9.2,9.2,89,0.00,CLR,,0.00,0.0,WeatherDisplay:10.37,2014-03-02 02:44:00,
2014-03-01 20:46:00,12.2,9.6,30.37,North,360,8.1,8.1,89,0.00,CLR,,0.00,0.0,WeatherDisplay:10.37,2014-03-02 02:46:00,
2014-03-01 20:47:00,12.2,9.6,30.37,NNE,24,4.6,5.0,89,0.00,CLR,,0.00,0.0,WeatherDisplay:10.37,2014-03-02 02:47:00,
2014-03-01 20:48:00,12.1,9.5,30.37,NE,34,11.5,11.5,89,0.00,CLR,,0.00,0.0,WeatherDisplay:10.37,2014-03-02 02:48:00,
2014-03-01 20:49:00,12.1,9.5,30.37,NNE,26,9.2,9.2,89,0.00,CLR,,0.00,0.0,WeatherDisplay:10.37,2014-03-02 02:49:00,
2014-03-01 20:51:00,12.1,9.5,30.37,NNW,339,5.8,5.8,89,0.00,CLR,,0.00,0.0,WeatherDisplay:10.37,2014-03-02 02:51:00,
2014-03-01 20:52:00,12.1,9.5,30.37,NNW,329,11.5,11.5,89,0.00,CLR,,0.00,0.0,WeatherDisplay:10.37,2014-03-02 02:52:00,
2014-03-01 20:53:00,12.0,9.4,30.37,NNE,22,10.4,10.4,89,0.00,CLR,,0.00,0.0,WeatherDisplay:10.37,2014-03-02 02:53:00,
2014-03-01 20:54:00,11.9,9.3,30.37,NNW,329,12.7,12.7,89,0.00,CLR,,0.00,0.0,WeatherDisplay:10.37,2014-03-02 02:54:00,
2014-03-01 20:56:00,11.9,9.3,30.37,North,11,9.2,9.2,89,0.00,CLR,,0.00,0.0,WeatherDisplay:10.37,2014-03-02 02:56:00,
2014-03-01 20:57:00,11.9,9.3,30.37,NNW,348,9.2,9.2,89,0.00,CLR,,0.00,0.0,WeatherDisplay:10.37,2014-03-02 02:57:00,
2014-03-01 20:58:00,11.8,9.2,30.37,North,9,3.5,3.5,89,0.00,CLR,,0.00,0.0,WeatherDisplay:10.37,2014-03-02 02:58:00,
2014-03-01 20:59:00,11.8,9.2,30.37,North,9,3.5,3.5,89,0.00,CLR,,0.00,0.0,WeatherDisplay:10.37,2014-03-02 02:59:00,
2014-03-01 21:01:00,11.7,9.1,30.37,ENE,59,8.1,8.1,89,0.00,CLR,,0.00,0.0,WeatherDisplay:10.37,2014-03-02 03:01:00,
2014-03-01 21:02:00,11.7,9.1,30.37,North,350,9.2,9.2,89,0.00,CLR,,0.00,0.0,WeatherDisplay:10.37,2014-03-02 03:02:00,
2014-03-01 21:03:00,11.6,9.0,30.37,WNW,300,9.2,9.2,89,0.00,CLR,,0.00,0.0,WeatherDisplay:10.37,2014-03-02 03:03:00,
2014-03-01 21:04:00,11.6,9.0,30.38,NNW,342,10.4,10.4,89,0.00,CLR,,0.00,0.0,WeatherDisplay:10.37,2014-03-02 03:04:00,
2014-03-01 21:07:00,11.5,8.9,30.38,NNE,15,10.4,10.4,89,0.00,CLR,,0.00,0.0,WeatherDisplay:10.37,2014-03-02 03:07:00,
2014-03-01 21:08:00,11.4,8.8,30.38,North,10,11.5,11.5,89,0.00,CLR,,0.00,0.0,WeatherDisplay:10.37,2014-03-02 03:08:00,
2014-03-01 21:09:00,11.4,8.8,30.38,North,360,10.4,10.4,89,0.00,CLR,,0.00,0.0,WeatherDisplay:10.37,2014-03-02 03:09:00,
2014-03-01 21:10:00,11.4,8.8,30.38,NNW,343,10.4,10.4,89,0.00,CLR,,0.00,0.0,WeatherDisplay:10.37,2014-03-02 03:10:00,
2014-03-01 21:12:00,11.4,8.8,30.38,NNE,27,11.0,11.0,89,0.00,CLR,,0.00,0.0,WeatherDisplay:10.37,2014-03-02 03:12:00,
2014-03-01 21:13:00,11.3,8.7,30.38,North,360,9.2,9.2,89,0.00,CLR,,0.00,0.0,WeatherDisplay:10.37,2014-03-02 03:13:00,
2014-03-01 21:14:00,11.3,8.7,30.38,North,9,9.2,9.2,89,0.00,CLR,,0.00,0.0,WeatherDisplay:10.37,2014-03-02 03:14:00,
2014-03-01 21:15:00,11.3,8.7,30.38,NNW,345,10.4,10.4,89,0.00,CLR,,0.00,0.0,WeatherDisplay:10.37,2014-03-02 03:15:00,
2014-03-01 21:17:00,11.2,8.6,30.37,NNW,346,11.5,11.5,89,0.00,CLR,,0.00,0.0,WeatherDisplay:10.37,2014-03-02 03:17:00,
2014-03-01 21:19:00,11.2,8.6,30.37,NNE,13,3.5,3.6,89,0.00,CLR,,0.00,0.0,WeatherDisplay:10.37,2014-03-02 03:19:00,
2014-03-01 21:20:00,11.1,8.5,30.36,WNW,296,9.2,9.2,89,0.00,CLR,,0.00,0.0,WeatherDisplay:10.37,2014-03-02 03:20:00,
2014-03-01 21:21:00,11.1,8.5,30.36,NNE,20,9.2,9.2,89,0.00,CLR,,0.00,0.0,WeatherDisplay:10.37,2014-03-02 03:21:00,
2014-03-01 21:23:00,11.1,8.5,30.37,NNW,340,11.5,11.5,89,0.00,CLR,,0.00,0.0,WeatherDisplay:10.37,2014-03-02 03:23:00,
2014-03-01 21:24:00,11.0,8.4,30.37,NNW,340,11.5,11.5,89,0.00,CLR,,0.00,0.0,WeatherDisplay:10.37,2014-03-02 03:24:00,
2014-03-01 21:25:00,11.0,8.4,30.38,North,355,11.5,11.5,89,0.00,CLR,,0.00,0.0,WeatherDisplay:10.37,2014-03-02 03:25:00,
2014-03-01 21:26:00,11.0,8.4,30.38,NNW,335,11.5,11.5,89,0.00,CLR,,0.00,0.0,WeatherDisplay:10.37,2014-03-02 03:26:00,
2014-03-01 21:28:00,11.0,8.4,30.37,North,5,11.5,11.5,89,0.00,CLR,,0.00,0.0,WeatherDisplay:10.37,2014-03-02 03:28:00,
2014-03-01 21:29:00,11.0,8.4,30.37,North,10,11.5,11.5,89,0.00,CLR,,0.00,0.0,WeatherDisplay:10.37,2014-03-02 03:29:00,
2014-03-01 21:30:00,10.9,8.3,30.38,North,355,13.8,13.8,89,0.00,CLR,,0.00,0.0,WeatherDisplay:10.37,2014-03-02 03:30:00,
2014-03-01 21:31:00,10.9,8.3,30.38,NNW,343,11.5,11.5,89,0.00,CLR,,0.00,0.0,WeatherDisplay:10.37,2014-03-02 03:31:00,
2014-03-01 21:33:00,10.9,8.3,30.39,NNW,348,5.8,5.8,89,0.00,CLR,,0.00,0.0,WeatherDisplay:10.37,2014-03-02 03:33:00,
2014-03-01 21:34:00,10.9,8.3,30.39,North,355,4.6,4.6,89,0.00,CLR,,0.00,0.0,WeatherDisplay:10.37,2014-03-02 03:34:00,
2014-03-01 21:35:00,10.9,8.3,30.39,WNW,297,8.1,8.1,89,0.00,CLR,,0.00,0.0,WeatherDisplay:10.37,2014-03-02 03:35:00,
2014-03-01 21:36:00,10.9,8.3,30.38,NNE,33,10.4,10.4,89,0.00,CLR,,0.00,0.0,WeatherDisplay:10.37,2014-03-02 03:36:00,
2014-03-01 21:37:00,10.9,8.3,30.38,NNW,342,8.1,8.1,89,0.00,CLR,,0.00,0.0,WeatherDisplay:10.37,2014-03-02 03:37:00,
2014-03-01 21:38:00,10.9,8.3,30.38,NNW,330,8.1,8.1,89,0.00,CLR,,0.00,0.0,WeatherDisplay:10.37,2014-03-02 03:38:00,
2014-03-01 21:39:00,10.9,8.3,30.37,NE,44,10.4,10.4,89,0.00,CLR,,0.00,0.0,WeatherDisplay:10.37,2014-03-02 03:39:00,
2014-03-01 21:40:00,10.9,8.3,30.37,North,355,10.4,10.4,89,0.00,CLR,,0.00,0.0,WeatherDisplay:10.37,2014-03-02 03:40:00,
2014-03-01 21:41:00,10.8,8.2,30.37,NW,315,10.4,10.4,89,0.00,CLR,,0.00,0.0,WeatherDisplay:10.37,2014-03-02 03:41:00,
2014-03-01 21:42:00,10.8,8.2,30.38,NE,41,9.2,9.2,89,0.00,CLR,,0.00,0.0,WeatherDisplay:10.37,2014-03-02 03:42:00,
2014-03-01 21:43:00,10.8,8.2,30.38,North,11,12.0,12.0,89,0.00,CLR,,0.00,0.0,WeatherDisplay:10.37,2014-03-02 03:43:00,
2014-03-01 21:44:00,10.8,8.2,30.38,North,5,12.7,12.7,89,0.00,CLR,,0.00,0.0,WeatherDisplay:10.37,2014-03-02 03:44:00,
2014-03-01 21:45:00,10.8,8.2,30.38,NNW,346,10.4,10.4,89,0.00,CLR,,0.00,0.0,WeatherDisplay:10.37,2014-03-02 03:45:00,
2014-03-01 21:46:00,10.7,8.1,30.38,NNW,344,8.1,8.1,89,0.00,CLR,,0.00,0.0,WeatherDisplay:10.37,2014-03-02 03:46:00,
2014-03-01 21:47:00,10.6,8.0,30.38,WNW,292,11.5,11.5,89,0.00,CLR,,0.00,0.0,WeatherDisplay:10.37,2014-03-02 03:47:00,
2014-03-01 21:48:00,10.6,8.0,30.38,NNW,345,10.0,10.0,89,0.00,CLR,,0.00,0.0,WeatherDisplay:10.37,2014-03-02 03:48:00,
2014-03-01 21:49:00,10.6,7.7,30.39,NW,325,11.5,11.5,88,0.00,CLR,,0.00,0.0,WeatherDisplay:10.37,2014-03-02 03:49:00,
2014-03-01 21:50:00,10.5,7.6,30.39,North,360,10.4,10.4,88,0.00,CLR,,0.00,0.0,WeatherDisplay:10.37,2014-03-02 03:50:00,
2014-03-01 21:51:00,10.5,7.6,30.40,NNW,346,9.2,9.2,88,0.00,CLR,,0.00,0.0,WeatherDisplay:10.37,2014-03-02 03:51:00,
2014-03-01 21:52:00,10.6,7.7,30.40,NNW,344,5.0,5.0,88,0.00,CLR,,0.00,0.0,WeatherDisplay:10.37,2014-03-02 03:52:00,
2014-03-01 21:53:00,10.5,7.6,30.40,NNE,22,4.6,4.6,88,0.00,CLR,,0.00,0.0,WeatherDisplay:10.37,2014-03-02 03:53:00,
2014-03-01 21:54:00,10.6,7.7,30.39,NW,325,6.9,6.9,88,0.00,CLR,,0.00,0.0,WeatherDisplay:10.37,2014-03-02 03:54:00,
2014-03-01 21:55:00,10.6,7.7,30.39,NNW,343,8.1,8.1,88,0.00,CLR,,0.00,0.0,WeatherDisplay:10.37,2014-03-02 03:55:00,
2014-03-01 21:56:00,10.6,7.7,30.39,NW,324,13.8,13.8,88,0.00,CLR,,0.00,0.0,WeatherDisplay:10.37,2014-03-02 03:56:00,
2014-03-01 21:58:00,10.5,7.6,30.39,NNW,343,11.5,11.5,88,0.00,CLR,,0.00,0.0,WeatherDisplay:10.37,2014-03-02 03:58:00,
2014-03-01 21:59:00,10.5,7.6,30.39,NW,324,6.9,6.9,88,0.00,CLR,,0.00,0.0,WeatherDisplay:10.37,2014-03-02 03:59:00,
2014-03-01 22:00:00,10.4,7.6,30.39,NNW,335,9.2,9.2,88,0.00,CLR,,0.00,0.0,WeatherDisplay:10.37,2014-03-02 04:00:00,
2014-03-01 22:01:00,10.4,7.6,30.39,NNW,344,9.0,9.0,88,0.00,CLR,,0.00,0.0,WeatherDisplay:10.37,2014-03-02 04:01:00,
2014-03-01 22:03:00,10.4,7.6,30.39,NNE,33,9.2,9.2,88,0.00,CLR,,0.00,0.0,WeatherDisplay:10.37,2014-03-02 04:03:00,
2014-03-01 22:04:00,10.4,7.6,30.39,NNE,25,10.4,10.4,88,0.00,CLR,,0.00,0.0,WeatherDisplay:10.37,2014-03-02 04:04:00,
2014-03-01 22:06:00,10.3,7.5,30.39,NNE,28,10.4,10.4,88,0.00,CLR,,0.00,0.0,WeatherDisplay:10.37,2014-03-02 04:06:00,
2014-03-01 22:08:00,10.3,7.5,30.39,NNE,19,11.5,11.5,88,0.00,CLR,,0.00,0.0,WeatherDisplay:10.37,2014-03-02 04:08:00,
2014-03-01 22:09:00,10.3,7.5,30.39,NNW,337,9.2,9.2,88,0.00,CLR,,0.00,0.0,WeatherDisplay:10.37,2014-03-02 04:09:00,
2014-03-01 22:11:00,10.3,7.5,30.39,NNW,348,9.0,9.0,88,0.00,CLR,,0.00,0.0,WeatherDisplay:10.37,2014-03-02 04:11:00,
2014-03-01 22:12:00,10.3,7.5,30.39,NNW,346,11.5,11.5,88,0.00,CLR,,0.00,0.0,WeatherDisplay:10.37,2014-03-02 04:12:00,
2014-03-01 22:13:00,10.2,7.4,30.39,NNE,19,11.5,11.5,88,0.00,CLR,,0.00,0.0,WeatherDisplay:10.37,2014-03-02 04:13:00,
2014-03-01 22:14:00,10.2,7.4,30.39,NNW,334,8.1,8.1,88,0.00,CLR,,0.00,0.0,WeatherDisplay:10.37,2014-03-02 04:14:00,
2014-03-01 22:16:00,10.3,7.5,30.39,North,349,10.4,10.4,88,0.00,CLR,,0.00,0.0,WeatherDisplay:10.37,2014-03-02 04:16:00,
2014-03-01 22:17:00,10.3,7.5,30.39,NNW,340,4.6,4.6,88,0.00,CLR,,0.00,0.0,WeatherDisplay:10.37,2014-03-02 04:17:00,
2014-03-01 22:19:00,10.2,7.4,30.40,North,5,8.1,8.1,88,0.00,CLR,,0.00,0.0,WeatherDisplay:10.37,2014-03-02 04:19:00,
2014-03-01 22:20:00,10.2,7.4,30.40,NNE,17,8.1,8.1,88,0.00,CLR,,0.00,0.0,WeatherDisplay:10.37,2014-03-02 04:20:00,
2014-03-01 22:21:00,10.2,7.4,30.40,NNE,20,8.0,8.0,88,0.00,CLR,,0.00,0.0,WeatherDisplay:10.37,2014-03-02 04:21:00,
2014-03-01 22:22:00,10.2,7.4,30.40,NW,325,11.5,11.5,88,0.00,CLR,,0.00,0.0,WeatherDisplay:10.37,2014-03-02 04:22:00,
2014-03-01 22:24:00,10.2,7.4,30.41,WNW,297,16.1,16.1,88,0.00,CLR,,0.00,0.0,WeatherDisplay:10.37,2014-03-02 04:24:00,
2014-03-01 22:25:00,10.1,7.3,30.41,NNE,27,16.1,16.1,88,0.00,CLR,,0.00,0.0,WeatherDisplay:10.37,2014-03-02 04:25:00,
2014-03-01 22:26:00,10.1,7.3,30.40,NNW,329,10.4,10.4,88,0.00,CLR,,0.00,0.0,WeatherDisplay:10.37,2014-03-02 04:26:00,
2014-03-01 22:29:00,10.1,7.3,30.40,NNE,13,8.1,8.1,88,0.00,CLR,,0.00,0.0,WeatherDisplay:10.37,2014-03-02 04:29:00,
2014-03-01 22:30:00,10.1,7.3,30.40,North,360,8.1,8.1,88,0.00,CLR,,0.00,0.0,WeatherDisplay:10.37,2014-03-02 04:30:00,
2014-03-01 22:32:00,10.0,7.2,30.39,NNE,28,12.7,12.7,88,0.00,CLR,,0.00,0.0,WeatherDisplay:10.37,2014-03-02 04:32:00,
2014-03-01 22:34:00,9.9,7.1,30.39,NNE,15,11.5,11.5,88,0.00,CLR,,0.00,0.0,WeatherDisplay:10.37,2014-03-02 04:34:00,
2014-03-01 22:35:00,9.9,7.1,30.39,NNW,348,5.8,5.8,88,0.00,CLR,,0.00,0.0,WeatherDisplay:10.37,2014-03-02 04:35:00,
2014-03-01 22:37:00,9.9,7.1,30.39,NE,41,13.8,13.8,88,0.00,CLR,,0.00,0.0,WeatherDisplay:10.37,2014-03-02 04:37:00,
2014-03-01 22:39:00,9.8,6.7,30.40,North,5,11.5,11.5,87,0.00,CLR,,0.00,0.0,WeatherDisplay:10.37,2014-03-02 04:39:00,
2014-03-01 22:40:00,9.8,6.7,30.40,North,5,10.4,10.4,87,0.00,CLR,,0.00,0.0,WeatherDisplay:10.37,2014-03-02 04:40:00,
2014-03-01 22:42:00,9.8,6.7,30.40,NNE,19,12.7,12.7,87,0.00,CLR,,0.00,0.0,WeatherDisplay:10.37,2014-03-02 04:42:00,
2014-03-01 22:45:00,9.6,6.5,30.40,North,11,10.4,10.4,87,0.00,CLR,,0.00,0.0,WeatherDisplay:10.37,2014-03-02 04:45:00,
2014-03-01 22:46:00,9.6,6.5,30.40,NNW,328,19.6,19.6,87,0.00,CLR,,0.00,0.0,WeatherDisplay:10.37,2014-03-02 04:46:00,
2014-03-01 22:47:00,9.6,6.5,30.40,WNW,299,11.5,11.5,87,0.00,CLR,,0.00,0.0,WeatherDisplay:10.37,2014-03-02 04:47:00,
2014-03-01 22:50:00,9.7,6.6,30.41,NNW,342,9.2,9.2,87,0.00,CLR,,0.00,0.0,WeatherDisplay:10.37,2014-03-02 04:50:00,
2014-03-01 22:51:00,9.7,6.6,30.41,North,355,9.2,9.2,87,0.00,CLR,,0.00,0.0,WeatherDisplay:10.37,2014-03-02 04:51:00,
2014-03-01 22:52:00,9.7,6.6,30.41,North,5,9.2,9.2,87,0.00,CLR,,0.00,0.0,WeatherDisplay:10.37,2014-03-02 04:52:00,
2014-03-01 22:55:00,9.7,6.6,30.41,NNW,344,5.8,5.8,87,0.00,CLR,,0.00,0.0,WeatherDisplay:10.37,2014-03-02 04:55:00,
2014-03-01 22:56:00,9.8,6.5,30.41,NW,305,5.8,5.8,86,0.00,CLR,,0.00,0.0,WeatherDisplay:10.37,2014-03-02 04:56:00,
2014-03-01 22:57:00,9.8,6.7,30.41,NNE,32,10.0,10.0,87,0.00,CLR,,0.00,0.0,WeatherDisplay:10.37,2014-03-02 04:57:00,
2014-03-01 22:58:00,9.8,6.7,30.40,NNE,12,16.1,16.1,87,0.00,CLR,,0.00,0.0,WeatherDisplay:10.37,2014-03-02 04:58:00,
2014-03-01 23:00:00,9.8,6.7,30.40,NNW,346,11.5,11.5,87,0.00,CLR,,0.00,0.0,WeatherDisplay:10.37,2014-03-02 05:00:00,
2014-03-01 23:01:00,9.7,6.6,30.40,North,5,11.5,11.5,87,0.00,CLR,,0.00,0.0,WeatherDisplay:10.37,2014-03-02 05:01:00,
2014-03-01 23:06:00,9.5,6.4,30.39,NNW,327,11.5,11.5,87,0.00,CLR,,0.00,0.0,WeatherDisplay:10.37,2014-03-02 05:06:00,
2014-03-01 23:11:00,9.2,5.9,30.40,North,10,11.5,11.5,86,0.00,CLR,,0.00,0.0,WeatherDisplay:10.37,2014-03-02 05:11:00,
2014-03-01 23:12:00,9.2,5.9,30.40,NE,37,10.4,10.4,86,0.00,CLR,,0.00,0.0,WeatherDisplay:10.37,2014-03-02 05:12:00,
2014-03-01 23:14:00,9.1,6.0,30.40,NNW,347,2.0,15.0,86,0.00,,,0.00,0,weatherlink.com 1.10,2014-03-02 05:14:00,
2014-03-01 23:16:00,9.1,5.8,30.41,NW,319,10.4,10.4,86,0.00,CLR,,0.00,0.0,WeatherDisplay:10.37,2014-03-02 05:16:00,
2014-03-01 23:17:00,9.0,5.7,30.41,NNW,344,9.2,9.2,86,0.00,CLR,,0.00,0.0,WeatherDisplay:10.37,2014-03-02 05:17:00,
2014-03-01 23:21:00,9.0,5.7,30.41,NNW,333,5.8,5.8,86,0.00,CLR,,0.00,0.0,WeatherDisplay:10.37,2014-03-02 05:21:00,
2014-03-01 23:22:00,9.0,5.7,30.41,NW,323,3.5,3.5,86,0.00,CLR,,0.00,0.0,WeatherDisplay:10.37,2014-03-02 05:22:00,
2014-03-01 23:23:00,9.0,5.9,30.41,NNW,328,11.5,11.5,87,0.00,CLR,,0.00,0.0,WeatherDisplay:10.37,2014-03-02 05:23:00,
2014-03-01 23:26:00,8.9,5.6,30.41,NNE,24,10.4,10.4,86,0.00,CLR,,0.00,0.0,WeatherDisplay:10.37,2014-03-02 05:26:00,
2014-03-01 23:27:00,8.9,5.6,30.41,NW,319,10.4,10.4,86,0.00,CLR,,0.00,0.0,WeatherDisplay:10.37,2014-03-02 05:27:00,
2014-03-01 23:28:00,8.9,5.6,30.41,NNW,339,11.5,11.5,86,0.00,CLR,,0.00,0.0,WeatherDisplay:10.37,2014-03-02 05:28:00,
2014-03-01 23:29:00,8.8,5.5,30.41,NNE,22,11.5,11.5,86,0.00,CLR,,0.00,0.0,WeatherDisplay:10.37,2014-03-02 05:29:00,
2014-03-01 23:30:00,8.8,6.0,30.41,NW,320,16.0,16.0,86,0.00,,,0.00,0,weatherlink.com 1.10,2014-03-02 05:30:00,
2014-03-01 23:31:00,8.7,5.4,30.41,NNW,336,10.4,10.4,86,0.00,CLR,,0.00,0.0,WeatherDisplay:10.37,2014-03-02 05:31:00,
2014-03-01 23:32:00,8.7,5.4,30.41,NNW,329,10.4,10.4,86,0.00,CLR,,0.00,0.0,WeatherDisplay:10.37,2014-03-02 05:32:00,
2014-03-01 23:33:00,8.7,5.4,30.41,NW,326,9.2,9.2,86,0.00,CLR,,0.00,0.0,WeatherDisplay:10.37,2014-03-02 05:33:00,
2014-03-01 23:36:00,8.7,5.4,30.41,NNW,333,8.1,8.1,86,0.00,CLR,,0.00,0.0,WeatherDisplay:10.37,2014-03-02 05:36:00,
2014-03-01 23:37:00,8.6,5.3,30.41,NNW,339,10.4,10.4,86,0.00,CLR,,0.00,0.0,WeatherDisplay:10.37,2014-03-02 05:37:00,
2014-03-01 23:38:00,8.6,5.3,30.40,NW,314,9.2,9.2,86,0.00,CLR,,0.00,0.0,WeatherDisplay:10.37,2014-03-02 05:38:00,
2014-03-01 23:41:00,8.5,5.2,30.40,NNW,336,6.0,6.0,86,0.00,CLR,,0.00,0.0,WeatherDisplay:10.37,2014-03-02 05:41:00,
2014-03-01 23:42:00,8.5,5.2,30.40,NNW,336,5.8,6.0,86,0.00,CLR,,0.00,0.0,WeatherDisplay:10.37,2014-03-02 05:42:00,
2014-03-01 23:43:00,8.3,5.0,30.40,NW,323,5.8,5.8,86,0.00,CLR,,0.00,0.0,WeatherDisplay:10.37,2014-03-02 05:43:00,
2014-03-01 23:45:00,8.2,5.0,30.39,North,5,4.0,15.0,86,0.00,,,0.00,0,weatherlink.com 1.10,2014-03-02 05:45:00,
2014-03-01 23:46:00,8.1,4.8,30.40,NW,318,18.4,18.4,86,0.00,CLR,,0.00,0.0,WeatherDisplay:10.37,2014-03-02 05:46:00,
2014-03-01 23:47:00,8.1,4.8,30.40,NNW,328,12.7,12.7,86,0.00,CLR,,0.00,0.0,WeatherDisplay:10.37,2014-03-02 05:47:00,
2014-03-01 23:48:00,8.0,4.4,30.40,NNW,331,10.4,10.4,85,0.00,CLR,,0.00,0.0,WeatherDisplay:10.37,2014-03-02 05:48:00,
2014-03-01 23:49:00,7.9,4.3,30.40,NW,323,11.5,11.5,85,0.00,CLR,,0.00,0.0,WeatherDisplay:10.37,2014-03-02 05:49:00,
2014-03-01 23:51:00,7.8,4.2,30.41,NNE,15,11.5,11.5,85,0.00,CLR,,0.00,0.0,WeatherDisplay:10.37,2014-03-02 05:51:00,
2014-03-01 23:52:00,7.8,4.2,30.41,NW,316,11.5,11.5,85,0.00,CLR,,0.00,0.0,WeatherDisplay:10.37,2014-03-02 05:52:00,
2014-03-01 23:53:00,7.7,4.1,30.42,North,355,12.7,12.7,85,0.00,CLR,,0.00,0.0,WeatherDisplay:10.37,2014-03-02 05:53:00,
2014-03-01 23:55:00,7.6,4.0,30.41,NE,34,11.5,11.5,85,0.00,CLR,,0.00,0.0,WeatherDisplay:10.37,2014-03-02 05:55:00,
2014-03-01 23:57:00,7.6,4.0,30.41,NNE,17,11.5,11.5,85,0.00,CLR,,0.00,0.0,WeatherDisplay:10.37,2014-03-02 05:57:00,
2014-03-01 23:59:00,7.6,4.0,30.42,North,355,11.5,11.5,85,0.00,CLR,,0.00,0.0,WeatherDisplay:10.37,2014-03-02 05:59:00,